[[{"header":{"parameterUnit":"m.s-1","parameterCategory":1,"la1":30.6,"la2":28.766,"lo1":-90.7593,"lo2":-88.6598,"dy":0.0162,"dx":0.0183,"nx":116,"ny":114,"refTime":"2024-04-23T12:00:00:Z","depth":0,"parameterNumber":2,"parameterNumberName":"U-component_of_WINDS"},"data":[0.0,0.0,0.0,0.0,0.0,0.0,0.0,0.0,0.0,0.0,0.0,0.0,0.0,0.0,0.0,0.0,0.0,0.0,0.0,0.0,0.0,0.0,0.0,0.0,0.0,0.0,0.0,0.0,0.0,0.0,0.0,0.0,0.0,0.0,0.0,0.0,0.0,0.0,0.0,0.0,0.0,0.0,0.0,0.0,0.0,0.0,0.0,0.0,0.0,0.0,0.0,0.0,0.0,0.0,0.0,0.0,0.0,0.0,0.0,0.0,0.0,0.0,0.0,0.0,0.0,0.0,0.0,0.0,0.0,0.0,0.0,0.0,0.0,0.0,0.0,0.0,0.0,0.0,0.0,0.0,0.0,0.0,0.0,0.0,0.0,0.0,0.0,0.0,0.0,0.0,0.0,0.0,0.0,0.0,0.0,0.0,0.0,0.0,0.0,0.0,0.0,0.0,0.0,0.0,0.0,0.0,0.0,0.0,0.0,0.0,0.0,0.0,0.0,0.0,0.0,0.0,0.0,0.0,0.0,0.0,0.0,0.0,0.0,0.0,0.0,0.0,0.0,0.0,0.0,0.0,0.0,0.0,0.0,0.0,0.0,0.0,0.0,0.0,0.0,0.0,0.0,0.0,0.0,0.0,0.0,0.0,0.0,0.0,0.0,0.0,0.0,0.0,0.0,0.0,0.0,0.0,0.0,0.0,0.0,0.0,0.0,0.0,0.0,0.0,0.0,0.0,0.0,0.0,0.0,0.0,0.0,0.0,0.0,0.0,0.0,0.0,0.0,0.0,0.0,0.0,0.0,0.0,0.0,0.0,0.0,0.0,0.0,0.0,0.0,0.0,0.0,0.0,0.0,0.0,0.0,0.0,0.0,0.0,0.0,0.0,0.0,0.0,0.0,0.0,0.0,0.0,0.0,0.0,0.0,0.0,0.0,0.0,0.0,0.0,0.0,0.0,0.0,0.0,0.0,0.0,0.0,0.0,0.0,0.0,0.0,0.0,0.0,0.0,0.0,0.0,0.0,0.0,0.0,0.0,0.0,0.0,0.0,0.0,0.0,0.0,0.0,0.0,0.0,0.0,0.0,0.0,0.0,0.0,0.0,0.0,0.0,0.0,0.0,0.0,0.0,0.0,0.0,0.0,0.0,0.0,0.0,0.0,0.0,0.0,0.0,0.0,0.0,0.0,0.0,0.0,0.0,0.0,0.0,0.0,0.0,0.0,0.0,0.0,0.0,0.0,0.0,0.0,0.0,0.0,0.0,0.0,0.0,0.0,0.0,0.0,0.0,0.0,0.0,0.0,0.0,0.0,0.0,0.0,0.0,0.0,0.0,0.0,0.0,0.0,0.0,0.0,0.0,0.0,0.0,0.0,0.0,0.0,0.0,0.0,0.0,0.0,0.0,0.0,0.0,0.0,0.0,0.0,0.0,0.0,0.0,0.0,0.0,0.0,0.0,0.0,0.0,0.0,0.0,0.0,0.0,0.0,0.0,0.0,0.0,0.0,0.0,0.0,0.0,0.0,0.0,0.0,0.0,0.0,0.0,0.0,0.0,0.0,0.0,0.0,0.0,0.0,0.0,0.0,0.0,0.0,0.0,0.0,0.0,0.0,0.0,0.0,0.0,0.0,0.0,0.0,0.0,0.0,0.0,0.0,0.0,0.0,0.0,0.0,0.0,0.0,0.0,0.0,0.0,0.0,0.0,0.0,0.0,0.0,0.0,0.0,0.0,0.0,0.0,0.0,0.0,0.0,0.0,0.0,0.0,0.0,0.0,0.0,0.0,0.0,0.0,0.0,0.0,0.0,0.0,0.0,0.0,0.0,0.0,0.0,0.0,0.0,0.0,0.0,0.0,0.0,0.0,0.0,0.0,0.0,0.0,0.0,0.0,0.0,0.0,0.0,0.0,0.0,0.0,0.0,0.0,0.0,0.0,0.0,0.0,0.0,0.0,0.0,0.0,0.0,0.0,0.0,0.0,0.0,0.0,0.0,0.0,0.0,0.0,0.0,0.0,0.0,0.0,0.0,0.0,0.0,0.0,0.0,0.0,0.0,0.0,0.0,0.0,0.0,0.0,0.0,0.0,0.0,0.0,0.0,0.0,0.0,0.0,0.0,0.0,0.0,0.0,0.0,0.0,0.0,0.0,0.0,0.0,0.0,0.0,0.0,0.0,0.0,0.0,0.0,0.0,0.0,0.0,0.0,0.0,0.0,0.0,0.0,0.0,0.0,0.0,0.0,0.0,0.0,0.0,0.0,0.0,0.0,0.0,0.0,0.0,0.0,0.0,0.0,0.0,0.0,0.0,0.0,0.0,0.0,0.0,0.0,0.0,0.0,0.0,0.0,0.0,0.0,0.0,0.0,0.0,0.0,0.0,0.0,0.0,0.0,0.0,0.0,0.0,0.0,0.0,0.0,0.0,0.0,0.0,0.0,0.0,0.0,0.0,0.0,0.0,0.0,0.0,0.0,0.0,0.0,0.0,0.0,0.0,0.0,0.0,0.0,0.0,0.0,0.0,0.0,0.0,0.0,0.0,0.0,0.0,0.0,0.0,0.0,0.0,0.0,0.0,0.0,0.0,0.0,0.0,0.0,0.0,0.0,0.0,0.0,0.0,0.0,0.0,0.0,0.0,0.0,0.0,0.0,0.0,0.0,0.0,0.0,0.0,0.0,0.0,0.0,0.0,0.0,0.0,0.0,0.0,0.0,0.0,0.0,0.0,0.0,0.0,0.0,0.0,0.0,0.0,0.0,0.0,0.0,0.0,0.0,0.0,0.0,0.0,0.0,0.0,0.0,0.0,0.0,0.0,0.0,0.0,0.0,0.0,0.0,0.0,0.0,0.0,0.0,0.0,0.0,0.0,0.0,0.0,0.0,0.0,0.0,0.0,0.0,0.0,0.0,0.0,0.0,0.0,0.0,0.0,0.0,0.0,0.0,0.0,0.0,0.0,0.0,0.0,0.0,0.0,0.0,0.0,0.0,0.0,0.0,0.0,0.0,0.0,0.0,0.0,0.0,0.0,0.0,0.0,0.0,0.0,0.0,0.0,0.0,0.0,0.0,0.0,0.0,0.0,0.0,0.0,0.0,0.0,0.0,0.0,0.0,0.0,0.0,0.0,0.0,0.0,0.0,0.0,0.0,0.0,0.0,0.0,0.0,0.0,0.0,0.0,0.0,0.0,0.0,0.0,0.0,0.0,0.0,0.0,0.0,0.0,0.0,0.0,0.0,0.0,0.0,0.0,0.0,0.0,0.0,0.0,0.0,0.0,0.0,0.0,0.0,0.0,0.0,0.0,0.0,0.0,0.0,0.0,0.0,0.0,0.0,0.0,0.0,0.0,0.0,0.0,0.0,0.0,0.0,0.0,0.0,0.0,0.0,0.0,0.0,0.0,0.0,0.0,0.0,0.0,0.0,0.0,0.0,0.0,0.0,0.0,0.0,0.0,0.0,0.0,0.0,0.0,0.0,0.0,0.0,0.0,0.0,0.0,0.0,0.0,0.0,0.0,0.0,0.0,0.0,0.0,0.0,0.0,0.0,0.0,0.0,0.0,0.0,0.0,0.0,0.0,0.0,0.0,0.0,0.0,0.0,0.0,0.0,0.0,0.0,0.0,0.0,0.0,0.0,0.0,0.0,0.0,0.0,0.0,0.0,0.0,0.0,0.0,0.0,0.0,0.0,0.0,0.0,0.0,0.0,0.0,0.0,0.0,0.0,0.0,0.0,0.0,0.0,0.0,0.0,0.0,0.0,0.0,0.0,0.0,0.0,0.0,0.0,0.0,0.0,0.0,0.0,0.0,0.0,0.0,0.0,0.0,0.0,0.0,0.0,0.0,0.0,0.0,0.0,0.0,0.0,0.0,0.0,0.0,0.0,0.0,0.0,0.0,0.0,0.0,0.0,0.0,0.0,0.0,0.0,0.0,0.0,0.0,0.0,0.0,0.0,0.0,0.0,0.0,0.0,0.0,0.0,0.0,0.0,0.0,0.0,0.0,0.0,0.0,0.0,0.0,0.0,0.0,0.0,0.0,0.0,0.0,0.0,0.0,0.0,0.0,0.0,0.0,0.0,0.0,0.0,0.0,0.0,0.0,0.0,0.0,0.0,0.0,0.0,0.0,0.0,0.0,0.0,0.0,0.0,0.0,0.0,0.0,0.0,0.0,0.0,0.0,0.0,0.0,0.0,0.0,0.0,0.0,0.0,0.0,0.0,0.0,0.0,0.0,0.0,0.0,0.0,0.0,0.0,0.0,0.0,0.0,0.0,0.0,0.0,0.0,0.0,0.0,0.0,0.0,0.0,0.0,0.0,0.0,0.0,0.0,0.0,0.0,0.0,0.0,0.0,0.0,0.0,0.0,0.0,0.0,0.0,0.0,0.0,0.0,0.0,0.0,0.0,0.0,0.0,0.0,0.0,0.0,0.0,0.0,0.0,0.0,0.0,0.0,0.0,0.0,0.0,0.0,0.0,0.0,0.0,0.0,0.0,0.0,0.0,0.0,0.0,0.0,0.0,0.0,0.0,0.0,0.0,0.0,0.0,0.0,0.0,0.0,0.0,0.0,0.0,0.0,0.0,0.0,0.0,0.0,0.0,0.0,0.0,0.0,0.0,0.0,0.0,0.0,0.0,0.0,0.0,0.0,0.0,0.0,0.0,0.0,0.0,0.0,0.0,0.0,0.0,0.0,0.0,0.0,0.0,0.0,0.0,0.0,0.0,0.0,0.0,0.0,0.0,0.0,0.0,0.0,0.0,0.0,0.0,0.0,0.0,0.0,0.0,0.0,0.0,0.0,0.0,0.0,0.0,0.0,0.0,0.0,0.0,0.0,0.0,0.0,0.0,0.0,0.0,0.0,0.0,0.0,0.0,0.0,0.0,0.0,0.0,0.0,0.0,0.0,0.0,0.0,0.0,0.0,0.0,0.0,0.0,0.0,0.0,0.0,0.0,0.0,0.0,0.0,0.0,0.0,0.0,0.0,0.0,0.0,0.0,0.0,0.0,0.0,0.0,0.0,0.0,0.0,0.0,0.0,0.0,0.0,0.0,0.0,0.0,0.0,0.0,0.0,0.0,0.0,0.0,0.0,0.0,0.0,0.0,0.0,0.0,0.0,0.0,0.0,0.0,0.0,0.0,0.0,0.0,0.0,0.0,0.0,0.0,0.0,0.0,0.0,0.0,0.0,0.0,0.0,0.0,0.0,0.0,0.0,0.0,0.0,0.0,0.0,0.0,0.0,0.0,0.0,0.0,0.0,0.0,0.0,0.0,0.0,0.0,0.0,0.0,0.0,0.0,0.0,0.0,0.0,0.0,0.0,0.0,0.0,0.0,0.0,0.0,0.0,0.0,0.0,0.0,0.0,0.0,0.0,0.0,0.0,0.0,0.0,0.0,0.0,0.0,0.0,0.0,0.0,0.0,0.0,0.0,0.0,0.0,0.0,0.0,0.0,0.0,0.0,0.0,0.0,0.0,0.0,0.0,0.0,0.0,0.0,0.0,0.0,0.0,0.0,0.0,0.0,0.0,0.0,0.0,0.0,0.0,0.0,0.0,0.0,0.0,0.0,0.0,0.0,0.0,0.0,0.0,0.0,0.0,0.0,0.0,0.0,0.0,0.0,0.0,0.0,0.0,0.0,0.0,0.0,0.0,0.0,0.0,0.0,0.0,0.0,0.0,0.0,0.0,0.0,0.0,0.0,0.0,0.0,0.0,0.0,0.0,0.0,0.0,0.0,0.0,0.0,0.0,0.0,0.0,0.0,0.0,0.0,0.0,0.0,0.0,0.0,0.0,0.0,0.0,0.0,0.0,0.0,0.0,0.0,0.0,0.0,0.0,0.0,0.0,0.0,0.0,0.0,0.0,0.0,0.0,0.0,0.0,0.0,0.0,0.0,0.0,0.0,0.0,0.0,0.0,0.0,0.0,0.0,0.0,0.0,0.0,0.0,0.0,0.0,0.0,0.0,0.0,0.0,0.0,0.0,0.0,0.0,0.0,0.0,0.0,0.0,0.0,0.0,0.0,0.0,0.0,0.0,0.0,0.0,0.0,0.0,0.0,0.0,0.0,0.0,0.0,0.0,0.0,0.0,0.0,0.0,0.0,0.0,0.0,-5.123,0.0,0.0,0.0,0.0,0.0,0.0,0.0,0.0,0.0,0.0,0.0,0.0,0.0,0.0,0.0,0.0,0.0,0.0,0.0,0.0,0.0,0.0,0.0,0.0,-4.8616,-4.8852,-4.9427,-4.974,-5.0028,-5.0315,-5.0864,-5.1178,-5.1178,-5.1439,-5.1596,-5.1596,-5.1596,-5.1596,-5.1596,-5.1596,-5.1596,-5.1596,-5.0995,-5.0577,-5.0315,0.0,0.0,0.0,0.0,0.0,0.0,0.0,0.0,0.0,0.0,0.0,0.0,0.0,0.0,0.0,0.0,0.0,0.0,0.0,0.0,0.0,0.0,0.0,0.0,0.0,0.0,0.0,0.0,0.0,0.0,0.0,0.0,0.0,0.0,0.0,0.0,0.0,0.0,0.0,0.0,0.0,0.0,0.0,0.0,0.0,0.0,0.0,0.0,0.0,0.0,0.0,0.0,0.0,0.0,0.0,0.0,0.0,0.0,0.0,0.0,0.0,0.0,0.0,0.0,0.0,0.0,0.0,0.0,0.0,0.0,0.0,-5.1596,0.0,0.0,0.0,0.0,0.0,0.0,0.0,0.0,0.0,0.0,0.0,0.0,0.0,0.0,0.0,0.0,0.0,0.0,0.0,0.0,0.0,-4.8669,-4.9165,-4.9218,-4.9453,-5.0002,-5.0498,-5.0838,-5.0917,-5.1335,-5.1596,-5.1596,-5.1596,-5.1596,-5.1596,-5.1596,-5.1596,-5.1596,-5.1596,-5.1596,-5.1596,-5.1596,-5.1361,-5.0917,-5.042,0.0,0.0,0.0,0.0,0.0,0.0,0.0,0.0,0.0,0.0,0.0,0.0,0.0,0.0,0.0,0.0,0.0,0.0,0.0,0.0,0.0,0.0,0.0,0.0,0.0,0.0,0.0,0.0,0.0,0.0,0.0,0.0,0.0,0.0,0.0,0.0,0.0,0.0,0.0,0.0,0.0,0.0,0.0,0.0,0.0,0.0,0.0,0.0,0.0,0.0,0.0,0.0,0.0,0.0,0.0,0.0,0.0,0.0,0.0,0.0,0.0,0.0,0.0,-5.1596,-5.1596,-5.1596,-5.1596,-5.1596,-5.1596,-5.1596,-5.1596,-5.1596,0.0,0.0,0.0,0.0,0.0,0.0,0.0,0.0,0.0,0.0,0.0,0.0,0.0,0.0,0.0,0.0,0.0,0.0,0.0,0.0,-4.9688,-4.9766,-4.9793,-5.0028,-5.0629,-5.0734,-5.0995,-5.1465,-5.157,-5.1596,-5.1596,-5.1596,-5.1596,-5.1596,-5.1596,-5.1596,-5.1596,-5.1596,-5.1596,-5.1596,-5.1596,-5.157,-5.1492,-5.1413,-5.1361,-5.1361,0.0,0.0,0.0,0.0,0.0,0.0,0.0,0.0,0.0,0.0,0.0,0.0,0.0,0.0,0.0,0.0,0.0,0.0,0.0,0.0,0.0,0.0,0.0,0.0,0.0,0.0,0.0,0.0,0.0,0.0,0.0,0.0,0.0,0.0,0.0,0.0,0.0,0.0,0.0,0.0,0.0,-5.1596,-5.1596,0.0,0.0,0.0,0.0,0.0,0.0,0.0,0.0,0.0,0.0,0.0,0.0,0.0,-5.1596,-5.1596,-5.1596,-5.1596,-5.1596,-5.1596,-5.1596,-5.1596,-5.1596,-5.1596,-5.1596,-5.1596,0.0,-5.1596,-5.1596,0.0,0.0,0.0,0.0,0.0,0.0,0.0,0.0,0.0,0.0,0.0,0.0,0.0,0.0,0.0,0.0,0.0,0.0,0.0,0.0,0.0,-5.0394,-5.0629,-5.1204,-5.1256,-5.1335,-5.157,-5.1596,-5.1596,-5.1596,-5.1596,-5.1596,-5.1596,-5.1596,-5.1596,-5.1596,-5.1596,-5.1596,-5.1596,-5.1596,-5.1596,-5.1596,-5.1596,-5.1596,-5.1596,-5.1596,0.0,0.0,0.0,0.0,0.0,0.0,0.0,0.0,0.0,0.0,0.0,0.0,0.0,0.0,0.0,0.0,0.0,0.0,0.0,0.0,0.0,0.0,0.0,0.0,0.0,0.0,0.0,0.0,0.0,0.0,0.0,0.0,0.0,0.0,0.0,0.0,0.0,0.0,0.0,-5.1596,-5.1596,-5.1596,-5.1596,-5.1596,0.0,0.0,0.0,0.0,0.0,0.0,0.0,0.0,0.0,-5.2093,-5.2093,-5.2276,-5.2616,-5.2616,-5.2616,-5.2616,-5.2616,-5.2616,-5.2616,-5.2616,-5.2616,-5.2616,-5.2616,-5.2616,-5.2563,-5.1884,-5.1596,-5.1596,0.0,0.0,0.0,0.0,-5.1596,-5.1596,0.0,0.0,0.0,0.0,0.0,0.0,0.0,0.0,0.0,0.0,0.0,0.0,-5.0943,-5.0995,-5.1152,-5.157,-5.1596,-5.1596,-5.1596,-5.1596,-5.1596,-5.1596,-5.1596,-5.1596,-5.1596,-5.1596,-5.1596,-5.1596,-5.1596,-5.1596,-5.1596,-5.1596,-5.1596,-5.1596,-5.1596,-5.1596,-5.1596,-5.1596,-5.1596,-5.1596,0.0,0.0,0.0,0.0,0.0,0.0,0.0,0.0,0.0,0.0,0.0,0.0,0.0,0.0,0.0,0.0,0.0,0.0,0.0,0.0,0.0,0.0,0.0,0.0,0.0,0.0,0.0,0.0,0.0,0.0,0.0,0.0,0.0,0.0,0.0,0.0,0.0,-5.1596,-5.1596,-5.1596,-5.1596,-5.1596,0.0,0.0,0.0,0.0,0.0,0.0,-5.2067,-5.2067,-5.2276,-5.272,-5.272,-5.2955,-5.34,-5.34,-5.34,-5.34,-5.34,-5.34,-5.34,-5.34,-5.34,-5.34,-5.34,-5.34,-5.3321,-5.2433,-5.2067,-5.2067,-5.2067,-5.1962,-5.1831,-5.1831,-5.1727,-5.1596,0.0,0.0,0.0,0.0,0.0,0.0,0.0,0.0,0.0,0.0,0.0,-5.1518,-5.1544,-5.1544,-5.157,-5.1596,-5.1596,-5.1596,-5.1596,-5.1596,-5.1596,-5.1596,-5.1596,-5.1596,-5.1596,-5.1596,-5.1596,-5.1596,-5.1596,-5.1596,-5.1596,-5.1596,-5.1596,-5.1596,-5.1596,-5.1596,-5.1596,-5.1596,-5.1596,-5.1596,-5.1596,0.0,0.0,0.0,0.0,0.0,0.0,0.0,0.0,0.0,0.0,0.0,0.0,0.0,0.0,0.0,0.0,0.0,0.0,0.0,0.0,0.0,0.0,0.0,0.0,0.0,0.0,0.0,0.0,0.0,0.0,0.0,0.0,0.0,0.0,0.0,0.0,0.0,0.0,-5.1596,-5.1596,0.0,0.0,0.0,0.0,-5.2459,-5.2981,-5.3295,-5.3295,-5.3295,-5.3321,-5.3347,-5.3347,-5.3373,-5.34,-5.34,-5.34,-5.34,-5.34,-5.34,-5.34,-5.34,-5.34,-5.34,-5.34,-5.34,-5.34,-5.3321,-5.3295,-5.3295,-5.3295,-5.2955,-5.2459,-5.2459,-5.2093,-5.1596,0.0,0.0,0.0,0.0,0.0,-5.2903,-5.2842,-5.213,-5.1596,-5.1596,-5.1596,-5.1596,-5.1596,-5.1596,-5.1596,-5.1596,-5.1596,-5.1596,-5.1596,-5.1596,-5.1596,-5.1596,-5.1596,-5.1596,-5.1596,-5.1596,-5.1596,-5.1596,-5.1596,-5.1596,-5.1596,-5.1596,-5.1596,-5.1596,-5.1596,-5.1596,-5.1596,-5.1596,-5.1596,-5.1596,-5.1596,-5.1596,0.0,0.0,0.0,0.0,0.0,0.0,0.0,0.0,0.0,0.0,0.0,0.0,0.0,0.0,0.0,0.0,0.0,0.0,0.0,0.0,0.0,0.0,0.0,0.0,0.0,0.0,0.0,0.0,0.0,0.0,0.0,0.0,0.0,0.0,0.0,0.0,0.0,-5.2171,-5.2511,0.0,-5.2746,-5.2955,-5.3086,-5.3086,-5.3269,-5.34,-5.34,-5.34,-5.3556,-5.3896,-5.3922,-5.4105,-5.4497,-5.4497,-5.4497,-5.4497,-5.4497,-5.4497,-5.4497,-5.4497,-5.4497,-5.4497,-5.4497,-5.4497,-5.4497,-5.4497,-5.4053,-5.34,-5.34,-5.3269,-5.3086,-5.3086,-5.2929,-5.2746,0.0,0.0,0.0,0.0,0.0,-5.2903,-5.2842,-5.213,-5.1596,-5.1596,-5.1596,-5.1596,-5.1596,-5.1596,-5.1596,-5.1596,-5.1596,-5.1596,-5.1596,-5.1596,-5.1596,-5.1596,-5.1596,-5.1596,-5.1596,-5.1596,-5.1596,-5.1596,-5.1596,-5.1596,-5.1596,-5.1596,-5.1596,-5.1596,-5.1596,-5.1596,-5.1596,-5.1596,-5.1596,-5.1596,-5.1596,-5.1596,-5.1596,0.0,0.0,0.0,0.0,0.0,0.0,0.0,0.0,0.0,0.0,0.0,0.0,0.0,0.0,0.0,0.0,0.0,0.0,0.0,0.0,0.0,0.0,0.0,0.0,0.0,0.0,0.0,0.0,0.0,0.0,0.0,0.0,0.0,0.0,-5.2537,-5.2798,-5.2798,-5.3164,-5.34,-5.34,-5.3556,-5.3661,-5.3661,-5.3844,-5.3975,-5.3975,-5.3975,-5.4131,-5.4497,-5.4497,-5.4707,-5.5099,-5.5099,-5.5099,-5.5099,-5.5099,-5.5099,-5.5099,-5.5099,-5.5099,-5.5099,-5.5099,-5.5099,-5.5099,-5.5099,-5.4654,-5.3975,-5.3975,-5.3844,-5.3661,-5.3661,-5.3556,-5.34,0.0,0.0,0.0,0.0,0.0,-5.456,-5.2006,-5.1659,-5.1659,-5.1596,-5.1596,-5.1596,-5.1596,-5.1596,-5.1596,-5.1596,-5.1596,-5.1596,-5.1596,-5.1596,-5.1596,-5.1596,-5.1596,-5.1596,-5.1596,-5.1596,-5.1596,-5.1596,-5.1596,-5.1596,-5.1596,-5.1596,-5.1596,-5.1596,-5.1596,-5.1596,-5.1596,-5.1596,-5.1596,-5.1596,-5.1596,-5.1596,-5.1596,0.0,0.0,0.0,0.0,0.0,0.0,0.0,0.0,0.0,0.0,0.0,0.0,0.0,0.0,0.0,0.0,0.0,0.0,0.0,0.0,0.0,0.0,0.0,0.0,0.0,0.0,0.0,0.0,0.0,0.0,0.0,0.0,0.0,-5.34,-5.34,-5.3426,-5.3426,-5.3452,-5.3452,-5.3452,-5.3922,-5.4236,-5.4236,-5.4759,-5.5099,-5.5099,-5.5099,-5.5099,-5.5099,-5.5099,-5.5099,-5.5099,-5.5099,-5.5099,-5.5099,-5.5099,-5.5099,-5.5099,-5.5099,-5.5099,-5.5099,-5.5099,-5.5099,-5.5099,-5.5099,-5.5099,-5.5099,-5.5099,-5.4733,-5.4236,-5.4236,-5.3896,-5.3452,0.0,0.0,0.0,-5.456,-5.4915,-5.4856,-5.3207,-5.2964,-5.2658,-5.1721,-5.1596,-5.1596,-5.1596,-5.1596,-5.1596,-5.1596,-5.1596,-5.1596,-5.1596,-5.1596,-5.1596,-5.1596,-5.1596,-5.1596,-5.1596,-5.1596,-5.1596,-5.1596,-5.1596,-5.1596,-5.1596,-5.1596,-5.1596,-5.1596,-5.1596,-5.1596,-5.1596,-5.1596,-5.1596,-5.1596,-5.1596,-5.1596,-5.1596,0.0,0.0,0.0,0.0,0.0,0.0,0.0,0.0,0.0,0.0,0.0,0.0,0.0,0.0,0.0,0.0,0.0,0.0,0.0,0.0,0.0,0.0,0.0,0.0,0.0,0.0,0.0,0.0,0.0,0.0,0.0,-5.4628,-5.4341,-5.3504,-5.3739,-5.3975,-5.3975,-5.4367,-5.4628,-5.4628,-5.4759,-5.4863,-5.4863,-5.502,-5.5099,-5.5099,-5.5099,-5.5099,-5.5099,-5.5099,-5.5099,-5.5099,-5.5099,-5.5099,-5.5099,-5.5099,-5.5099,-5.5099,-5.5099,-5.5099,-5.5099,-5.5099,-5.5099,-5.5099,-5.5099,-5.5099,-5.5099,-5.5099,-5.4994,-5.4863,-5.4863,-5.4759,-5.4628,0.0,0.0,0.0,-5.3904,-5.4263,-5.4144,-5.2903,-5.2719,-5.2439,-5.1721,-5.1596,-5.1596,-5.1596,-5.1596,-5.1596,-5.1596,-5.1596,-5.1596,-5.1596,-5.1596,-5.1596,-5.1596,-5.1596,-5.1596,-5.1596,-5.1596,-5.1596,-5.1596,-5.1596,-5.1596,-5.1596,-5.1596,-5.1596,-5.1596,-5.1596,-5.1596,-5.1596,-5.1596,-5.1596,-5.1596,-5.1596,-5.1596,-5.1596,-5.1596,-5.1596,-5.1596,-5.1596,-5.1596,-5.1596,-5.1596,0.0,0.0,0.0,0.0,0.0,0.0,0.0,0.0,0.0,0.0,0.0,0.0,0.0,0.0,0.0,0.0,0.0,0.0,0.0,0.0,0.0,0.0,0.0,0.0,-5.5099,-5.4863,-5.421,-5.4393,-5.4576,-5.4576,-5.4889,-5.5099,-5.5099,-5.5099,-5.5099,-5.5099,-5.5099,-5.5099,-5.5099,-5.5099,-5.5203,-5.5438,-5.5438,-5.5569,-5.5804,-5.583,-5.583,-5.583,-5.583,-5.583,-5.583,-5.583,-5.583,0.0,-5.583,-5.5674,-5.5438,-5.5438,-5.5308,0.0,0.0,0.0,0.0,0.0,-5.5099,-5.5099,0.0,0.0,0.0,-5.1846,-5.278,-5.3268,-5.1846,-5.1721,-5.1783,-5.1596,-5.1596,-5.1596,-5.1596,-5.1596,-5.1596,-5.1596,-5.1596,-5.1596,-5.1596,-5.1596,-5.1596,-5.1596,-5.1596,-5.1596,-5.1596,-5.1596,-5.1596,-5.1596,-5.1596,-5.1596,-5.1596,-5.1596,-5.1596,-5.1596,-5.1596,-5.1596,-5.1596,-5.1596,-5.1596,-5.1596,-5.1596,-5.1596,-5.1596,-5.1596,-5.1596,-5.1596,-5.1596,-5.1596,-5.1596,-5.1596,0.0,0.0,0.0,0.0,0.0,0.0,0.0,0.0,0.0,0.0,0.0,0.0,0.0,0.0,0.0,0.0,0.0,0.0,0.0,0.0,0.0,0.0,0.0,0.0,-5.5099,-5.5099,-5.5099,-5.5099,-5.5099,-5.5099,-5.5099,-5.5099,-5.5099,-5.5099,-5.5125,-5.5203,-5.5203,-5.5229,-5.5282,0.0,0.0,0.0,0.0,-5.6275,-5.6798,-5.6798,-5.6798,-5.6798,-5.6798,-5.6798,-5.6798,-5.6798,-5.6798,-5.6798,-5.6798,-5.651,-5.6013,-5.6013,-5.5726,-5.5282,-5.5151,-5.5099,-5.5099,-5.5099,-5.5099,-5.5099,0.0,0.0,-5.4323,-5.2006,-5.351,-5.4263,-5.1944,-5.25,-5.278,-5.1721,-5.1596,-5.1596,-5.1596,-5.1596,-5.1596,-5.1596,-5.1596,-5.1596,-5.1596,-5.1596,-5.1596,-5.1596,-5.1596,-5.1596,-5.1596,-5.1596,-5.1596,-5.1596,-5.1596,-5.1596,-5.1596,-5.1596,-5.1596,-5.1596,-5.1596,-5.1596,-5.1596,-5.1596,-5.1596,-5.1596,-5.1596,-5.1596,-5.1596,-5.1596,-5.1596,-5.1596,-5.1596,-5.1596,-5.1596,-5.1596,-5.1596,-5.1596,-5.1596,-5.1596,0.0,0.0,0.0,0.0,0.0,0.0,0.0,0.0,0.0,0.0,0.0,0.0,0.0,0.0,0.0,0.0,0.0,0.0,0.0,-5.5099,-5.5099,-5.5099,-5.5099,-5.5099,-5.5099,-5.5099,-5.5099,-5.5099,-5.5099,-5.5099,-5.5282,-5.5726,-5.5752,-5.5961,-5.6458,-5.6484,-5.6536,-5.6641,-5.6641,-5.6693,-5.6798,-5.6798,-5.6798,-5.6798,0.0,0.0,-5.6798,-5.6798,-5.6798,-5.6798,-5.6798,-5.6745,-5.6641,-5.6641,-5.6562,-5.6379,-5.5465,-5.5099,-5.5099,-5.5099,-5.5099,-5.5099,0.0,-5.2596,-5.3086,-5.1846,-5.2658,-5.3086,-5.1783,-5.213,-5.2315,-5.1659,-5.1596,-5.1596,-5.1596,-5.1596,-5.1596,-5.1596,-5.1596,-5.1596,-5.1596,-5.1596,-5.1596,-5.1596,-5.1596,-5.1596,-5.1596,-5.1596,-5.1596,-5.1596,-5.1596,-5.1596,-5.1596,-5.1596,-5.1596,-5.1596,-5.1596,-5.1596,-5.1596,-5.1596,-5.1596,-5.1596,-5.1596,-5.1596,-5.1596,-5.1596,-5.1596,-5.1596,-5.1596,-5.1596,-5.1596,-5.1596,-5.1596,-5.1596,-5.1596,-5.1596,-5.1596,0.0,0.0,0.0,0.0,0.0,0.0,0.0,0.0,0.0,0.0,0.0,0.0,0.0,0.0,-5.5099,-5.5099,0.0,-5.5099,-5.5099,-5.5099,-5.5099,-5.5099,-5.5099,-5.5099,-5.5099,-5.5099,-5.5203,-5.5465,-5.5517,-5.5752,-5.6327,-5.6353,-5.6484,-5.6798,-5.6798,-5.6928,-5.7216,-5.7503,-5.7791,-5.8078,-5.8366,-5.8523,-5.8523,-5.8523,-5.8523,-5.8497,-5.8209,-5.8078,-5.8078,-5.7791,-5.7503,-5.7216,-5.6928,-5.6798,-5.6745,-5.617,-5.5778,-5.5465,-5.5203,-5.5099,-5.5099,0.0,0.0,-5.1534,-5.1596,-5.1596,-5.1596,-5.1596,-5.1596,-5.1596,-5.1596,-5.1596,-5.1596,-5.1596,-5.1596,-5.1596,-5.1596,-5.1596,-5.1596,-5.1596,-5.1596,-5.1596,-5.1596,-5.1596,-5.1596,-5.1596,-5.1596,-5.1596,-5.1596,-5.1596,-5.1596,-5.1596,-5.1596,-5.1596,-5.1596,-5.1596,-5.1596,-5.1596,-5.1596,-5.1596,-5.1596,-5.1596,-5.1596,-5.1596,-5.1596,-5.1596,-5.1596,-5.1596,-5.1596,-5.1596,-5.1596,-5.1596,-5.1596,-5.1596,-5.1596,-5.1622,-5.1727,-5.1779,0.0,0.0,0.0,0.0,0.0,0.0,0.0,0.0,-5.5099,-5.5099,-5.5099,-5.5099,-5.5099,-5.5099,-5.5099,-5.5099,-5.5099,-5.5099,-5.5151,-5.5255,-5.5255,-5.5308,-5.5412,-5.5334,-5.5438,-5.5857,-5.6013,-5.6327,-5.6928,-5.6981,-5.7059,-5.7294,-5.7294,-5.7582,-5.8131,-5.8601,-5.9072,-5.9516,-5.9986,-6.0222,-6.0222,-6.0222,-6.0222,-6.0195,-5.9751,-5.9542,-5.949,-5.8915,-5.8418,-5.8018,-5.7373,-5.7137,-5.7137,-5.7033,-5.6667,-5.617,-5.5621,-5.536,-5.5255,0.0,0.0,0.0,-5.1534,-5.1596,-5.1596,-5.1596,-5.1596,-5.1596,-5.1596,-5.1596,-5.1596,-5.1596,-5.1596,-5.1596,-5.1596,-5.1596,-5.1596,-5.1596,-5.1596,-5.1596,-5.1596,-5.1596,-5.1596,-5.1596,-5.1596,-5.1596,-5.1596,-5.1596,-5.1596,-5.1596,-5.1596,-5.1596,-5.1596,-5.1596,-5.1596,-5.1596,-5.1596,-5.1596,-5.1596,-5.1596,-5.1596,-5.1596,-5.1596,-5.1596,-5.1596,-5.1596,-5.1596,-5.1596,-5.1596,-5.1596,-5.1596,-5.1596,-5.1596,-5.1701,-5.2223,-5.2406,-5.2642,-5.3713,-5.4445,-5.4942,-5.5072,-5.5099,-5.5099,0.0,-5.5099,-5.5099,-5.5099,-5.5099,-5.5099,-5.5099,-5.5099,-5.5099,-5.5099,-5.5099,-5.5282,-5.5752,-5.583,-5.6013,-5.6562,-5.6144,-5.583,-5.5909,-5.6379,-5.6954,-5.7529,-5.7625,-5.8,-5.9019,-5.9072,-5.9333,-5.9908,-5.9986,-6.0065,-6.0117,-6.0195,-6.0222,-6.0222,-6.0222,-6.0222,-6.0222,-6.0143,-6.0117,-6.0091,-5.9516,-5.9228,-5.9124,-5.8549,-5.8314,-5.8261,-5.7765,-5.7599,-5.7468,-5.6824,-5.6275,-5.583,0.0,0.0,0.0,-5.1596,-5.1596,-5.1596,-5.1596,-5.1596,-5.1596,-5.1596,-5.1596,-5.1596,-5.1596,-5.1596,-5.1596,-5.1596,-5.1596,-5.1596,-5.1596,-5.1596,-5.1596,-5.1596,-5.1596,-5.1596,-5.1596,-5.1596,-5.1596,-5.1596,-5.1596,-5.1596,-5.1596,-5.1596,-5.1596,-5.1596,-5.1596,-5.1596,-5.1596,-5.1596,-5.1596,-5.1596,-5.1596,-5.1596,-5.1596,-5.1596,-5.1596,-5.1596,-5.1596,-5.1596,0.0,-5.1596,-5.1596,-5.1596,-5.1596,-5.1596,-5.1727,-5.2328,-5.2485,-5.2746,-5.3896,-5.4654,-5.5099,-5.5099,-5.5099,-5.5099,-5.5099,-5.5099,-5.5099,-5.5099,-5.5099,-5.5099,-5.5099,-5.536,-5.5569,-5.5569,-5.5857,-5.617,-5.6405,-5.6432,-5.6536,-5.6771,-5.6876,-5.6928,-5.6928,-5.7163,-5.7529,-5.8104,-5.847,-5.8934,-5.9333,-5.9673,-5.996,-6.0222,-6.0561,-6.0744,-6.0744,-6.1084,-6.1241,-6.1241,-6.1241,-6.1241,-6.1241,-6.0901,-6.0561,-6.0195,-5.996,-5.9856,-5.9803,-5.9255,-5.8993,-5.8941,-5.8392,-5.8157,-5.8052,-5.7137,-5.6641,-5.6432,0.0,0.0,0.0,-5.1596,-5.1596,-5.1596,-5.1596,-5.1596,-5.1596,-5.1596,-5.1596,-5.1596,-5.1596,-5.1596,-5.1596,-5.1596,-5.1596,-5.1596,-5.1596,-5.1596,-5.1596,-5.1596,-5.1596,-5.1596,-5.1596,-5.1596,-5.1596,-5.1596,-5.1596,-5.1596,-5.1596,-5.1596,-5.1596,-5.1596,-5.1596,-5.1596,-5.1596,-5.1596,-5.1596,-5.1596,-5.1596,-5.1596,-5.1596,-5.1596,-5.1596,-5.1596,-5.1596,-5.1596,-5.1596,-5.1596,-5.1596,-5.1596,-5.1596,-5.1701,-5.1962,-5.2563,-5.2955,-5.34,-5.4236,-5.4759,-5.5099,-5.5099,-5.5099,-5.5099,-5.5099,-5.5099,-5.5099,-5.5099,-5.5099,-5.5151,-5.5308,-5.5647,-5.5961,-5.6118,-5.651,-5.6876,-5.7007,-5.7033,-5.7111,-5.7268,-5.7634,-5.7948,-5.8175,-5.8201,-5.8314,-5.8706,-5.9281,-5.9673,-5.983,-6.0248,-6.0535,-6.0692,-6.1136,-6.1346,-6.1346,-6.1764,-6.1973,-6.1973,-6.1973,-6.1973,-6.1973,-6.1555,-6.111,-6.0692,-6.0535,-6.0483,-6.0431,-5.983,-5.9516,-5.9333,-5.8915,-5.8653,-5.8418,-5.7582,-5.719,-5.7033,0.0,0.0,0.0,0.0,-5.1596,-5.1596,-5.1596,-5.1596,-5.1596,-5.1596,-5.1596,-5.1596,-5.1596,-5.1596,-5.1596,-5.1596,-5.1596,-5.1596,-5.1596,-5.1596,-5.1596,-5.1596,-5.1596,-5.1596,-5.1596,-5.1596,-5.1596,-5.1596,-5.1596,-5.1596,-5.1596,-5.1596,-5.1596,-5.1596,-5.1596,-5.1596,-5.1596,-5.1596,-5.1596,-5.1596,-5.1596,-5.1596,-5.1596,-5.1596,-5.1596,-5.1596,-5.1596,-5.1596,-5.1596,-5.1596,-5.1596,-5.1596,-5.1596,-5.1988,-5.2589,-5.3191,-5.4158,-5.502,-5.5072,-5.5099,-5.5099,-5.5099,-5.5099,-5.5099,-5.5099,-5.5099,-5.5099,-5.5099,-5.5099,-5.5255,-5.5778,-5.5909,-5.6092,-5.6693,-5.6798,-5.7007,-5.7625,-5.7704,-5.7843,-5.8392,-5.847,-5.8706,-5.9255,-5.9379,-5.9405,-5.9333,-5.9856,-6.0457,-6.1032,-6.1084,-6.1346,-6.1894,-6.1921,-6.1947,-6.1947,-6.1973,-6.1973,-6.1973,-6.1973,-6.1973,-6.1973,-6.1947,-6.1921,-6.1894,-6.1346,-6.1084,-6.1058,-6.0431,-5.9856,-5.9359,-5.9333,-5.8993,-5.8523,-5.847,-5.8104,-5.7704,0.0,0.0,0.0,0.0,0.0,-5.1596,-5.1596,-5.1596,-5.1596,-5.1596,-5.1596,0.0,0.0,0.0,0.0,0.0,-5.1596,-5.1596,-5.1596,-5.1596,-5.1596,-5.1596,-5.1596,-5.1596,-5.1596,-5.1596,-5.1596,-5.1596,-5.1596,-5.1596,-5.1596,-5.1596,-5.1596,-5.1596,-5.1596,-5.1596,-5.1596,-5.1596,-5.1596,-5.1596,-5.1596,-5.1596,-5.1596,-5.1596,-5.1596,-5.1596,0.0,-5.1596,-5.1596,-5.1596,-5.1596,-5.1596,-5.1596,-5.2014,-5.2694,-5.3635,-5.4497,-5.5099,-5.5099,-5.5099,-5.5099,-5.5099,-5.5099,-5.5099,-5.5099,-5.5099,-5.5099,-5.5099,-5.5386,-5.57,-5.5883,-5.6536,-5.7137,-5.7346,-5.7686,-5.8,-5.8209,-5.8235,-5.8314,-5.8497,-5.8836,-5.915,-5.9333,-5.9359,-5.9516,-5.9908,-6.0483,-6.0901,-6.111,-6.1476,-6.1764,-6.1973,-6.1973,-6.1973,-6.1973,-6.1973,-6.1973,-6.1973,-6.1973,-6.1973,-6.1973,-6.1973,-6.1973,-6.1973,-6.1764,-6.1685,-6.1633,-6.1058,-6.0692,-6.0483,-6.0091,-5.9594,-5.9072,-5.9072,-5.8706,-5.8235,0.0,0.0,0.0,0.0,0.0,0.0,0.0,0.0,0.0,0.0,0.0,0.0,0.0,0.0,0.0,0.0,0.0,-5.1596,-5.1596,-5.1596,-5.1596,-5.1596,-5.1596,-5.1596,-5.1596,-5.1596,-5.1596,-5.1596,-5.1596,-5.1596,-5.1596,-5.1596,-5.1596,-5.1596,-5.1596,-5.1596,-5.1596,-5.1596,-5.1596,-5.1596,-5.1596,-5.1596,-5.1596,-5.1596,-5.1596,0.0,-5.1596,-5.1596,-5.1596,-5.1596,-5.1596,-5.1622,-5.1858,-5.2459,-5.3295,-5.4236,-5.4811,-5.5099,-5.5099,-5.5099,-5.5099,-5.5099,-5.5099,-5.5099,-5.5099,-5.5099,-5.5151,-5.536,-5.5674,-5.604,-5.6458,-5.7163,-5.7739,-5.7921,-5.8287,-5.8523,-5.8523,-5.8706,-5.881,-5.881,-5.9333,-5.9751,-5.996,-5.9986,-6.0143,-6.0509,-6.1084,-6.1424,-6.1424,-6.1764,-6.1973,-6.1973,-6.1973,-6.1973,-6.1973,-6.1973,-6.1973,-6.1973,-6.1973,-6.1973,-6.1973,-6.1973,-6.1973,-6.1973,-6.1973,-6.1973,-6.1947,-6.1581,-6.1293,-6.1084,-6.0692,-6.0195,-5.9647,-5.9437,-5.9124,-5.8784,0.0,0.0,0.0,0.0,0.0,0.0,0.0,0.0,0.0,0.0,0.0,0.0,0.0,0.0,0.0,0.0,0.0,0.0,-5.1596,-5.1596,-5.1596,-5.1596,-5.1596,-5.1596,-5.1596,-5.1596,-5.1596,-5.1596,-5.1596,-5.1596,-5.1596,-5.1596,-5.1596,-5.1596,-5.1596,-5.1596,-5.1596,-5.1596,-5.1596,-5.1596,-5.1596,-5.1596,-5.1596,-5.1596,-5.1596,-5.1596,-5.1596,-5.1596,-5.1596,-5.1596,-5.1622,-5.1753,-5.2354,-5.3295,-5.4314,-5.4916,-5.5099,-5.5099,-5.5099,-5.5099,-5.5099,-5.5099,-5.5099,-5.5099,-5.5099,-5.5125,-5.5282,-5.5804,-5.5961,-5.6327,-5.7451,-5.7756,-5.7869,-5.8418,-5.8523,-5.8523,-5.8523,-5.8993,-5.9359,-5.9359,-5.9908,-6.0483,-6.1058,-6.1136,-6.1163,-6.1163,0.0,-6.1973,-6.1973,-6.1973,-6.1973,-6.2025,-6.2025,-6.2025,-6.2051,-6.2051,-6.2051,-6.2051,-6.2025,-6.2025,-6.2025,-6.1973,-6.1973,-6.1973,-6.1973,-6.1973,-6.1973,-6.1973,-6.1659,-6.1163,-6.1163,-6.0797,-6.0195,-5.9647,-5.9411,-5.9281,0.0,0.0,0.0,0.0,0.0,0.0,0.0,0.0,0.0,0.0,0.0,0.0,0.0,0.0,0.0,0.0,0.0,0.0,-5.1596,-5.1596,-5.1596,-5.1596,-5.1596,-5.1596,-5.1596,-5.1596,-5.1596,-5.1596,-5.1596,-5.1596,-5.1596,-5.1596,-5.1596,-5.1596,-5.1596,-5.1596,-5.1596,-5.1596,-5.1596,-5.1596,-5.1596,-5.1596,-5.1596,-5.1596,-5.1596,-5.1596,-5.1596,-5.1596,-5.1596,-5.1596,-5.1884,-5.238,-5.2981,-5.3635,-5.4314,-5.4916,-5.5099,-5.5099,-5.5099,-5.5099,-5.5099,-5.5099,-5.5099,-5.5099,-5.5099,-5.5412,-5.5726,-5.5883,-5.6615,-5.7364,-5.7678,-5.8,-5.834,-5.8497,-5.8523,-5.8523,-5.8523,-5.8993,-5.9359,-5.9359,-6.0274,-6.0953,-6.111,-6.1502,-6.1764,0.0,-6.1894,-6.1973,-6.1973,-6.1973,-6.2156,-6.26,-6.26,-6.2809,-6.3227,-6.3254,-6.3254,-6.3227,-6.2809,-6.26,-6.26,-6.2156,-6.1973,-6.1973,-6.1973,-6.1973,-6.1973,-6.1973,-6.1894,-6.1764,-6.1764,-6.1398,-6.0875,-6.0718,-6.0117,-5.9333,0.0,0.0,0.0,0.0,0.0,0.0,0.0,0.0,0.0,0.0,0.0,0.0,0.0,0.0,0.0,0.0,0.0,0.0,0.0,-5.1596,-5.1596,-5.1596,-5.1596,-5.1596,-5.1596,-5.1596,-5.1596,-5.1596,-5.1596,-5.1596,-5.1596,-5.1596,-5.1596,-5.1596,-5.1596,-5.1596,-5.1596,-5.1596,-5.1596,0.0,0.0,-5.1596,-5.1596,-5.1596,-5.1596,-5.1596,-5.1596,-5.1596,-5.1596,-5.1596,-5.2171,-5.2955,-5.3295,-5.3949,-5.4654,-5.4994,-5.5099,-5.5099,-5.5099,-5.5099,-5.5099,-5.5099,-5.5099,-5.5177,-5.5412,-5.57,-5.6066,-5.6562,-5.719,-5.7739,-5.7974,-5.8314,-5.8523,-5.8523,-5.8523,-5.8601,-5.8862,-5.9385,-5.983,-6.0091,-6.0927,-6.1476,-6.1476,-6.179,-6.1973,-6.1973,-6.1973,-6.2077,-6.2339,-6.2339,-6.26,-6.3175,-6.3201,-6.3358,-6.3672,-6.3672,-6.3672,-6.3672,-6.3358,-6.3201,-6.3175,-6.26,-6.2339,-6.2339,0.0,-6.1973,-6.1973,-6.1973,-6.1973,-6.1973,-6.1973,-6.1764,-6.145,-6.1215,-6.0692,-6.0091,0.0,0.0,0.0,0.0,0.0,0.0,0.0,0.0,0.0,0.0,-5.1596,-5.1596,0.0,0.0,0.0,0.0,0.0,0.0,0.0,0.0,-5.1596,-5.1596,-5.1596,-5.1596,-5.1596,-5.1596,-5.1596,-5.1596,-5.1596,-5.1596,-5.1596,-5.1596,-5.1596,-5.1596,-5.1596,-5.1596,-5.1596,-5.1596,-5.1596,-5.1596,-5.1596,-5.1596,-5.1596,0.0,-5.1596,-5.1596,-5.1596,-5.1596,-5.1596,-5.1596,-5.2406,-5.34,-5.34,-5.4184,-5.5099,-5.5099,-5.5099,-5.5099,-5.5099,-5.5099,-5.5099,-5.5099,-5.5099,-5.5255,-5.5778,-5.5961,-5.6327,-5.7425,-5.7782,-5.7921,-5.8418,-5.8523,-5.8523,-5.8523,-5.8523,-5.8706,-5.9281,-5.9856,-6.0431,-6.1058,-6.1633,-6.1973,-6.1973,-6.1973,-6.1999,-6.2077,-6.2077,-6.2313,-6.2809,-6.2914,-6.3201,-6.3776,-6.3855,-6.3907,-6.3907,-6.3907,-6.3907,-6.3907,-6.3829,-6.3803,-6.3776,-6.3201,-6.294,-6.2914,0.0,0.0,-6.2077,-6.1999,-6.1973,-6.1973,-6.1973,-6.1973,-6.1921,-6.1424,-6.1189,-6.1058,0.0,0.0,0.0,0.0,0.0,0.0,0.0,0.0,0.0,0.0,-5.1596,-5.1596,0.0,0.0,0.0,0.0,0.0,0.0,0.0,0.0,0.0,-5.1596,-5.1596,-5.1596,-5.1596,-5.1596,-5.1596,-5.1596,-5.1596,-5.1596,-5.1596,-5.1596,-5.1596,-5.1596,-5.1596,-5.1596,-5.1596,-5.1596,-5.1596,-5.1596,-5.1596,-5.1596,-5.1596,-5.1596,-5.1596,0.0,-5.1596,-5.1596,-5.1596,-5.1596,-5.2406,-5.34,-5.34,-5.4184,-5.5099,-5.5099,-5.5099,-5.5099,-5.5099,-5.5099,-5.5099,-5.5099,-5.5099,-5.5255,-5.5778,-5.6301,-5.685,-5.7529,-5.8026,-5.8392,-5.8497,-5.8523,-5.8523,-5.8523,-5.8523,-5.8706,-5.9281,-5.9856,-6.0431,-6.1058,-6.1633,-6.1973,-6.1973,-6.1973,-6.2156,-6.2652,-6.2679,-6.2731,-6.2809,-6.328,-6.3803,-6.4378,-6.4848,-6.5083,-6.5083,-6.5083,-6.5083,-6.5083,-6.4613,-6.4378,-6.4351,-6.3776,-6.3515,-6.3489,-6.2914,0.0,-6.2652,-6.2156,-6.1973,-6.1973,-6.1973,-6.1973,-6.1973,-6.1868,-6.1529,-6.111,0.0,0.0,0.0,0.0,0.0,0.0,0.0,-5.1596,-5.1596,-5.1596,-5.1596,-5.1596,-5.1596,-5.1596,-5.1596,0.0,0.0,0.0,0.0,0.0,0.0,-5.1596,-5.1596,-5.1596,-5.1596,-5.1596,-5.1596,-5.1596,0.0,-5.1596,-5.1596,-5.1596,-5.1596,-5.1596,-5.1596,-5.1596,-5.1596,-5.1596,-5.1596,-5.1596,-5.1596,-5.1596,-5.1596,-5.1596,-5.1596,0.0,-5.1596,-5.1596,-5.1596,-5.1596,-5.2406,-5.34,-5.34,-5.4184,-5.5099,-5.5099,-5.5099,-5.5099,-5.5099,-5.5099,-5.5099,-5.5099,-5.5099,-5.5334,-5.617,-5.6588,-5.7059,-5.7921,-5.8314,-5.8523,-5.8523,-5.8523,-5.8523,-5.8523,-5.8758,-5.915,-5.9725,-6.0326,-6.0901,-6.1502,-6.179,-6.1973,-6.1973,-6.2234,-6.2522,-6.2809,-6.3384,-6.3724,-6.3724,-6.4247,-6.4691,-6.4979,-6.524,-6.5371,-6.5371,-6.5371,-6.5371,-6.5371,-6.5109,-6.4979,-6.4953,-6.4378,-6.4116,-6.409,-6.3515,0.0,-6.2809,-6.2522,-6.2234,-6.1973,-6.1973,-6.1973,-6.1973,-6.1973,-6.179,-6.1555,0.0,0.0,0.0,0.0,0.0,0.0,-5.1596,-5.1596,-5.1596,-5.1596,-5.1596,-5.1596,-5.1596,-5.1596,-5.1596,0.0,0.0,0.0,0.0,0.0,0.0,0.0,-5.1596,-5.1596,-5.1596,0.0,0.0,-5.1596,-5.1596,0.0,0.0,0.0,0.0,0.0,-5.1596,-5.1596,-5.1596,-5.1596,-5.1596,0.0,0.0,-5.1596,-5.1596,0.0,0.0,0.0,0.0,-5.1596,-5.1596,-5.1596,-5.2406,-5.34,-5.34,-5.4184,-5.5099,-5.5099,-5.5099,-5.5099,-5.5099,-5.5099,-5.5099,-5.5099,-5.5099,-5.5412,-5.6536,-5.6798,-5.7137,-5.8287,-5.8523,-5.8523,-5.8523,-5.8523,-5.8549,-5.8679,-5.9072,-5.9594,-6.0326,-6.0823,-6.1319,-6.1894,-6.1973,-6.2025,-6.213,-6.2548,-6.2914,-6.3175,-6.4142,-6.4717,-6.4717,-6.5136,-6.5371,-6.5371,-6.5371,-6.5371,-6.5371,-6.5371,-6.5371,-6.5371,-6.5371,-6.5371,-6.5371,-6.4926,-6.4717,-6.4691,-6.4116,0.0,0.0,-6.2862,-6.2496,-6.1973,-6.1973,-6.1973,-6.1973,-6.1973,-6.1973,-6.1973,0.0,0.0,0.0,0.0,0.0,0.0,-5.1596,-5.1596,-5.1596,-5.1596,-5.1596,-5.1596,-5.1596,-5.1596,-5.1596,0.0,0.0,0.0,0.0,0.0,0.0,0.0,0.0,0.0,0.0,0.0,0.0,-5.1596,-5.1596,0.0,0.0,0.0,0.0,0.0,0.0,-5.1596,-5.1596,-5.1596,0.0,0.0,0.0,0.0,0.0,0.0,0.0,0.0,0.0,-5.1596,-5.1596,-5.1596,-5.2406,-5.34,-5.34,-5.4184,-5.5099,-5.5099,-5.5099,-5.5099,-5.5099,-5.5099,-5.5099,-5.5099,-5.5099,-5.5412,-5.6536,-5.6798,-5.7137,-5.8287,-5.8523,-5.8523,-5.8523,-5.8523,-5.8679,-5.9202,-5.9333,-5.9751,-6.0875,-6.1084,-6.1319,-6.1894,-6.1973,-6.2182,-6.2705,-6.2783,-6.3254,-6.4299,-6.4953,0.0,-6.5318,-6.5345,-6.5371,-6.5371,-6.5371,-6.5371,-6.5371,-6.5371,-6.5371,-6.5371,-6.5371,-6.5371,-6.5371,-6.5318,-6.5318,-6.5266,-6.4691,0.0,0.0,-6.3045,-6.2496,-6.1973,-6.1973,-6.1973,-6.1973,-6.1973,-6.1973,-6.1973,0.0,0.0,0.0,0.0,0.0,0.0,-5.1596,-5.1596,-5.1596,-5.1596,-5.1596,-5.1596,-5.1596,-5.1596,-5.1596,-5.1596,-5.1596,0.0,0.0,0.0,0.0,0.0,0.0,0.0,0.0,0.0,-5.1596,-5.1596,-5.1596,0.0,0.0,0.0,0.0,0.0,0.0,-5.1596,-5.1596,-5.1596,0.0,0.0,0.0,0.0,0.0,0.0,0.0,0.0,0.0,0.0,-5.1596,-5.1596,-5.2406,-5.34,-5.34,-5.4184,-5.5099,-5.5099,-5.5099,-5.5099,-5.5099,-5.5099,-5.5099,-5.5099,-5.5334,-5.5804,-5.6615,-5.7085,-5.7556,-5.834,-5.8523,-5.8523,-5.8523,-5.8523,-5.8706,-5.9281,-5.9647,-6.0169,-6.1006,-6.1424,-6.1711,-6.1947,-6.1973,-6.2182,-6.2757,-6.3149,-6.3803,-6.4953,-6.524,0.0,-6.5371,-6.5371,-6.5371,-6.5371,-6.5371,-6.5371,-6.5371,-6.5371,-6.5371,-6.5371,-6.5371,-6.5371,-6.5371,-6.5371,-6.5371,-6.5371,-6.5136,0.0,0.0,-6.3567,-6.2992,-6.2443,-6.2104,-6.1973,-6.1973,-6.1973,-6.1973,-6.1973,0.0,0.0,0.0,0.0,0.0,-5.1596,-5.1596,-5.1596,-5.1596,-5.1596,-5.1596,-5.1596,-5.1596,-5.1596,-5.1596,-5.1596,-5.1596,0.0,0.0,0.0,0.0,0.0,0.0,0.0,0.0,0.0,-5.1596,-5.1596,-5.1596,-5.1596,0.0,0.0,-5.1596,-5.1596,0.0,0.0,0.0,0.0,0.0,0.0,0.0,0.0,0.0,0.0,0.0,0.0,0.0,0.0,0.0,0.0,0.0,-5.3426,-5.3583,-5.4314,-5.5099,-5.5099,-5.5099,-5.5099,-5.5099,-5.5099,-5.5099,-5.5099,-5.5517,-5.6066,-5.6667,-5.7242,-5.7817,-5.8392,-5.8523,-5.8523,-5.8523,-5.8523,-5.8706,-5.9281,-5.9856,-6.0431,-6.1032,-6.1607,-6.1973,-6.1973,-6.213,-6.2443,-6.3018,-6.375,-6.4508,-6.5318,-6.5371,0.0,-6.5371,-6.5371,-6.5371,-6.5371,-6.5371,-6.5371,-6.5371,-6.5371,-6.5371,-6.5371,-6.5371,-6.5371,-6.5371,-6.5371,-6.5371,-6.5371,0.0,0.0,0.0,-6.409,-6.3489,-6.2783,-6.2391,-6.213,-6.1973,-6.1973,-6.1973,-6.1973,0.0,0.0,0.0,0.0,0.0,-5.1596,-5.1596,-5.1596,-5.1596,-5.1596,-5.1596,-5.1596,-5.1596,-5.1596,-5.1596,-5.1596,-5.1596,0.0,0.0,0.0,0.0,0.0,0.0,0.0,0.0,0.0,-5.1596,-5.1596,-5.1596,-5.1596,-5.1596,-5.1596,-5.1596,-5.1596,0.0,0.0,0.0,0.0,0.0,0.0,0.0,0.0,-5.1596,0.0,0.0,0.0,0.0,0.0,0.0,0.0,0.0,0.0,0.0,-5.4602,-5.5099,-5.5099,-5.5099,-5.5099,-5.5099,-5.5099,-5.5099,-5.5099,-5.5517,-5.6066,-5.6667,-5.7242,-5.7817,-5.8392,-5.8523,-5.8523,-5.8523,-5.8523,-5.8706,-5.9281,-5.9856,-6.0431,-6.1032,-6.1607,-6.1973,-6.1973,-6.2469,-6.3045,-6.362,-6.4691,-6.5371,-6.5371,-6.5371,0.0,-6.5371,-6.5371,-6.5371,-6.5371,-6.5371,-6.5371,-6.5371,-6.5371,-6.5371,-6.5371,-6.5371,-6.5371,-6.5371,-6.5371,-6.5371,0.0,0.0,0.0,0.0,-6.4534,-6.3855,-6.2835,-6.2809,-6.2469,-6.1973,-6.1973,-6.1973,-6.1973,0.0,0.0,0.0,0.0,0.0,0.0,-5.1596,-5.1596,-5.1596,-5.1596,-5.1596,-5.1596,-5.1596,-5.1596,-5.1596,-5.1596,-5.1596,0.0,0.0,0.0,0.0,0.0,0.0,0.0,0.0,-5.1596,-5.1596,-5.1596,-5.1596,-5.1596,-5.1596,-5.1596,-5.1596,-5.1596,-5.1596,-5.1596,0.0,-5.1596,0.0,0.0,0.0,-5.1596,-5.1596,0.0,0.0,0.0,0.0,0.0,0.0,0.0,0.0,0.0,0.0,0.0,0.0,-5.5099,-5.5099,-5.5099,-5.5099,-5.5099,-5.5099,-5.5099,-5.583,-5.6588,-5.6771,-5.7556,-5.8287,-5.847,-5.8523,-5.8523,-5.8523,-5.8523,-5.8706,-5.9281,-5.9856,-6.0431,-6.1032,-6.1607,-6.213,-6.2496,-6.341,-6.4064,-6.4247,0.0,-6.5371,-6.5371,0.0,0.0,-6.5371,-6.5371,-6.5371,-6.5371,-6.5371,-6.5371,-6.5371,-6.5371,-6.5371,-6.5371,-6.5371,-6.5371,-6.5371,-6.5371,0.0,0.0,0.0,0.0,0.0,-6.4691,-6.409,-6.3358,-6.2966,-6.2469,-6.1973,-6.1973,-6.1973,-6.1973,0.0,0.0,0.0,0.0,0.0,0.0,-5.1596,-5.1596,-5.1596,-5.1596,-5.1596,-5.1596,-5.1596,-5.1596,-5.1596,-5.1596,-5.1596,0.0,0.0,0.0,0.0,0.0,0.0,0.0,-5.1596,-5.1596,-5.1596,-5.1596,-5.1596,-5.1596,-5.1596,-5.1596,-5.1596,-5.1596,-5.1596,-5.1596,0.0,-5.1596,0.0,0.0,-5.1596,-5.1596,-5.1596,0.0,0.0,0.0,0.0,0.0,0.0,0.0,0.0,0.0,0.0,0.0,0.0,0.0,-5.5099,-5.5099,-5.5099,-5.5099,-5.5099,-5.5099,-5.5961,-5.6798,-5.6798,-5.7686,-5.8523,-5.8523,-5.8523,-5.8523,-5.8523,-5.8523,-5.8627,-5.8993,-5.9699,-6.0352,-6.0718,-6.1476,-6.226,-6.3045,-6.3959,-6.4613,-6.4822,-6.5188,-6.5371,-6.5371,0.0,0.0,-6.5371,-6.5371,-6.5371,-6.5371,-6.5371,-6.5371,-6.5371,-6.5371,-6.5371,-6.5371,-6.5371,-6.5371,-6.5371,-6.5371,0.0,0.0,0.0,0.0,0.0,-6.5005,-6.4378,-6.3646,-6.328,-6.2652,-6.1973,-6.1973,-6.1973,-6.1973,0.0,0.0,0.0,0.0,0.0,0.0,0.0,-5.1596,-5.1596,-5.1596,-5.1596,-5.1596,-5.1596,-5.1596,-5.1596,-5.1596,-5.1596,0.0,0.0,0.0,0.0,0.0,0.0,0.0,-5.1596,-5.1596,-5.1596,-5.1596,-5.1596,-5.1596,-5.1596,-5.1596,-5.1596,-5.1596,-5.1596,-5.1596,-5.1596,-5.1596,-5.1596,-5.1596,-5.1596,-5.1596,0.0,0.0,0.0,0.0,0.0,0.0,0.0,0.0,0.0,0.0,0.0,0.0,0.0,0.0,0.0,0.0,0.0,-5.5099,-5.5099,-5.5099,-5.5961,-5.6798,-5.6798,-5.7686,0.0,-5.8523,-5.8523,-5.8523,-5.8523,-5.8523,-5.8523,-5.8523,-5.9464,-6.0222,-6.0222,-6.1293,-6.2496,-6.3541,-6.4221,-6.4796,-6.5345,-6.5371,-6.5371,0.0,0.0,0.0,-6.5371,-6.5371,-6.5371,-6.5371,-6.5371,-6.5371,-6.5371,-6.5371,-6.5371,-6.5371,-6.5371,-6.5371,-6.5371,-6.5371,0.0,0.0,0.0,0.0,0.0,-6.5371,-6.4717,-6.3672,-6.3672,-6.2966,-6.1973,-6.1973,-6.1973,-6.1973,0.0,0.0,0.0,0.0,0.0,0.0,0.0,0.0,0.0,0.0,-5.1596,-5.1596,-5.1596,-5.1596,-5.1596,0.0,0.0,0.0,0.0,0.0,0.0,0.0,0.0,0.0,-5.1596,-5.1596,-5.1596,-5.1596,-5.1596,-5.1596,-5.1596,-5.1596,-5.1596,-5.1596,-5.1596,-5.1596,-5.1596,-5.1596,-5.1596,-5.1596,-5.1596,-5.1596,0.0,0.0,0.0,0.0,-5.1596,-5.1596,0.0,0.0,0.0,0.0,0.0,0.0,0.0,0.0,-5.5099,-5.5099,-5.5099,0.0,-5.5099,-5.5099,-5.5961,-5.6798,0.0,-5.7686,-5.8523,-5.8523,-5.8523,-5.8523,-5.8523,-5.8523,-5.8523,-5.8523,-5.9464,-6.0222,-6.0222,-6.1999,-6.3384,-6.3646,-6.456,-6.524,-6.5371,-6.5371,-6.5371,0.0,0.0,-6.5371,-6.5371,-6.5371,-6.5371,-6.5371,-6.5371,-6.5371,-6.5371,-6.5371,-6.5371,-6.5371,-6.5371,-6.5371,-6.5371,-6.5371,0.0,0.0,0.0,0.0,-6.5371,-6.5371,-6.4717,-6.3672,-6.3672,-6.2966,-6.1973,-6.1973,-6.1973,-6.1973,0.0,0.0,0.0,0.0,0.0,0.0,0.0,0.0,0.0,0.0,-5.1596,-5.1596,-5.1596,-5.1596,-5.1596,0.0,0.0,0.0,0.0,0.0,0.0,0.0,-5.1596,-5.1596,-5.1596,-5.1596,-5.1596,-5.1596,-5.1596,-5.1596,-5.1596,-5.1596,-5.1596,-5.1596,-5.1596,-5.1596,-5.1596,-5.1596,-5.1596,-5.1596,-5.1596,0.0,0.0,0.0,0.0,0.0,-5.1596,-5.1596,0.0,-5.2981,-5.34,-5.3583,0.0,0.0,0.0,0.0,-5.5099,-5.5099,-5.5099,-5.5099,-5.5099,-5.5099,-5.5961,-5.6798,-5.6798,-5.7686,-5.8523,-5.8523,-5.8523,-5.8523,-5.8523,-5.8523,-5.8601,-5.8862,-5.9647,-6.0405,-6.0953,-6.2548,-6.3672,-6.3672,-6.4691,-6.5371,0.0,-6.5371,0.0,0.0,0.0,-6.5371,-6.5371,-6.5371,-6.5371,-6.5371,-6.5371,-6.5371,-6.5371,-6.5371,-6.5371,-6.5371,-6.5371,-6.5371,-6.5371,-6.5371,-6.5371,0.0,0.0,0.0,-6.5371,-6.5371,-6.4717,-6.3672,-6.3672,-6.2966,-6.1973,-6.1973,-6.1973,-6.1973,0.0,0.0,0.0,0.0,0.0,0.0,0.0,0.0,0.0,0.0,0.0,0.0,0.0,0.0,0.0,0.0,0.0,0.0,0.0,0.0,0.0,-5.1596,-5.1596,-5.1596,-5.1596,-5.1596,-5.1596,-5.1596,-5.1596,-5.1596,-5.1596,-5.1596,-5.1596,-5.1596,-5.1596,-5.1596,-5.1596,-5.1596,-5.1596,-5.1596,-5.1596,0.0,0.0,0.0,0.0,0.0,0.0,0.0,0.0,-5.3008,-5.3452,-5.3713,-5.4759,0.0,0.0,0.0,0.0,0.0,-5.5099,-5.5099,-5.5099,-5.5099,-5.5961,-5.6798,-5.6798,-5.7686,-5.8523,-5.8523,-5.8523,-5.8523,-5.8523,-5.8523,-5.8706,-5.9281,-5.9934,-6.0744,-6.1816,-6.2966,-6.3672,-6.3672,-6.4691,0.0,-6.5371,-6.5371,0.0,0.0,0.0,-6.5371,-6.5371,-6.5371,-6.5371,-6.5371,-6.5371,-6.5371,-6.5371,-6.5371,-6.5371,-6.5371,-6.5371,-6.5371,-6.5371,-6.5371,-6.5371,0.0,0.0,0.0,-6.5371,-6.5371,-6.4717,-6.3672,-6.3672,-6.2966,-6.1973,-6.1973,-6.1973,-6.1973,0.0,0.0,0.0,0.0,0.0,0.0,0.0,0.0,0.0,0.0,0.0,0.0,0.0,0.0,0.0,0.0,0.0,0.0,0.0,0.0,0.0,-5.1596,-5.1596,-5.1596,-5.1596,-5.1596,-5.1596,-5.1596,-5.1596,-5.1596,-5.1596,-5.1596,-5.1596,-5.1596,-5.1596,-5.1596,-5.1596,-5.1596,-5.1596,-5.1596,-5.1596,0.0,0.0,0.0,0.0,0.0,0.0,0.0,0.0,-5.3164,-5.3687,-5.421,-5.4889,0.0,0.0,0.0,0.0,0.0,-5.5099,-5.5099,-5.5099,-5.5099,-5.5961,-5.6798,-5.6798,-5.7686,-5.8523,-5.8523,-5.8523,-5.8523,-5.8523,-5.8523,-5.8706,-5.9281,-6.0274,-6.1215,-6.1868,-6.2966,-6.3672,-6.3672,0.0,-6.5371,-6.5371,0.0,0.0,0.0,0.0,-6.5371,-6.5371,-6.5371,-6.5371,-6.5371,-6.5371,-6.5371,-6.5371,-6.5371,-6.5371,-6.5371,-6.5371,-6.5371,-6.5371,-6.5371,-6.5371,0.0,0.0,-6.5371,-6.5371,-6.5371,-6.4717,-6.3672,-6.3672,-6.2966,-6.1973,-6.1973,-6.1973,-6.1973,0.0,0.0,0.0,0.0,0.0,0.0,0.0,0.0,0.0,0.0,0.0,0.0,0.0,0.0,0.0,0.0,0.0,0.0,0.0,-5.1596,-5.1596,-5.1596,-5.1596,-5.1596,-5.1596,-5.1596,-5.1596,-5.1596,-5.1596,-5.1596,-5.1596,-5.1596,-5.1596,-5.1596,-5.1596,-5.1596,-5.1596,-5.1596,-5.1596,-5.1596,0.0,0.0,0.0,0.0,0.0,0.0,0.0,0.0,0.0,0.0,-5.3766,-5.4314,-5.4916,0.0,0.0,0.0,0.0,0.0,-5.5099,-5.5099,-5.5099,-5.5099,-5.5726,-5.6405,-5.6745,-5.7451,-5.8131,-5.8444,-5.8523,-5.8523,-5.8523,-5.8523,-5.881,-5.9673,-6.0823,-6.1659,-6.1921,-6.2966,-6.3672,0.0,0.0,-6.5371,-6.5371,0.0,0.0,0.0,0.0,0.0,-6.5371,-6.5371,-6.5371,-6.5371,-6.5371,-6.5371,-6.5371,-6.5371,-6.5371,-6.5371,-6.5371,-6.5371,-6.5371,-6.5371,-6.5371,-6.5371,0.0,-6.5371,-6.5371,-6.5371,-6.4717,-6.3672,-6.3672,-6.2966,-6.1973,-6.1973,-6.1973,-6.1973,0.0,0.0,0.0,0.0,0.0,0.0,0.0,0.0,0.0,0.0,0.0,0.0,0.0,0.0,0.0,0.0,0.0,0.0,0.0,-5.1596,-5.1596,-5.1596,-5.1596,-5.1596,-5.1596,-5.1596,-5.1596,-5.1596,-5.1596,-5.1596,-5.1596,-5.1596,-5.1596,-5.1596,-5.1596,-5.1596,-5.1596,-5.1596,-5.1596,-5.1596,0.0,0.0,0.0,0.0,0.0,0.0,0.0,0.0,0.0,0.0,0.0,0.0,0.0,0.0,0.0,-5.5099,-5.5099,-5.5099,-5.5099,-5.5099,-5.5099,-5.5099,-5.5517,-5.604,-5.6484,-5.7137,-5.7791,-5.8235,-5.8418,-5.8523,-5.8523,-5.8732,-5.9255,-6.0274,-6.1293,-6.1973,-6.1973,-6.2966,-6.3672,-6.3672,-6.4691,-6.5371,0.0,0.0,0.0,0.0,0.0,0.0,-6.5371,-6.5371,-6.5371,-6.5371,-6.5371,-6.5371,-6.5371,-6.5371,-6.5371,-6.5371,-6.5371,-6.5371,-6.5371,-6.5371,-6.5371,-6.5371,-6.5371,-6.5371,-6.5371,-6.5371,-6.4717,-6.3672,-6.3672,-6.2966,-6.1973,-6.1973,-6.1973,-6.1973,0.0,0.0,0.0,0.0,0.0,0.0,0.0,0.0,0.0,0.0,0.0,0.0,0.0,0.0,0.0,0.0,0.0,0.0,-5.1596,-5.1596,-5.1596,-5.1596,-5.1596,-5.1596,-5.1596,-5.1596,-5.1596,-5.1596,-5.1596,-5.1596,-5.1596,-5.1596,-5.1596,-5.1596,-5.1596,-5.1596,-5.1596,-5.1596,-5.1596,-5.1596,-5.1596,0.0,0.0,0.0,0.0,0.0,0.0,0.0,0.0,0.0,0.0,0.0,0.0,0.0,-5.5099,-5.5099,-5.5099,-5.5099,-5.5099,-5.5099,-5.5099,-5.5099,-5.5517,-5.5909,-5.5961,-5.685,-5.773,-5.7782,-5.8157,-5.8523,-5.8523,-5.9385,-6.03,-6.0953,-6.1581,-6.1973,-6.1973,-6.2966,-6.3672,-6.3672,-6.4691,-6.5371,0.0,0.0,0.0,0.0,0.0,0.0,-6.5371,-6.5371,-6.5371,-6.5371,-6.5371,-6.5371,-6.5371,-6.5371,-6.5371,-6.5371,-6.5371,-6.5371,-6.5371,-6.5371,-6.5371,-6.5371,-6.5371,-6.5371,-6.5371,-6.5371,-6.4717,-6.3672,-6.3672,-6.2966,-6.1973,-6.1973,-6.1973,-6.1973,0.0,0.0,0.0,0.0,0.0,0.0,0.0,0.0,0.0,0.0,0.0,-5.1596,-5.1596,0.0,0.0,0.0,0.0,-5.1596,-5.1596,-5.1596,-5.1596,-5.1596,-5.1596,-5.1596,-5.1596,-5.1596,-5.1596,-5.1596,-5.1596,-5.1596,-5.1596,-5.1596,-5.1596,-5.1596,-5.1596,-5.1596,-5.1596,-5.1596,-5.1596,-5.1596,-5.1596,-5.1596,0.0,0.0,0.0,0.0,0.0,0.0,0.0,0.0,-5.4602,-5.5099,-5.5099,-5.5099,-5.5099,-5.5099,-5.5099,-5.5099,-5.5099,-5.5099,-5.5099,-5.5099,-5.5255,-5.5491,-5.583,-5.6536,-5.7242,-5.7651,-5.8104,-5.8627,-5.8967,-5.9673,-6.0431,-6.1032,-6.1607,-6.2104,-6.2443,-6.3175,-6.3803,-6.4168,-6.49,0.0,0.0,0.0,0.0,0.0,0.0,0.0,-6.5371,-6.5371,-6.5371,-6.5371,-6.5371,-6.5371,-6.5371,-6.5371,-6.5371,-6.5371,-6.5371,-6.5371,-6.5371,-6.5371,-6.5371,-6.5371,-6.5371,-6.5371,-6.5371,-6.5371,-6.4717,-6.3593,-6.2888,-6.2339,-6.1973,-6.1973,-6.1973,-6.1973,0.0,0.0,0.0,0.0,0.0,0.0,0.0,0.0,-5.2171,0.0,0.0,0.0,0.0,-5.2171,0.0,0.0,0.0,-5.1884,-5.1884,-5.1701,-5.1596,-5.1596,-5.1596,-5.1596,-5.1596,-5.1596,-5.1596,-5.1596,-5.1596,-5.1596,-5.1596,-5.1596,-5.1596,-5.1596,-5.1596,-5.1534,-5.1471,-5.1534,-5.1534,-5.1471,-5.1534,-5.1638,0.0,0.0,0.0,0.0,0.0,0.0,0.0,0.0,-5.4759,-5.5099,-5.5099,-5.5099,-5.5099,-5.5099,-5.5099,-5.5099,-5.5099,-5.5099,-5.5099,-5.5099,-5.5099,-5.5255,-5.5778,-5.6379,-5.6928,-5.732,-5.8131,-5.8967,-5.9542,-6.0117,-6.0692,-6.1293,-6.1711,-6.2182,-6.2757,-6.3306,-6.3881,-6.4456,0.0,0.0,0.0,0.0,0.0,0.0,0.0,0.0,0.0,-6.5371,-6.5371,-6.5371,-6.5371,-6.5371,-6.5371,-6.5371,-6.5371,-6.5371,-6.5371,-6.5371,-6.5371,-6.5371,-6.5371,-6.5371,-6.5371,-6.5371,-6.5371,-6.5371,-6.4717,-6.3567,-6.2417,-6.1973,-6.1973,-6.1973,-6.1973,-6.1973,0.0,0.0,0.0,0.0,0.0,0.0,-5.2511,-5.3008,-5.34,-5.34,-5.34,0.0,0.0,0.0,0.0,0.0,-5.2851,-5.2511,-5.2511,-5.1936,-5.1622,-5.1622,-5.1622,-5.1622,-5.1622,-5.1622,-5.1596,-5.1596,-5.1596,-5.1596,-5.1596,-5.1596,-5.1596,-5.1596,-5.1596,-5.1408,-5.112,-5.1471,-5.1434,-5.112,-5.1497,-5.1799,-5.2026,0.0,0.0,0.0,0.0,0.0,0.0,0.0,-5.5099,-5.5099,-5.5099,-5.5099,-5.5099,-5.5099,-5.5099,-5.5099,-5.5099,-5.5099,-5.5099,-5.5099,-5.5099,-5.5255,-5.5778,-5.6379,-5.6798,-5.6824,-5.8183,-5.9542,-6.0117,-6.0718,-6.1319,-6.1868,-6.1973,-6.2182,-6.2757,-6.3306,-6.3881,0.0,0.0,0.0,0.0,0.0,0.0,0.0,0.0,0.0,0.0,-6.5371,-6.5371,-6.5371,-6.5371,-6.5371,-6.5371,-6.5371,-6.5371,-6.5371,-6.5371,-6.5371,-6.5371,-6.5371,-6.5371,-6.5371,-6.5371,-6.5371,-6.5371,-6.5371,-6.4691,-6.3567,-6.2417,-6.1973,-6.1973,-6.1973,-6.1973,-6.1973,0.0,0.0,0.0,0.0,0.0,0.0,-5.3138,-5.3269,-5.34,-5.34,-5.34,0.0,0.0,0.0,0.0,0.0,0.0,-5.3138,-5.3138,-5.2955,-5.2877,-5.2877,-5.2877,-5.2877,-5.2877,-5.2877,-5.2433,-5.1596,-5.1596,-5.1596,-5.1596,-5.1346,-5.1346,-5.1596,-5.1094,-5.0968,-5.1146,-5.1661,-5.1652,-5.1357,-5.2129,-5.235,-5.2205,0.0,0.0,0.0,0.0,0.0,0.0,0.0,0.0,0.0,-5.5032,-5.5099,-5.5099,-5.5099,-5.5099,-5.5099,-5.5099,-5.5099,-5.5099,-5.5099,-5.5099,-5.5255,-5.5778,-5.6379,-5.7033,-5.7843,-5.8732,-5.9542,-6.0117,-6.0718,-6.1319,-6.1868,-6.1973,-6.2313,-6.328,-6.3567,0.0,0.0,0.0,0.0,0.0,0.0,0.0,0.0,0.0,0.0,0.0,-6.5371,-6.5371,0.0,-6.5371,-6.5371,-6.5371,-6.5371,-6.5371,-6.5371,-6.5371,-6.5371,-6.5371,-6.5371,-6.5371,-6.5371,-6.5371,-6.5371,-6.5318,-6.4508,-6.3985,-6.3567,-6.2417,-6.1973,-6.1973,-6.1973,-6.1973,-6.1973,0.0,0.0,0.0,0.0,0.0,0.0,-5.3713,-5.3922,-5.4079,-5.4079,-5.4079,-5.4079,0.0,0.0,0.0,-5.4079,-5.3844,-5.3713,-5.3713,-5.3504,-5.34,-5.34,-5.34,-5.34,-5.34,-5.34,-5.3034,-5.2302,-5.2302,-5.2302,-5.2302,-5.2138,-5.2138,-5.2302,-5.1729,-5.1537,-5.1563,-5.1962,-5.1923,-5.1623,-5.2282,-5.2499,-5.244,0.0,0.0,0.0,0.0,0.0,0.0,0.0,0.0,0.0,-5.4604,-5.4898,-5.5099,-5.4872,-5.4939,-5.5099,-5.5099,-5.5099,-5.5099,-5.5099,-5.5099,-5.5308,-5.6092,-5.6719,-5.7399,-5.8314,-5.915,-5.9803,-6.0169,-6.0901,-6.1581,-6.1921,-6.1973,-6.2287,-6.3201,-6.3541,0.0,0.0,0.0,0.0,0.0,0.0,0.0,0.0,0.0,0.0,0.0,-6.5371,-6.5371,0.0,-6.5371,-6.5371,-6.5371,-6.5371,-6.5371,-6.5371,-6.5371,-6.5371,-6.5371,-6.5371,-6.5371,-6.5371,-6.5371,-6.5371,-6.5292,-6.4142,-6.3672,-6.3567,-6.2417,-6.1973,-6.1973,-6.1973,-6.1973,-6.1973,0.0,0.0,-5.3492,-5.3556,0.0,-5.4288,-5.4288,-5.4759,-5.5099,-5.5099,-5.5099,-5.5099,0.0,0.0,0.0,-5.5099,-5.4602,-5.4288,-5.4288,-5.3818,-5.3556,-5.3556,-5.3556,-5.3556,-5.3556,-5.3556,-5.3556,-5.3556,-5.3452,-5.34,-5.34,-5.3335,-5.3335,-5.34,-5.2893,-5.2502,-5.2331,-5.2316,-5.2119,-5.1854,-5.2236,-5.2501,-5.2624,-5.2624,0.0,0.0,0.0,0.0,0.0,0.0,0.0,0.0,-5.4132,-5.4469,-5.4965,-5.4578,-5.4738,-5.5032,-5.5099,-5.5099,-5.5099,-5.5099,-5.5177,-5.5543,-5.6641,-5.732,-5.7869,-5.8392,-5.9411,-6.0222,-6.0222,-6.1189,-6.1973,-6.1973,-6.1973,-6.2182,-6.2757,-6.3306,0.0,0.0,0.0,0.0,0.0,0.0,0.0,0.0,0.0,0.0,0.0,-6.5371,0.0,-6.5371,-6.5371,-6.5371,-6.5371,-6.5371,-6.5371,0.0,-6.5371,-6.5371,-6.5371,-6.5371,-6.5371,-6.5371,-6.5371,-6.5371,-6.5292,-6.4142,-6.3672,-6.3567,-6.2417,-6.1973,-6.1973,-6.1973,-6.1973,-6.1973,0.0,0.0,-5.4348,-5.4666,0.0,0.0,-5.4916,-5.502,-5.5099,-5.5099,-5.5099,-5.5099,-5.5099,-5.5099,0.0,-5.5099,-5.4994,-5.4916,-5.4916,-5.4811,-5.4733,-5.4733,-5.4733,-5.4733,-5.4733,-5.4733,-5.4733,-5.4733,-5.3844,-5.34,-5.34,-5.2789,-5.2854,-5.3335,-5.2134,-5.187,-5.2291,-5.246,-5.2371,-5.2085,-5.2945,-5.3037,-5.2822,-5.2822,-5.3103,0.0,0.0,0.0,0.0,0.0,0.0,0.0,-5.3929,-5.4132,-5.4267,-5.4443,-5.4578,-5.4712,-5.5032,-5.5099,-5.5099,-5.5099,-5.5778,-5.6615,-5.732,-5.7921,-5.8366,-5.8497,-5.9411,-6.0222,-6.0222,-6.1189,-6.1973,-6.1973,-6.1973,-6.2182,-6.2757,0.0,0.0,0.0,0.0,0.0,0.0,0.0,0.0,0.0,0.0,0.0,-6.5371,-6.5371,0.0,-6.5371,-6.5371,-6.5371,-6.5371,-6.5371,-6.5371,0.0,-6.5371,-6.5371,-6.5371,-6.5371,-6.5371,-6.5371,-6.5371,-6.5371,-6.5292,-6.4142,-6.3672,-6.3567,-6.2417,-6.1973,-6.1973,-6.1973,-6.1973,-6.1973,0.0,0.0,0.0,0.0,0.0,0.0,0.0,0.0,-5.4785,-5.5072,-5.5099,-5.5099,-5.5099,-5.5099,0.0,0.0,-5.5099,-5.5099,-5.5099,-5.5099,-5.5099,-5.5099,-5.4939,-5.4872,-5.5099,-5.4764,-5.4764,-5.5099,-5.4273,-5.3987,-5.421,-5.3657,-5.3657,-5.4144,-5.2884,-5.2657,-5.3059,-5.2827,-5.2614,-5.2528,-5.301,-5.3067,-5.2929,-5.2929,-5.2998,-5.3204,-5.2998,0.0,0.0,0.0,0.0,0.0,0.0,0.0,-5.4174,-5.4064,-5.4402,-5.4805,-5.4805,-5.4939,-5.5177,-5.5412,-5.6144,-5.6954,-5.7529,-5.8104,-5.8523,-5.8523,-5.9411,-6.0222,-6.0222,-6.1189,-6.1973,-6.1973,-6.1973,-6.2077,-6.2365,0.0,0.0,0.0,0.0,0.0,0.0,0.0,0.0,0.0,0.0,-6.5371,-6.5371,-6.5371,-6.5371,-6.5371,-6.5371,-6.5371,-6.5371,-6.5371,-6.5371,-6.5371,-6.5371,-6.5371,-6.5371,-6.5371,-6.5371,-6.5371,-6.5371,-6.524,-6.49,-6.4038,-6.3515,-6.3175,-6.2313,-6.1973,-6.1973,-6.1973,-6.1973,-6.1973,0.0,0.0,0.0,0.0,0.0,0.0,0.0,0.0,0.0,-5.5046,-5.5099,-5.5099,-5.5032,-5.5032,-5.5099,0.0,0.0,0.0,-5.5099,-5.5099,-5.5032,-5.4898,-5.4738,-5.4738,-5.5032,-5.4469,-5.4469,-5.5099,-5.4805,-5.4805,-5.5099,-5.4645,-5.4578,-5.4965,-5.3954,-5.3682,-5.3861,-5.3273,-5.2929,-5.2929,-5.2929,-5.2929,-5.2929,-5.2929,-5.2929,-5.2929,-5.2929,-5.2929,-5.2929,-5.2929,0.0,0.0,0.0,0.0,-5.4106,-5.3657,-5.4158,-5.4805,-5.4578,-5.4805,-5.5255,-5.5909,-5.6432,-5.6981,-5.766,-5.8183,-5.8523,-5.8523,-5.9411,-6.0222,-6.0222,-6.1189,-6.1973,-6.1973,-6.1973,-6.1973,0.0,0.0,0.0,0.0,0.0,0.0,0.0,0.0,0.0,0.0,0.0,-6.5371,-6.5371,-6.5371,-6.5371,-6.5371,-6.5371,-6.5371,-6.5371,-6.5371,-6.5371,-6.5371,-6.5371,-6.5371,-6.5371,-6.5371,-6.5371,-6.5371,-6.5371,-6.5057,-6.4482,-6.3907,-6.3332,-6.2757,-6.2182,-6.1973,-6.1973,-6.1973,-6.1973,-6.1973,0.0,0.0,0.0,0.0,0.0,0.0,0.0,0.0,0.0,0.0,-5.5099,-5.4965,-5.4645,-5.4872,-5.4939,-5.4578,-5.4872,-5.5099,-5.5099,0.0,0.0,-5.42,-5.4671,-5.4872,-5.4578,-5.4805,-5.5032,-5.5099,-5.5032,-5.5032,-5.5099,-5.4402,-5.4241,-5.4578,-5.3793,-5.3546,-5.3546,-5.3478,-5.3204,-5.2929,-5.2929,-5.2929,-5.2929,-5.2929,-5.2929,-5.2929,-5.2929,-5.2929,-5.2929,-5.2929,-5.2929,0.0,0.0,0.0,-5.3204,-5.341,-5.3819,-5.42,-5.4443,-5.4805,-5.536,-5.6432,-5.6745,-5.7085,-5.8157,-5.847,-5.8523,-5.8523,-5.9411,-6.0222,-6.0222,-6.1189,-6.1973,-6.1973,-6.1973,0.0,0.0,0.0,0.0,0.0,0.0,0.0,0.0,0.0,0.0,0.0,-6.5371,-6.5371,-6.5371,-6.5371,-6.5371,-6.5371,-6.5371,-6.5371,-6.5371,-6.5371,-6.5371,-6.5371,-6.5371,-6.5371,-6.5371,-6.5371,-6.5371,-6.5371,-6.5371,-6.5057,-6.4482,-6.3907,-6.3332,-6.2757,-6.2182,-6.1973,-6.1973,-6.1973,-6.1973,-6.1973,0.0,0.0,0.0,0.0,0.0,0.0,0.0,0.0,0.0,0.0,0.0,-5.5032,-5.4872,-5.4805,-5.4805,-5.4805,-5.4805,-5.4872,-5.5099,-5.4697,-5.4537,-5.4604,-5.4537,-5.4604,-5.4805,-5.4604,-5.4697,-5.5099,-5.4697,-5.4604,-5.4738,-5.4267,-5.4174,-5.4443,-5.3589,-5.3273,-5.3478,-5.3273,-5.3067,-5.2929,-5.2929,-5.2929,-5.2929,-5.2929,-5.2929,-5.2929,-5.2929,-5.2929,-5.2929,-5.2929,-5.2929,-5.2929,-5.2929,0.0,0.0,0.0,-5.3521,-5.4064,-5.4443,-5.4645,-5.5065,-5.6442,-5.6798,-5.7111,-5.8261,-5.8523,-5.8523,-5.8523,-5.9411,-6.0222,-6.0222,-6.1189,-6.1973,-6.1973,-6.1973,0.0,0.0,0.0,0.0,0.0,0.0,0.0,0.0,0.0,0.0,0.0,-6.5371,-6.5371,-6.5371,-6.5371,-6.5371,-6.5371,-6.5371,-6.5371,-6.5371,-6.5371,-6.5371,-6.5371,-6.5371,-6.5371,-6.5371,-6.5371,-6.5371,-6.5371,-6.5371,-6.4874,-6.4038,-6.3776,-6.3149,-6.2313,-6.2077,-6.1973,-6.1973,-6.1973,-6.1973,-6.1973,0.0,0.0,0.0,0.0,0.0,0.0,0.0,0.0,0.0,0.0,0.0,-5.5032,-5.4831,0.0,0.0,0.0,-5.4578,-5.4645,-5.4939,-5.4469,-5.4335,-5.4831,-5.4402,-5.4402,-5.4965,-5.4402,-5.4469,-5.5099,-5.4537,-5.4402,-5.4645,-5.4309,-5.4241,-5.4309,-5.3521,-5.3341,-5.3478,-5.3204,-5.2998,-5.2929,-5.2998,-5.2998,-5.2929,-5.2998,-5.2998,-5.2929,-5.2929,-5.2929,-5.2929,-5.2929,-5.2929,-5.2929,-5.2929,-5.3136,0.0,0.0,0.0,-5.3929,-5.4309,-5.4443,-5.4837,-5.6304,-5.6755,-5.7111,-5.8261,-5.8523,-5.8523,-5.8523,-5.9307,-6.0039,-6.0195,-6.1189,-6.1973,-6.1973,0.0,0.0,0.0,0.0,0.0,0.0,0.0,0.0,0.0,0.0,0.0,0.0,-6.5371,-6.5371,-6.5371,-6.5371,-6.5371,-6.5371,-6.5371,-6.5371,-6.5371,-6.5371,-6.5371,-6.5371,-6.5371,-6.5371,-6.5371,-6.5371,-6.5371,-6.5371,-6.5371,-6.4743,-6.3672,-6.3672,-6.2992,-6.1973,-6.1973,-6.1973,-6.1973,-6.1973,-6.1973,-6.1973,0.0,0.0,0.0,0.0,0.0,0.0,0.0,0.0,0.0,0.0,0.0,-5.4831,-5.4132,-5.4309,-5.4241,-5.3614,-5.4132,-5.4511,-5.4511,-5.4511,-5.4376,-5.4064,-5.4309,0.0,-5.4511,-5.4511,-5.4671,-5.5099,-5.5032,-5.5032,-5.5032,-5.4645,-5.4309,-5.3997,-5.3997,-5.3793,-5.3478,-5.3478,-5.3273,-5.2929,-5.3341,-5.3273,-5.2929,-5.3341,-5.3204,-5.2929,-5.2929,-5.2929,-5.2929,-5.2929,-5.2929,-5.2929,-5.2929,-5.2929,-5.2929,0.0,0.0,0.0,-5.3929,-5.4241,-5.4795,-5.6055,-5.6548,-5.7111,-5.8261,-5.8523,-5.8523,-5.8523,-5.8993,-5.9568,-6.0117,-6.1189,-6.1973,-6.1973,0.0,0.0,0.0,0.0,0.0,0.0,0.0,0.0,0.0,0.0,0.0,0.0,-6.5371,-6.5371,-6.5371,-6.5371,-6.5371,-6.5371,-6.5371,-6.5371,-6.5371,-6.5371,-6.5371,-6.5371,-6.5371,-6.5371,-6.5371,-6.5371,-6.5371,-6.5371,-6.5371,-6.4743,-6.3672,-6.3672,-6.2992,-6.1973,-6.1973,-6.1973,-6.1973,-6.1973,-6.1973,-6.1973,0.0,0.0,0.0,0.0,0.0,0.0,0.0,0.0,0.0,0.0,0.0,0.0,0.0,-5.4241,-5.4174,-5.4106,-5.4376,-5.4511,-5.4511,-5.4106,-5.4132,-5.4671,-5.4402,-5.4402,-5.4872,-5.4645,-5.4712,-5.5099,-5.463,-5.4469,-5.4712,-5.4578,-5.4443,-5.4309,-5.3861,-5.3478,-5.3136,-5.3136,-5.2998,-5.2929,-5.3067,-5.2998,-5.2929,-5.3067,-5.2998,-5.2929,-5.2929,-5.2929,-5.2929,-5.2929,-5.2929,-5.2929,-5.2929,-5.2929,-5.2929,-5.2929,-5.2998,-5.3204,-5.3614,-5.3793,-5.4279,-5.5917,-5.6409,-5.6834,-5.8191,-5.8523,-5.8523,-5.8523,-5.8967,-5.9542,-6.0117,-6.0875,-6.1555,0.0,0.0,0.0,0.0,0.0,0.0,0.0,0.0,0.0,0.0,0.0,0.0,0.0,0.0,0.0,-6.5371,-6.5371,-6.5371,-6.5371,-6.5371,-6.5371,-6.5371,-6.5371,-6.5371,-6.5371,-6.5371,-6.5371,-6.5371,-6.5371,-6.5371,-6.5371,-6.5005,-6.4404,-6.3646,-6.328,-6.2679,-6.1973,-6.1973,-6.1973,-6.1973,-6.1973,-6.1973,-6.1973,0.0,0.0,0.0,-5.4511,0.0,-5.3682,-5.3682,-5.3929,-5.4106,-5.3997,0.0,0.0,0.0,0.0,-5.4064,-5.4174,-5.4039,-5.4039,-5.4309,-5.3793,-5.3954,-5.4872,-5.42,-5.42,-5.5099,-5.4263,-5.4263,-5.5099,-5.4288,-5.4128,-5.4511,-5.4511,-5.4376,-5.4106,-5.3682,-5.341,-5.3247,-5.2998,-5.2929,-5.2929,-5.3067,-5.2998,-5.2929,-5.3067,-5.2998,-5.2929,-5.2929,-5.2929,-5.2929,-5.2929,-5.2929,-5.2929,-5.2929,-5.2929,-5.2929,-5.2929,-5.2929,-5.2929,-5.3204,-5.341,-5.3894,-5.5476,-5.6132,-5.6651,-5.7978,-5.8355,-5.8523,-5.8523,-5.881,-5.9255,-5.983,-6.0431,-6.1084,0.0,0.0,0.0,0.0,0.0,0.0,0.0,0.0,0.0,0.0,0.0,0.0,0.0,0.0,0.0,-6.5109,-6.5266,-6.5371,-6.5371,-6.5371,-6.5371,-6.5371,-6.5371,-6.5371,-6.5371,-6.5371,-6.5371,-6.5371,-6.5371,-6.5371,-6.5345,-6.4587,-6.4038,-6.362,-6.3071,-6.2496,-6.1973,-6.1973,-6.1973,-6.1973,-6.1973,-6.1973,-6.1973,-5.5099,-5.4805,-5.4511,-5.4511,-5.4174,-5.3997,-5.3997,-5.4309,-5.4376,-5.4064,0.0,0.0,0.0,0.0,0.0,-5.3546,-5.3204,-5.3247,-5.3929,-5.3682,-5.3793,-5.4511,-5.3861,-5.4022,-5.5032,-5.3458,-5.3433,-5.5099,-5.4126,-5.3993,-5.4511,-5.4511,-5.4174,-5.3478,-5.3478,-5.3682,-5.3929,-5.3204,-5.2929,-5.2929,-5.3341,-5.3273,-5.2929,-5.3341,-5.3273,-5.2929,-5.2929,-5.2929,-5.2929,-5.2929,-5.2929,-5.2929,-5.2929,-5.2929,-5.2929,-5.2929,-5.2929,-5.2929,0.0,0.0,0.0,-5.4822,-5.5688,-5.6581,-5.7597,-5.8212,-5.8452,-5.8452,-5.8523,-5.8679,-5.9255,-5.983,-6.0588,0.0,0.0,0.0,0.0,0.0,0.0,0.0,0.0,0.0,0.0,0.0,0.0,0.0,0.0,-6.4508,-6.4534,-6.5083,-6.5371,-6.5371,-6.5371,-6.5371,-6.5371,-6.5371,-6.5371,-6.5371,-6.5371,-6.5371,-6.5371,-6.5371,-6.5371,-6.5318,-6.4168,-6.3672,-6.362,-6.3045,-6.2469,-6.1973,-6.1973,-6.1973,-6.1973,-6.1973,-6.1973,-6.1898,-5.5099,-5.4604,-5.4174,-5.4443,-5.3997,-5.3725,-5.3997,-5.4064,-5.4174,0.0,0.0,0.0,-5.3997,-5.3997,-5.3997,-5.3861,-5.3971,-5.4039,-5.3997,-5.3682,-5.3793,-5.4511,-5.4132,-5.3997,-5.4267,-5.3843,-5.3952,-5.4645,-5.418,-5.4087,-5.4511,-5.4511,-5.4241,-5.3861,-5.3614,-5.3546,-5.3614,-5.3136,-5.2929,-5.2929,-5.2998,-5.2998,-5.2929,-5.2998,-5.2998,-5.2929,-5.2929,-5.2929,-5.2929,-5.2929,-5.2929,-5.2929,-5.2929,-5.2929,-5.2929,-5.2929,-5.2929,-5.2929,-5.2929,0.0,0.0,0.0,0.0,0.0,-5.7297,-5.7595,-5.781,-5.7999,-5.807,-5.8323,-5.9255,-5.983,0.0,0.0,0.0,0.0,0.0,0.0,0.0,0.0,0.0,0.0,0.0,0.0,0.0,0.0,-6.3593,-6.409,-6.4508,-6.5083,-6.5371,-6.5371,-6.5371,-6.5371,-6.5371,-6.5371,-6.5371,-6.5371,-6.5371,-6.5371,-6.5371,-6.5371,-6.5371,-6.5318,-6.4168,-6.3672,-6.3593,-6.2626,-6.2104,-6.1973,-6.1973,-6.1973,-6.1973,-6.1973,-6.1823,-6.1571,-5.4872,-5.4402,-5.4064,-5.4241,-5.3725,-5.341,-5.3929,-5.3861,-5.3861,0.0,0.0,0.0,-5.3793,-5.3929,-5.4006,-5.4099,-5.433,-5.4407,-5.4457,-5.4276,-5.4243,-5.4424,-5.4219,-5.4117,-5.3997,-5.3631,-5.374,-5.4511,-5.374,-5.374,-5.4309,-5.4174,-5.4031,-5.3851,-5.367,-5.3728,-5.3955,-5.3677,-5.3457,-5.3231,-5.3142,-5.3344,-5.3582,-5.3495,-5.3545,-5.3607,-5.3607,-5.3607,-5.3607,-5.3607,-5.3607,-5.3607,-5.3607,-5.3607,-5.3557,-5.3331,-5.3256,-5.3256,-5.3256,-5.3457,-5.3954,-5.4971,0.0,0.0,-5.7179,-5.7379,-5.7523,0.0,-5.7784,-5.7888,-5.8655,-5.9247,0.0,0.0,0.0,0.0,0.0,0.0,0.0,0.0,0.0,0.0,0.0,-6.226,0.0,-6.2469,-6.2992,-6.3672,-6.4482,-6.4848,-6.5136,-6.5371,-6.5371,-6.5371,-6.5371,-6.5371,-6.5371,-6.5371,-6.5371,-6.5371,-6.5371,-6.5238,-6.5029,-6.4742,-6.3831,-6.331,-6.3023,-6.2263,-6.1898,-6.1747,-6.1973,-6.1898,-6.1747,-6.1973,-6.1747,-6.1344,0.0,-5.4241,-5.4064,-5.4064,-5.3452,-5.3273,-5.3997,-5.3751,-5.3546,0.0,-5.3912,-5.3989,-5.3792,-5.3997,-5.4176,-5.4384,-5.4366,-5.4569,-5.5076,-5.5101,-5.4899,-5.4486,-5.4391,-5.4301,-5.4134,-5.3284,-5.3461,-5.4557,-5.3461,-5.3284,-5.4108,-5.3792,-5.3702,-5.3808,-5.3808,-5.4084,-5.4561,-5.4561,-5.431,-5.3903,-5.3721,-5.4031,-5.4582,-5.4455,-5.4486,-5.4561,-5.4561,-5.4561,-5.4561,-5.4561,-5.4561,-5.4561,-5.4561,-5.4561,-5.4461,-5.3959,-5.3808,-5.3808,-5.3808,-5.3833,-5.4135,-5.5139,-5.5728,0.0,-5.7061,-5.7235,-5.7379,0.0,-5.7523,-5.7451,-5.7784,0.0,0.0,0.0,0.0,0.0,0.0,0.0,0.0,0.0,0.0,0.0,-6.1973,-6.1973,-6.1973,-6.1973,-6.2496,-6.328,-6.4299,-6.4456,-6.477,-6.5187,-6.5345,-6.5371,-6.5238,-6.5371,-6.5397,-6.5318,-6.5397,-6.5397,-6.5318,-6.492,-6.445,-6.3776,-6.3207,-6.2638,-6.2146,-6.1906,-6.1672,-6.142,-6.1823,-6.1646,-6.1344,-6.1747,-6.1571,-6.1193,-5.4578,-5.4443,-5.4376,-5.4376,-5.4039,-5.3997,-5.4764,-5.409,-5.3819,-5.4697,-5.4679,-5.4773,-5.519,-5.5032,-5.4918,-5.4949,-5.4975,-5.5025,-5.5127,-5.4845,-5.4935,-5.542,-5.5115,-5.4924,-5.4911,-5.4696,-5.4696,-5.5007,-5.4696,-5.4696,-5.4867,-5.4822,-5.4663,-5.4386,-5.4386,-5.4461,-5.4561,-5.4561,-5.4762,-5.5085,-5.4859,-5.4713,-5.4632,-5.4859,-5.4814,-5.4561,-5.4561,-5.4561,-5.4561,-5.4561,-5.4561,-5.4561,-5.4561,-5.4561,-5.4607,-5.4436,-5.4386,-5.4386,-5.4386,-5.4712,-5.5114,-5.534,-5.5789,0.0,-5.6412,-5.6438,-5.6583,0.0,-5.6946,-5.7019,-5.7451,0.0,0.0,0.0,0.0,0.0,0.0,0.0,0.0,0.0,0.0,0.0,-6.1973,-6.1973,-6.1973,-6.1973,-6.2496,-6.2914,-6.3149,-6.4038,-6.443,-6.422,-6.4978,-6.5079,-6.436,-6.5079,-6.5238,-6.492,-6.5238,-6.5238,-6.492,-6.4866,-6.4291,-6.3407,-6.2737,-6.2251,-6.1685,-6.1196,-6.1117,-6.142,-6.1495,-6.1268,-6.0813,-6.0889,-6.0737,-6.0355,-5.4578,-5.4511,-5.4443,-5.4309,-5.4106,-5.4167,-5.4611,-5.4227,-5.4192,-5.4997,-5.5375,-5.545,-5.5172,-5.5293,-5.5535,-5.579,-5.5629,-5.5756,-5.6249,-5.5893,-5.5623,-5.5558,-5.5533,-5.5335,-5.4845,-5.5197,-5.5293,-5.5082,-5.5127,-5.5127,-5.5082,-5.4941,-5.4996,-5.5274,-5.5106,-5.5282,-5.5678,-5.5462,-5.5541,-5.5717,-5.5315,-5.5244,-5.5437,-5.5467,-5.5471,-5.539,-5.539,-5.539,-5.539,-5.539,-5.539,-5.539,-5.539,-5.539,-5.534,0.0,-5.4437,-5.3763,-5.3763,-5.3959,0.0,-5.45,0.0,0.0,0.0,-5.5115,-5.5041,-5.5484,-5.6022,-5.6656,-5.7019,0.0,0.0,0.0,0.0,0.0,0.0,0.0,0.0,0.0,0.0,0.0,-6.1973,-6.1973,-6.1898,-6.1747,-6.2159,-6.237,-6.2172,-6.3128,-6.3623,-6.3565,-6.4244,-6.445,-6.4119,-6.4521,-6.4681,-6.4466,-6.4681,-6.4681,-6.4441,-6.3892,-6.3297,-6.2497,-6.1936,-6.1375,-6.0814,-6.0763,-6.0737,-6.0813,-6.0965,-6.0813,-6.0431,-6.066,-6.0431,-6.0125,-5.4557,-5.4676,-5.4712,-5.4304,-5.4262,-5.4415,-5.453,-5.4537,-5.4784,-5.5389,-5.5982,-5.6059,-5.529,-5.5739,-5.6201,-5.6636,-5.6402,-5.6535,-5.721,-5.6946,-5.6526,-5.5782,-5.5947,-5.5745,-5.5173,-5.5669,-5.5669,-5.5315,-5.529,-5.529,-5.5315,-5.503,-5.5329,-5.6116,-5.5829,-5.6081,-5.6801,-5.6438,-5.6292,-5.6143,-5.5796,-5.5854,-5.6319,-5.6276,-5.6334,-5.6545,-5.6545,-5.6545,-5.6545,-5.6545,-5.6545,-5.652,-5.6394,-5.6369,0.0,0.0,0.0,0.0,0.0,0.0,0.0,0.0,0.0,-5.3425,0.0,0.0,0.0,0.0,0.0,0.0,0.0,0.0,0.0,0.0,0.0,0.0,0.0,0.0,0.0,0.0,0.0,0.0,0.0,-6.1898,-6.1747,-6.1268,-6.1571,-6.1703,-6.1531,-6.2223,-6.2715,-6.3098,-6.3438,-6.3694,-6.3805,-6.3885,-6.3936,-6.3984,-6.4039,-6.3988,-6.3779,-6.2974,-6.2151,-6.1517,-6.1087,-6.0502,-6.0048,-6.0355,-6.0278,-6.0022,-6.0431,-6.0355,-6.0022,-6.0355,-6.0278,-5.9971,-5.4911,-5.5426,-5.5761,-5.5089,-5.5299,-5.5465,-5.5446,-5.549,-5.5835,-5.6777,-5.6618,-5.6753,-5.7455,-5.7318,-5.7226,-5.7277,-5.7277,-5.7086,-5.6874,-5.6801,-5.6921,-5.7133,-5.6844,-5.6819,-5.7056,-5.6815,-5.6454,-5.6091,-5.6091,-5.6091,-5.6091,-5.6018,-5.6286,-5.67,-5.6627,-5.6725,-5.6801,-5.6729,-5.651,-5.6244,-5.7036,-5.719,-5.6947,-5.7314,-5.7495,-5.77,-5.77,-5.77,-5.77,0.0,-5.77,-5.7625,0.0,-5.6947,-5.6821,-5.6269,0.0,0.0,0.0,0.0,0.0,0.0,-5.267,0.0,0.0,0.0,-5.4124,-5.5681,0.0,0.0,0.0,0.0,0.0,0.0,0.0,0.0,0.0,0.0,0.0,0.0,0.0,0.0,0.0,0.0,-6.1268,-6.0813,-6.0813,-6.0991,-6.1372,-6.1607,-6.1942,-6.2302,-6.2508,-6.2655,-6.2738,-6.3137,-6.3473,-6.3554,-6.3958,-6.3597,-6.2792,-6.2636,-6.1789,-6.049,-6.0415,-6.0088,-5.956,-5.9663,-5.9585,-5.9585,-6.0048,-5.9894,-5.956,-5.9663,-5.9585,-5.956,-5.5709,-5.5925,-5.6106,-5.5853,-5.5897,-5.6,-5.6098,-5.6643,-5.6881,-5.6611,-5.6995,-5.7312,-5.7256,-5.7379,-5.7451,-5.7667,-5.7523,-5.7379,-5.7426,-5.7019,-5.6874,-5.7019,-5.6656,-5.651,-5.6729,-5.6801,-5.6583,-5.6219,-5.6438,-5.6438,-5.6219,-5.6219,-5.6438,-5.6801,-5.6801,-5.6946,-5.7189,-5.7204,-5.7137,-5.7114,-5.7867,-5.8074,-5.7976,-5.8098,-5.8049,-5.7901,-5.7901,-5.7901,-5.7901,0.0,-5.7901,0.0,0.0,0.0,0.0,-5.6,0.0,0.0,0.0,0.0,0.0,0.0,0.0,0.0,-5.0885,0.0,-5.1062,0.0,0.0,0.0,0.0,0.0,0.0,0.0,-5.6244,0.0,0.0,0.0,0.0,0.0,0.0,0.0,0.0,0.0,0.0,0.0,0.0,-6.0584,-6.0355,-6.0789,-6.107,-6.1092,-6.1424,-6.1675,-6.1756,-6.1995,-6.2122,-6.2189,-6.2349,-6.2223,-6.1811,-6.1403,-6.0921,-6.0311,-5.9985,-5.9709,-5.9483,-5.9483,-5.9483,-5.9508,-5.9663,-5.9663,-5.9483,-5.9483,-5.9483,-5.9483,-5.6788,-5.6711,-5.6641,-5.6456,-5.6501,-5.6559,-5.6759,-5.7312,-5.7426,-5.6656,-5.7354,-5.7641,-5.7019,-5.7379,-5.7739,-5.7856,-5.781,-5.7739,-5.7856,-5.7282,-5.7019,-5.7091,-5.6656,-5.6438,-5.651,-5.6729,-5.6583,-5.6219,-5.651,-5.651,-5.6219,-5.6219,-5.6438,-5.6801,-5.6946,-5.724,-5.7636,-5.7827,-5.7935,-5.804,-5.8674,-5.8958,-5.9033,-5.8832,-5.8631,-5.8328,-5.8328,-5.8328,-5.8328,-5.8328,-5.8328,0.0,-5.8177,0.0,0.0,0.0,0.0,0.0,-5.2336,0.0,0.0,0.0,0.0,0.0,0.0,0.0,0.0,0.0,0.0,0.0,0.0,0.0,-5.4076,-5.509,0.0,-5.5997,0.0,0.0,0.0,0.0,0.0,0.0,0.0,0.0,0.0,0.0,0.0,0.0,-5.9714,-6.0125,-6.0379,-6.0397,-6.05,-6.0778,-6.1097,-6.1018,-6.104,-6.119,-6.119,-6.109,-6.0939,-6.0512,-6.0236,-6.006,-5.9659,-5.9483,-5.9483,-5.9483,-5.9483,-5.9483,-5.9483,-5.9483,-5.9483,-5.9483,-5.9483,-5.9483,-5.7876,-5.7876,-5.759,-5.6895,-5.7112,-5.7328,-5.7354,-5.7379,-5.7379,-5.7379,-5.7667,-5.7784,-5.7451,-5.8025,-5.8284,-5.7927,-5.8212,-5.831,-5.7927,-5.7595,-5.7523,-5.7856,-5.7138,-5.6946,-5.7379,-5.7019,-5.6583,-5.6219,-5.6219,-5.6219,-5.6219,-5.6219,-5.6438,-5.6801,-5.7235,-5.7661,-5.8221,-5.8611,-5.8873,-5.9071,-5.9635,-5.9896,-6.0022,-5.9612,-5.9433,-5.9433,-5.9433,0.0,0.0,-5.9433,-5.9433,0.0,0.0,0.0,0.0,0.0,0.0,0.0,0.0,0.0,0.0,-5.2684,0.0,0.0,0.0,0.0,-4.9293,0.0,0.0,0.0,0.0,0.0,-5.3558,-5.3053,-5.4795,0.0,0.0,0.0,0.0,0.0,0.0,0.0,0.0,0.0,0.0,0.0,0.0,0.0,-6.0048,-5.974,-5.9894,-6.0686,-5.9996,-6.0042,-6.1012,-6.0597,-6.0638,-6.119,-6.119,-6.0889,-6.0337,-6.0337,-6.0035,-5.9508,-5.9508,-5.9483,-5.9483,-5.9483,-5.9483,-5.9483,-5.9483,-5.9483,-5.9483,-5.9483,-5.9483,-5.9483,-5.7138,-5.7379,-5.7595,-5.7498,-5.7451,-5.7379,-5.7379,-5.7595,-5.7667,-5.7451,-5.7713,-5.7856,-5.7713,-5.7927,-5.8141,-5.831,-5.8452,-5.8452,-5.8284,-5.7927,-5.7784,-5.7927,-5.721,-5.6874,-5.7019,-5.6583,-5.6365,-5.6219,-5.6219,-5.6219,-5.6219,-5.6219,-5.6292,-5.6463,-5.7182,-5.7801,-5.8225,-5.9142,-5.9579,-5.966,-5.9617,-5.9947,-6.0431,0.0,-5.974,-5.9483,-5.9483,-5.9483,0.0,-5.9483,-5.9483,-5.9458,-5.9282,-5.9232,-5.895,-5.7643,-5.7425,0.0,0.0,0.0,-5.5414,-5.199,0.0,0.0,0.0,0.0,0.0,0.0,0.0,0.0,0.0,-5.0053,-5.0762,-5.1675,-5.2476,-5.2698,0.0,0.0,0.0,0.0,0.0,0.0,0.0,0.0,0.0,0.0,0.0,0.0,0.0,-5.956,-5.9663,-5.9894,-5.9637,-5.9661,-6.0017,-5.9862,-5.9859,-6.006,-6.006,-5.996,-5.9784,-5.9784,-5.9659,-5.9483,-5.9483,-5.9483,-5.9483,-5.9483,-5.9483,-5.9483,-5.9483,-5.9483,-5.9328,-5.8187,-5.8525,-5.9483,-5.7019,-5.7091,-5.7235,-5.7498,-5.7307,-5.7163,-5.7163,-5.7569,-5.7784,-5.7451,-5.781,-5.7999,-5.7713,-5.7927,-5.8141,-5.831,-5.8452,-5.8523,-5.8523,-5.8141,-5.7927,-5.807,-5.7451,-5.7091,0.0,0.0,-5.6438,-5.6438,-5.6292,-5.6219,-5.6219,-5.642,-5.6495,-5.652,-5.7468,-5.8241,-5.884,-5.9583,-6.0094,-6.0375,-5.9896,-5.9971,0.0,0.0,-5.974,-5.9483,0.0,-5.9483,-5.9483,-5.9483,-5.9483,-5.9483,-5.9483,-5.9483,-5.9251,-5.8187,-5.8356,-5.8494,-5.6293,-5.7013,0.0,-5.3634,-5.3733,0.0,-4.9765,0.0,0.0,0.0,0.0,0.0,0.0,0.0,-4.9835,-5.1359,-5.1569,-5.1268,0.0,-4.9897,0.0,0.0,0.0,0.0,0.0,0.0,0.0,0.0,-5.8837,0.0,0.0,0.0,-5.9483,-5.9483,-5.9483,-5.9483,-5.9483,-5.9483,-5.9583,-5.9784,-5.9583,-5.9583,-5.9784,-5.9583,-5.9483,-5.9508,-5.8837,-5.8603,-5.8525,-5.7952,-5.7613,-5.7613,-5.7613,-5.7613,-5.7692,-5.7795,-5.8109,-5.8525,-5.7307,-5.7019,-5.6801,-5.6801,-5.6801,-5.6874,-5.6874,-5.7426,-5.7784,-5.7523,-5.8096,-5.8239,-5.7523,-5.8096,-5.8381,-5.7979,-5.8336,-5.8575,-5.8601,-5.8245,-5.8148,-5.8601,-5.7888,-5.7672,-5.8005,0.0,0.0,0.0,-5.6513,-5.6294,-5.6319,-5.6821,-5.7072,-5.7097,-5.8024,-5.8955,-5.9891,-5.9917,-6.0476,-6.1268,-6.0431,-5.9894,-5.9533,-5.9533,-5.9558,-5.9583,-5.9533,-5.9533,-5.9533,-5.9533,-5.9508,-5.9483,-5.9483,-5.9483,-5.9483,-5.9483,-5.9483,-5.9483,-5.9483,-5.9483,-5.9095,-5.7376,0.0,0.0,0.0,0.0,-4.7984,0.0,0.0,0.0,0.0,0.0,0.0,-5.1695,-5.1839,-5.103,-4.9008,0.0,0.0,0.0,0.0,0.0,0.0,0.0,-5.8777,-5.9201,-5.9405,-5.9483,0.0,0.0,-5.9483,-5.9483,-5.9483,-5.9483,-5.9405,-5.9405,-5.9604,-6.0104,-5.9604,-5.9731,-6.0311,-5.9784,-5.9533,-5.9456,-5.7637,-5.6876,-5.6797,-5.5032,-5.4301,-5.4278,-5.4301,-5.4301,-5.4685,-5.8031,-5.8109,-5.6319,-5.651,-5.6438,-5.6365,-5.6365,-5.6874,-5.7307,-5.7569,-5.7784,-5.7999,-5.8167,-5.8381,-5.8452,-5.8239,-5.8381,-5.8608,-5.8954,-5.915,-5.9333,-5.9751,-5.9632,-5.9632,-5.9777,-5.9367,-5.9148,-5.9222,-5.8488,0.0,-5.8019,-5.7673,-5.7474,-5.7474,-5.76,-5.7675,-5.77,-5.8328,-5.911,-5.9917,-6.0049,-6.038,-6.0813,-6.0355,-6.0301,-6.0603,0.0,-6.0362,-6.0688,-6.0261,-6.0111,-6.0111,-6.0111,-5.9834,-5.9483,-5.9483,-5.9483,-5.9483,-5.9483,-5.9483,-5.9483,-5.9483,-5.9483,-5.9095,-5.7376,-5.7437,-5.6842,0.0,0.0,0.0,0.0,0.0,0.0,0.0,0.0,0.0,-4.8968,-4.8507,-4.8089,0.0,0.0,0.0,-4.7512,0.0,0.0,0.0,-5.5482,-5.648,-5.5711,-5.8031,-5.9483,0.0,0.0,0.0,-5.9483,-5.9483,-5.8837,-5.7613,-5.7534,-5.7607,-5.7753,-5.7996,-5.893,-6.0311,-6.0161,-6.0111,-6.0007,-5.7783,-5.6876,-5.6741,-5.5428,-5.4623,-5.4324,-5.4691,-5.4623,-5.4441,-5.5332,-5.3706,-5.1431,-5.6219,-5.6365,-5.651,-5.6729,-5.7235,-5.7667,-5.7667,-5.7991,-5.8433,-5.8817,-5.9098,-5.9255,-5.9255,-5.9255,-5.9385,-5.9725,-5.9751,-5.9882,-6.0195,-6.0222,-6.0222,-6.0222,-6.0002,-5.9955,-5.9955,-5.9119,0.0,-5.8748,-5.8176,-5.7901,-5.7901,-5.8152,-5.8252,-5.8278,-5.883,-5.9439,-5.9972,-6.0049,-6.0251,-6.048,-6.0248,-6.0524,0.0,-6.0792,-6.104,-6.1492,-6.1165,-6.0914,-6.0688,-6.0688,-6.0487,-6.0236,-6.0236,-6.006,-5.9859,-5.9859,-5.9684,-5.9483,-5.9483,-5.9483,-5.9251,-5.8266,-5.8187,-5.7613,-5.4604,-5.3542,-5.2816,0.0,0.0,0.0,0.0,0.0,0.0,-4.8171,-4.761,0.0,0.0,0.0,0.0,0.0,-4.8422,0.0,0.0,-5.376,-5.4794,-5.4314,-5.6797,0.0,0.0,0.0,0.0,-5.8344,-5.9095,-5.8266,-5.5815,-5.6479,-5.6678,-5.6088,-5.6159,-5.6986,-5.8354,-5.8112,-5.8137,-5.8169,-5.6128,-5.5191,-5.5109,-5.3454,-5.2565,-5.2323,-5.2389,-5.2257,-5.1993,-5.1993,-5.1263,-5.0379,-5.6365,-5.6561,-5.6975,-5.7363,-5.7749,-5.7945,-5.7682,-5.8378,-5.9025,-5.9464,-5.9908,-6.0222,-6.0222,-6.0222,-6.0248,-6.0326,-6.0326,-6.0378,-6.0431,-6.0457,-6.0457,-6.0457,-6.0457,-6.0457,-6.0457,-5.9795,-5.935,0.0,-5.8554,-5.8177,-5.8127,-5.8604,-5.883,-5.8855,-5.9307,-5.9714,-6.0048,-6.0201,-6.0273,-6.0311,-6.0412,-6.0842,-6.1291,-6.1291,-6.1642,-6.2119,-6.2119,-6.1768,-6.1291,-6.1291,-6.124,-6.119,-6.119,-6.0839,-6.0358,-6.0097,-5.9929,-5.9606,-5.9298,-5.9428,-5.9583,-5.9508,-5.8344,-5.7218,-5.6956,-5.436,-5.1993,-5.1993,-5.0611,-4.9891,0.0,0.0,0.0,0.0,0.0,0.0,0.0,0.0,0.0,0.0,0.0,0.0,0.0,0.0,-5.3427,-5.3929,-5.5574,0.0,0.0,0.0,0.0,-5.6638,-5.8031,0.0,-5.3952,0.0,-5.5728,-5.4673,-5.4226,-5.4687,-5.5679,-5.5311,-5.5297,-5.5649,-5.3786,-5.3015,-5.2822,-5.0752,-4.9804,-4.9721,-4.9245,-4.9059,-4.9059,-4.9059,-5.0082,-5.1203,-5.6656,-5.6864,-5.7118,-5.7486,-5.8309,-5.8837,-5.8837,-5.9087,-5.947,-6.0013,-6.0169,-6.0222,-6.0222,-6.0222,-6.0431,-6.0927,-6.0953,0.0,0.0,0.0,0.0,-6.1659,-6.1659,-6.1659,-6.1659,-6.121,-6.0833,0.0,0.0,-5.9514,-5.9207,-5.9307,-5.9357,-5.9357,-5.9458,-5.9585,-5.9688,-6.0864,0.0,-6.0362,-6.1233,-6.1685,-6.1868,-6.1868,-6.2195,-6.2672,-6.2672,-6.232,-6.1868,-6.1868,-6.1567,-6.119,-6.119,-6.1115,-6.0776,-5.9179,-5.9774,-6.0447,-5.8496,-5.9034,-6.006,-5.9608,-5.9251,-5.8681,-5.7218,-5.5332,-5.387,-5.387,-5.2492,-5.1347,-5.1682,0.0,0.0,0.0,0.0,0.0,0.0,0.0,0.0,0.0,0.0,-4.8461,0.0,0.0,0.0,0.0,0.0,0.0,0.0,0.0,0.0,0.0,-5.5009,0.0,0.0,0.0,-5.2536,-5.2292,-5.2601,-5.3683,-5.5256,-5.5518,-5.5725,-5.571,-5.3786,-5.3015,-5.2843,-5.1001,-5.0094,-4.9721,-4.9245,-4.9059,-4.9059,-4.9059,-4.9565,-5.005,-5.7426,-5.7664,-5.8044,-5.8782,-5.9234,-5.9618,-6.005,-6.0237,-6.0378,-6.064,-6.0953,-6.1136,-6.1136,-6.1136,-6.1241,-6.1529,-6.1555,-6.1685,-6.1947,-6.1973,-6.1973,-6.1973,-6.1973,-6.1973,-6.1973,-6.1597,-6.1193,-6.0737,0.0,-5.9869,-5.9483,-5.9483,-5.9483,-5.9508,-5.9784,-5.991,-5.996,0.0,0.0,-6.1215,-6.1731,-6.2104,-6.2421,-6.2421,-6.2596,-6.2822,-6.2822,-6.2647,-6.2421,-6.2421,-6.2245,-6.2044,-6.2044,-6.1843,-6.1432,-6.0496,-6.0725,-6.0692,-5.858,-5.8669,-5.9214,-5.8674,-5.8526,-5.8216,-5.7107,-5.5574,-5.4033,-5.3153,-5.1598,-5.0379,-5.0379,-4.9636,0.0,0.0,0.0,0.0,0.0,0.0,0.0,0.0,0.0,0.0,0.0,0.0,0.0,0.0,0.0,0.0,0.0,0.0,0.0,0.0,0.0,0.0,0.0,0.0,0.0,-5.0379,-5.0592,-5.1337,-5.2339,-5.2819,-5.3168,-5.3343,-5.2643,-5.227,-5.1927,-5.061,-4.9804,-4.9369,-4.9162,-4.9059,-4.91,-4.9328,-4.9576,-4.9849,-5.828,-5.8519,-5.9001,-6.0111,-6.0142,-6.0327,-6.1066,-6.1323,-6.145,-6.1319,-6.179,-6.2156,-6.2156,-6.226,-6.2339,-6.2339,-6.2339,-6.2339,-6.2339,-6.2339,-6.2339,-6.2339,-6.2339,-6.2339,-6.2339,-6.1934,-6.1502,0.0,0.0,0.0,-5.9663,-5.9686,-5.9734,-5.9885,-6.0311,0.0,0.0,0.0,-6.1617,-6.2019,-6.2144,-6.2446,-6.2822,-6.2822,-6.2822,-6.2822,-6.2822,-6.2822,-6.2822,-6.2822,-6.2822,-6.2822,-6.2822,-6.2521,-6.2089,-6.1683,-6.1546,-6.0986,-5.868,-5.8304,-5.8348,-5.7414,-5.719,-5.7095,-5.6748,-5.5265,-5.3558,-5.2169,-5.0358,-4.9059,-4.9059,-4.9059,0.0,0.0,0.0,0.0,0.0,0.0,0.0,0.0,0.0,0.0,0.0,0.0,0.0,0.0,0.0,-5.1179,-5.1179,-5.2409,0.0,0.0,0.0,-5.1849,-4.9144,0.0,-5.0464,0.0,-4.9059,-4.9245,-4.9704,-5.0073,-5.0466,-5.0839,-5.1315,-5.1253,-5.0756,-5.0052,-4.9494,-4.9059,-4.9059,-4.9121,-4.9245,-4.9618,-4.9887,-5.0052,-5.8968,-5.9131,-5.9513,-6.0338,-6.0927,-6.129,-6.1342,-6.2086,-6.2469,-6.1973,-6.2391,-6.2757,-6.2757,-6.3201,-6.3515,-6.3515,-6.3515,-6.3515,-6.3515,-6.3515,-6.3515,-6.3515,-6.3515,-6.3515,-6.3515,-6.3129,-6.2561,0.0,0.0,0.0,0.0,-6.0166,-6.0512,0.0,0.0,0.0,0.0,-6.1692,-6.1943,-6.2044,-6.2546,-6.2772,-6.2822,-6.2822,-6.2822,-6.2822,-6.2822,-6.2822,-6.2822,-6.2822,-6.2822,-6.2822,-6.2822,-6.2797,-6.242,-6.0778,-6.1417,-6.1786,-5.7804,-5.7831,-5.8569,-5.6448,-5.5915,-5.5892,-5.5846,-5.4142,-5.2506,-5.2337,-5.0592,-4.9059,-4.9059,-4.9059,-4.9059,0.0,0.0,0.0,0.0,0.0,0.0,0.0,0.0,0.0,0.0,-4.9059,0.0,0.0,-4.923,-4.9315,-4.9315,-4.9465,-4.9465,-4.9315,0.0,-4.9401,-4.9059,-4.923,0.0,-4.9059,-4.9059,-4.908,-4.9142,-4.9618,-4.9845,-4.9908,-5.0363,-5.0301,-4.9887,-4.9783,-4.9494,-4.9059,-4.9059,-4.9328,-4.9701,-4.9742,-5.028,-5.0984,-5.9931,-6.0245,-6.0809,-6.17,0.0,0.0,0.0,-6.3099,-6.3254,-6.3018,-6.3201,-6.3332,-6.3332,-6.3541,-6.3595,-6.3285,-6.3285,-6.3208,-6.2975,-6.2897,-6.3052,-6.3285,-6.3285,-6.3285,-6.3285,-6.313,-6.2638,0.0,0.0,0.0,0.0,0.0,0.0,0.0,0.0,-6.1667,-6.1718,-6.227,-6.2496,-6.2521,-6.2747,-6.2822,-6.2822,-6.2822,-6.2822,-6.2822,-6.2822,-6.2822,-6.2822,-6.2822,-6.2822,-6.2822,-6.2822,-6.2822,-6.2659,-6.1977,-6.1457,-6.0553,-5.7763,-5.6668,-5.6124,-5.4856,-5.4487,-5.4398,-5.4109,-5.3376,-5.2497,-5.1399,-5.0283,-4.939,-4.9121,-4.9059,-4.9059,0.0,0.0,0.0,0.0,0.0,0.0,0.0,0.0,0.0,0.0,0.0,-4.9059,0.0,0.0,0.0,-4.9059,-4.9059,0.0,-4.9059,0.0,-4.9059,-4.9059,-4.9059,-4.9059,-4.9059,-4.9059,-4.9059,-4.908,-4.9621,-4.9908,-5.0156,-5.0052,-4.9928,-4.9742,-4.9538,-4.9224,-4.91,-4.9369,-4.9597,-4.9825,-5.0363,-5.0798,-5.115,-6.0982,0.0,-6.1936,0.0,-6.3071,-6.3201,-6.362,-6.3829,-6.3933,-6.3933,-6.4064,-6.4116,-6.3933,-6.4064,-6.4091,-6.3701,-6.3701,-6.3622,-6.3309,-6.3309,-6.3387,-6.3701,-6.3701,0.0,-6.3544,-6.3387,-6.2996,-6.2236,-6.1973,0.0,0.0,0.0,0.0,0.0,-6.2069,-6.2245,-6.227,-6.2672,-6.2822,-6.2822,-6.2822,-6.2822,-6.2822,-6.2822,-6.2822,-6.2822,-6.2822,-6.2822,-6.2822,-6.2822,-6.2822,-6.2822,-6.2822,-6.2822,-6.2822,-6.2822,-6.154,-5.9655,-5.7847,-5.5946,-5.4411,-5.3359,-5.3097,-5.3011,-5.2755,-5.2583,-5.2019,-5.0689,-5.0073,-4.9746,-4.9328,-4.9162,-4.9059,-4.9059,0.0,0.0,0.0,0.0,0.0,0.0,-4.9059,-4.9059,-4.9059,-4.9059,0.0,0.0,0.0,0.0,0.0,0.0,0.0,0.0,0.0,0.0,0.0,-4.9059,-4.9059,-4.9059,-4.9059,-4.9059,-4.908,-4.9621,-4.9928,-5.0218,-5.0032,-4.9949,-4.9928,-4.9597,-4.9473,-4.9494,-4.9825,-5.0032,-5.0239,-5.088,-5.1191,-5.1357,-6.2069,-6.2172,-6.2533,-6.349,-6.3672,-6.3672,-6.3672,-6.4168,-6.4534,-6.4534,-6.5005,-6.5136,-6.4587,-6.5031,-6.5371,-6.5371,-6.5371,-6.5371,-6.5371,-6.5371,-6.5371,0.0,0.0,-6.5212,-6.4761,-6.436,-6.3837,-6.3274,0.0,0.0,-6.1824,0.0,-6.2295,-6.2822,-6.2822,-6.2822,-6.2822,-6.2822,-6.2822,-6.2822,-6.2822,-6.2822,-6.2822,-6.2822,-6.2822,-6.2822,-6.2822,-6.2822,-6.2822,-6.2822,-6.2822,-6.2822,-6.2822,-6.2822,-6.2822,-6.2822,-6.154,-5.9655,-5.7847,-5.5946,-5.4145,-5.2312,-5.1791,-5.1791,-5.1791,-5.1439,-5.0963,-5.0508,-5.0073,-4.9849,-4.9742,-4.9369,-4.9059,-4.9059,0.0,0.0,0.0,0.0,0.0,0.0,-4.9059,-4.9059,-4.9059,0.0,0.0,0.0,0.0,0.0,0.0,0.0,0.0,-4.9059,-4.9059,0.0,-4.9059,-4.9059,-4.9059,-4.9059,-4.9059,-4.9059,-4.908,-4.9621,-4.9849,-4.9783,-5.0218,-5.0404,-5.0404,-5.0404,-5.0404,-5.0404,-5.0404,-5.0694,-5.1108,-5.1108,-5.1398,-5.1791,-6.3204,-6.3257,-6.3439,-6.4168,-6.4273,-6.4378,-6.477,-6.5005,-6.5109,-6.5109,-6.5266,-6.5318,-6.5136,-6.5266,-6.5318,0.0,-6.5,-6.484,0.0,-6.4521,-6.4681,-6.5,-6.5,-6.492,-6.4786,-6.436,-6.3882,-6.3461,0.0,0.0,0.0,-6.2577,-6.2672,-6.2822,-6.2822,-6.2822,-6.2822,-6.2822,-6.2822,-6.2822,-6.2822,-6.2822,-6.2822,-6.2822,-6.2822,-6.2822,-6.2822,-6.2822,-6.2822,-6.2822,-6.2822,-6.2822,-6.2822,-6.1977,-6.0935,-6.0935,-5.8785,-5.6207,-5.5597,-5.4145,-5.2581,-5.1972,-5.1791,-5.1791,-5.1791,-5.1688,-5.1439,-5.0984,-5.0777,-5.0591,-5.0259,-4.9845,-4.9535,-4.9535,0.0,0.0,0.0,0.0,0.0,0.0,-4.9059,-4.9059,0.0,-4.9059,0.0,0.0,0.0,0.0,0.0,0.0,0.0,0.0,-4.9059,0.0,-4.9059,-4.9059,-4.9059,-4.9059,-4.9059,-4.9224,-4.9535,-4.968,-4.9928,-5.0218,-5.0363,-5.0425,-5.0425,-5.0425,-5.0425,-5.0446,-5.0756,-5.0984,-5.115,-5.146,-5.1667,-5.1791,-6.3959,-6.4012,-6.4168,-6.4743,-6.4848,-6.4979,-6.5318,-6.5371,-6.5371,-6.5371,-6.5371,-6.5318,-6.5159,-6.5318,0.0,-6.5079,-6.5,-6.484,-6.436,-6.436,-6.4466,-6.4547,-6.4547,-6.4441,-6.428,0.0,0.0,-6.323,-6.2904,-6.2822,-6.2822,-6.2822,-6.2822,-6.2822,-6.2822,-6.2822,-6.2822,-6.2822,-6.2822,-6.2822,-6.2822,-6.2822,-6.2822,-6.2822,-6.2822,-6.2822,-6.2822,-6.2822,-6.2822,-6.2822,-6.2822,-6.2659,-6.1977,-6.0518,-5.9209,-5.9907,-5.7504,-5.4587,-5.4587,-5.3187,-5.1791,-5.1791,-5.1791,-5.1791,-5.1791,-5.1791,-5.1729,-5.1439,-5.1232,-5.1025,-5.0736,-5.0301,-5.0011,-5.0011,-4.9618,-4.9328,-4.9328,0.0,0.0,0.0,0.0,0.0,0.0,-4.9059,0.0,0.0,0.0,0.0,0.0,0.0,0.0,-4.9059,-4.9059,0.0,-4.9059,-4.9059,-4.9059,-4.9059,-4.9245,-4.9559,-4.9763,-5.0115,-5.0425,-5.0694,-5.086,-5.0943,-5.0943,-5.0943,-5.0943,-5.0963,-5.1253,-5.1377,-5.1398,-5.1688,-5.1791,-5.1791,-6.4482,-6.4587,0.0,0.0,-6.5371,0.0,-6.5371,-6.5371,-6.5371,-6.5371,-6.5371,-6.5238,-6.4866,-6.5159,-6.5371,-6.5397,0.0,0.0,0.0,-6.4786,-6.4547,-6.4119,-6.4119,-6.3878,-6.3554,-6.3473,-6.323,-6.2822,-6.2822,-6.2822,-6.2822,-6.2822,-6.2822,-6.2822,-6.2822,-6.2822,-6.2822,-6.2822,-6.2822,-6.2822,-6.2822,-6.2822,-6.2822,-6.2822,-6.2822,-6.2822,-6.2822,-6.2822,-6.2741,-6.2659,-6.2577,-6.2306,-6.0518,-5.8615,-5.7481,-5.9233,-5.716,-5.441,-5.441,-5.3098,-5.1791,-5.1791,-5.1791,-5.1791,-5.1791,-5.1791,-5.1791,-5.1791,-5.146,-5.117,-5.117,-5.0777,-5.0466,-5.0466,-5.0094,-4.9804,-4.9804,0.0,0.0,0.0,0.0,0.0,0.0,-4.9059,-4.9059,0.0,0.0,0.0,0.0,0.0,-4.9059,-4.9059,-4.9059,-4.9059,-4.9059,-4.9059,-4.908,-4.9121,-4.9556,-4.9783,-4.9887,-5.0715,-5.1129,-5.117,-5.1605,-5.1791,-5.1791,-5.1791,-5.1791,-5.1791,-5.1791,-5.1791,-5.1791,-5.1791,-5.1791,-5.1791,0.0,0.0,-6.5214,-6.5371,-6.5371,-6.5371,-6.5371,-6.5371,-6.5371,-6.5371,-6.5371,-6.5397,-6.5238,-6.5318,-6.5318,-6.5,-6.492,-6.4761,-6.4306,-6.4306,-6.4225,-6.4119,-6.4119,-6.4064,-6.3958,-6.3635,-6.323,-6.2822,-6.2822,-6.2822,-6.2822,-6.2822,-6.2822,-6.2822,-6.2822,-6.2822,-6.2822,-6.2822,-6.2822,-6.2822,-6.2822,-6.2822,-6.2822,-6.2822,-6.2822,-6.2822,-6.2822,-6.2822,-6.2577,-6.1208,-6.0768,-6.0434,-5.853,-5.6728,-5.5356,-5.5794,-5.4233,-5.2492,-5.2492,-5.2152,-5.1791,-5.1791,-5.1791,-5.1791,-5.1791,-5.1791,-5.1791,-5.1791,-5.1708,-5.1646,-5.1646,-5.1253,-5.0943,-5.0943,-5.057,-5.0259,-5.0259,0.0,0.0,0.0,-4.9287,-4.9059,-4.9059,-4.9059,-4.9059,0.0,0.0,0.0,0.0,-4.9059,-4.9059,-4.9059,-4.9059,-4.9059,-4.9059,-4.9059,-4.9245,-4.9684,-4.9787,-5.0115,-5.0798,-5.1005,-5.1315,-5.1646,-5.175,-5.1791,-5.1791,-5.1791,-5.1791,-5.1791,-5.1791,-5.1791,-5.1791,-5.1791,-5.1791,-5.1791,-6.5371,-6.5371,-6.5318,-6.5159,-6.5159,-6.5079,-6.484,-6.5,-6.5079,-6.484,-6.5,-6.5079,-6.484,-6.5,-6.484,-6.428,-6.4521,-6.4627,-6.4119,-6.3958,-6.3797,-6.3797,-6.3635,-6.3473,-6.3473,-6.3311,-6.3067,-6.2822,-6.2822,-6.2822,-6.2822,-6.2822,-6.2822,-6.2822,-6.2822,-6.2822,-6.2822,-6.2822,-6.2822,-6.2822,-6.2822,-6.2822,-6.2822,-6.2822,-6.2822,-6.2822,-6.2822,-6.2822,-6.2659,-6.1622,-6.0768,-5.9739,-5.7933,-5.6033,-5.441,-5.3544,-5.2581,-5.1791,-5.1791,-5.1791,-5.1791,-5.1791,-5.1791,-5.1791,-5.1791,-5.1791,-5.1791,-5.1791,-5.1791,-5.1791,-5.1791,-5.1584,-5.1419,-5.1419,-5.1046,-5.0736,-5.0736,-5.0342,0.0,-5.0052,-4.9845,-4.968,-4.968,-4.9494,-4.939,-4.939,0.0,0.0,-4.9059,-4.9059,-4.9059,-4.9059,-4.9059,-4.9059,-4.9059,-4.9266,-4.9618,-5.0073,-5.028,-5.0632,-5.1108,-5.1336,-5.1564,-5.1791,-5.1791,-5.1791,-5.1791,-5.1791,-5.1791,-5.1791,-5.1791,-5.1791,-5.1791,-5.1791,-5.1791,-5.1791,-6.5371,-6.5371,-6.5238,-6.4866,-6.4786,-6.4627,-6.4119,-6.4466,-6.4521,-6.4119,-6.4466,-6.4547,-6.4119,-6.4466,-6.436,-6.3554,-6.42,-6.436,-6.3958,-6.3554,-6.3392,-6.3392,-6.2985,-6.2822,-6.2822,-6.2822,-6.2822,-6.2822,-6.2822,-6.2822,-6.2822,-6.2822,-6.2822,-6.2822,-6.2822,-6.2822,-6.2822,-6.2822,-6.2822,-6.2822,-6.2822,-6.2822,-6.2822,-6.2822,-6.2822,-6.2822,-6.2822,-6.2822,-6.2741,-6.2495,-6.1184,-5.9317,-5.7504,-5.5597,-5.3878,-5.2242,-5.1791,-5.1791,-5.1791,-5.1791,-5.1791,-5.1791,-5.1791,-5.1791,-5.1791,-5.1791,-5.1791,-5.1791,-5.1791,-5.1791,-5.1791,-5.1791,-5.1791,-5.1791,-5.146,-5.1212,-5.1212,0.0,-5.0529,-5.0529,-5.0466,-5.0425,-5.0425,-5.0073,-4.9866,-4.9866,-4.9494,-4.9266,0.0,-4.9266,-4.9266,-4.9266,-4.9204,-4.9204,-4.9266,-4.9659,-5.0073,-5.0529,-5.0922,-5.115,-5.1232,-5.1626,-5.1791,-5.1791,-5.1791,-5.1791,-5.1791,-5.1791,-5.1791,-5.1791,-5.1791,-5.1791,-5.1791,-5.1791,-5.1791,-5.1791,-6.5371,-6.5371,-6.5238,-6.4866,-6.4786,-6.4627,-6.4119,-6.4119,-6.42,-6.4119,-6.4119,-6.42,-6.4119,-6.4119,-6.4039,-6.3554,-6.3635,-6.3473,-6.3067,-6.2904,-6.2904,-6.2904,-6.2822,-6.2822,-6.2822,-6.2822,-6.2822,-6.2822,-6.2822,-6.2822,-6.2822,-6.2822,-6.2822,-6.2822,-6.2822,-6.2822,-6.2822,-6.2822,-6.2822,-6.2822,-6.2822,-6.2822,-6.2822,-6.2822,-6.2822,-6.2822,-6.2822,-6.2822,-6.2577,-6.1018,-5.9293,-5.7395,-5.5597,-5.3701,-5.2152,-5.1882,-5.1791,-5.1791,-5.1791,-5.1791,-5.1791,-5.1791,-5.1791,-5.1791,-5.1791,-5.1791,-5.1791,-5.1791,-5.1791,-5.1791,-5.1791,-5.1791,-5.1791,-5.1791,-5.1729,-5.1688,-5.1688,0.0,-5.1005,-5.1005,-5.0653,-5.0425,-5.0425,-5.0363,-5.0322,-5.0322,-5.0239,-5.0218,-5.0218,-5.0218,-5.0218,-5.0218,-4.9845,-4.9825,-5.0197,-5.028,-5.0549,-5.1005,-5.1087,-5.1315,-5.1688,-5.1771,-5.1791,-5.1791,-5.1791,-5.1791,-5.1791,-5.1791,-5.1791,-5.1791,-5.1791,-5.1791,-5.1791,-5.1791,-5.1791,-5.1791,-6.5079,-6.484,-6.4601,-6.42,-6.4119,-6.3958,-6.3473,-6.3635,-6.3716,-6.3392,-6.3635,-6.3797,-6.3797,-6.3797,-6.3716,-6.3554,-6.3473,-6.3311,-6.2822,-6.2822,-6.2904,-6.3148,-6.2904,-6.2822,-6.2822,-6.2822,-6.2822,-6.2822,-6.2822,-6.2822,-6.2822,-6.2822,-6.2822,-6.2822,-6.2822,-6.2822,-6.2822,-6.2822,-6.2822,-6.2822,-6.2822,-6.2822,-6.2822,-6.2822,-6.2822,-6.2822,-6.2822,-6.2822,-6.2495,-6.0685,-5.887,-5.6964,-5.5181,-5.3277,-5.1791,-5.1791,-5.1791,-5.1791,-5.1791,-5.1791,-5.1791,-5.1791,-5.1791,-5.1791,-5.1791,-5.1791,-5.1791,-5.1791,-5.1791,-5.1791,-5.1791,-5.1791,-5.1791,-5.1791,-5.1791,0.0,0.0,-5.1626,-5.1481,-5.1481,-5.1294,-5.117,-5.117,-5.0943,-5.0798,-5.0798,-5.0549,-5.0425,-5.0425,-5.0425,-5.0529,-5.0777,-5.0342,-5.0342,-5.0798,-5.0798,-5.1025,-5.1481,-5.1481,-5.1584,-5.1791,-5.1791,-5.1791,-5.1791,-5.1791,-5.1791,-5.1791,-5.1791,-5.1791,-5.1791,-5.1791,-5.1791,-5.1791,-5.1791,-5.1791,-5.1791,-6.4866,-6.4547,-6.4119,-6.3554,-6.3473,-6.3311,-6.2904,-6.3067,-6.323,-6.2822,-6.3148,-6.3311,-6.3311,-6.3311,-6.3311,-6.3311,-6.3311,-6.3148,-6.2822,-6.2822,-6.2985,-6.3311,-6.2985,-6.2822,-6.2822,-6.2822,-6.2822,-6.2822,-6.2822,-6.2822,-6.2822,-6.2822,-6.2822,-6.2822,-6.2822,-6.2822,-6.2822,-6.2822,-6.2822,-6.2822,-6.2822,-6.2822,-6.2822,-6.2822,-6.2822,-6.2822,-6.2822,-6.2822,-6.2495,-6.0685,-5.887,-5.6964,-5.5181,-5.3277,-5.1791,-5.1791,-5.1791,-5.1791,-5.1791,-5.1791,-5.1791,-5.1791,-5.1791,-5.1791,-5.1791,-5.1791,-5.1791,-5.1791,-5.1791,-5.1791,-5.1791,-5.1791,-5.1791,-5.1791,0.0,0.0,0.0,-5.1791,-5.1791,-5.1791,-5.1791,-5.1791,-5.1791,-5.1481,-5.1274,-5.1274,-5.0943,-5.0736,-5.0736,-5.0736,-5.0901,-5.1253,-5.0922,-5.0901,-5.1274,-5.1274,-5.1439,-5.1791,-5.1791,-5.1791,-5.1791,-5.1791,-5.1791,-5.1791,-5.1791,-5.1791,-5.1791,-5.1791,-5.1791,-5.1791,-5.1791,-5.1791,-5.1791,-5.1791,-5.1791,-5.1791,-6.4866,-6.4786,-6.4441,-6.3635,-6.3473,-6.3311,-6.2904,-6.2822,-6.2822,-6.2822,-6.2822,-6.2822,-6.2822,-6.2822,-6.2822,-6.2822,-6.2822,-6.2822,-6.2822,-6.2822,-6.2822,-6.2822,-6.2822,-6.2822,-6.2822,-6.2822,-6.2822,-6.2822,-6.2822,-6.2822,-6.2822,-6.2822,-6.2822,-6.2822,-6.2822,-6.2822,-6.2822,-6.2822,-6.2822,-6.2822,-6.2822,-6.2822,-6.2822,-6.2822,-6.2822,-6.2822,-6.2822,-6.2822,-6.2495,-6.0685,-5.887,-5.6964,-5.5181,-5.3277,-5.1791,-5.1791,-5.1791,-5.1791,-5.1791,-5.1791,-5.1791,-5.1791,-5.1791,-5.1791,-5.1791,-5.1791,-5.1791,-5.1791,-5.1791,-5.1791,-5.1791,-5.1791,-5.1791,-5.1791,0.0,0.0,-5.1791,-5.1791,-5.1791,-5.1791,-5.1791,-5.1791,-5.1791,-5.1771,-5.175,-5.175,-5.1729,-5.1708,-5.1708,-5.1708,-5.1708,-5.175,-5.1708,-5.1708,-5.175,-5.175,-5.1771,-5.1791,-5.1791,-5.1791,-5.1791,-5.1791,-5.1791,-5.1791,-5.1791,-5.1791,-5.1791,-5.1791,-5.1791,-5.1791,-5.1791,-5.1791,-5.1791,-5.1791,-5.1791,-5.1791,-6.4441,-6.4119,-6.3797,-6.3148,-6.3067,-6.2985,-6.2822,-6.2822,-6.2822,-6.2822,-6.2822,-6.2822,-6.2822,-6.2822,-6.2822,-6.2822,-6.2822,-6.2822,-6.2822,-6.2822,-6.2822,-6.2822,-6.2822,-6.2822,-6.2822,-6.2822,-6.2822,-6.2822,-6.2822,-6.2822,-6.2822,-6.2822,-6.2822,-6.2822,-6.2822,-6.2822,-6.2822,-6.2822,-6.2822,-6.2822,-6.2822,-6.2822,-6.2822,-6.2822,-6.2822,-6.2822,-6.2822,-6.2059,-6.0851,-5.8955,-5.716,-5.5247,-5.3455,-5.2402,-5.1791,-5.1791,-5.1791,-5.1791,-5.1791,-5.1791,-5.1791,-5.1791,-5.1791,-5.1791,-5.1791,-5.1791,-5.1791,-5.1791,-5.1791,-5.1791,-5.1791,-5.1791,-5.1791,-5.1791,0.0,-5.1791,-5.1791,-5.1791,-5.1791,-5.1791,-5.1791,-5.1791,-5.1791,-5.1791,-5.1791,-5.1791,-5.1791,-5.1791,-5.1791,-5.1791,-5.1791,-5.1791,-5.1791,-5.1791,-5.1791,-5.1791,-5.1791,-5.1791,-5.1791,-5.1791,-5.1791,-5.1791,-5.1791,-5.1791,-5.1791,-5.1791,-5.1791,-5.1791,-5.1791,-5.1791,-5.1791,-5.1791,-5.1791,-5.1791,-5.1791,-5.175,-6.42,-6.3797,-6.3311,-6.2904,-6.2822,-6.2822,-6.2822,-6.2822,-6.2822,-6.2822,-6.2822,-6.2822,-6.2822,-6.2822,-6.2822,-6.2822,-6.2822,-6.2822,-6.2822,-6.2822,-6.2822,-6.2822,-6.2822,-6.2822,-6.2822,-6.2822,-6.2822,-6.2822,-6.2822,-6.2822,-6.2822,-6.2822,-6.2822,-6.2822,-6.2822,-6.2822,-6.2822,-6.2822,-6.2822,-6.2822,-6.2822,-6.2822,-6.2822,-6.2822,-6.2822,-6.2741,-6.2142,-6.1125,-5.9739,-5.7246,-5.5597,-5.4233,-5.2402,-5.1791,-5.1791,-5.1791,-5.1791,-5.1791,-5.1791,-5.1791,-5.1791,-5.1791,-5.1791,-5.1791,-5.1791,-5.1791,-5.1791,-5.1791,-5.1791,-5.1791,-5.1791,-5.1791,-5.1791,-5.1791,-5.1791,-5.1791,-5.1791,-5.1791,-5.1791,-5.1791,-5.1791,-5.1791,-5.1791,-5.1791,-5.1791,-5.1791,-5.1791,-5.1791,-5.1791,-5.1791,-5.1791,-5.1791,-5.1791,-5.1791,-5.1791,-5.1791,-5.1791,-5.1791,-5.1791,-5.1791,-5.1791,-5.1791,-5.1791,-5.1791,-5.1791,-5.1791,-5.1791,-5.1791,-5.1791,-5.1791,-5.1791,-5.1791,-5.1791,-5.1791,-5.1791,-5.1729,-6.4225,-6.3797,-6.3311,-6.2904,-6.2822,-6.2822,-6.2822,-6.2822,-6.2822,-6.2822,-6.2822,-6.2822,-6.2822,-6.2822,-6.2822,-6.2822,-6.2822,-6.2822,-6.2822,-6.2822,-6.2822,-6.2822,-6.2822,-6.2822,-6.2822,-6.2822,-6.2822,-6.2822,-6.2822,-6.2822,-6.2822,-6.2822,-6.2822,-6.2822,-6.2822,-6.2822,-6.2822,-6.2822,-6.2822,-6.2822,-6.2822,-6.2822,-6.2822,-6.2822,-6.2822,-6.2577,-6.0768,-6.0099,-5.9486,-5.5859,-5.4587,-5.4233,-5.2402,-5.1791,-5.1791,-5.1791,-5.1791,-5.1791,-5.1791,-5.1791,-5.1791,-5.1791,-5.1791,-5.1791,-5.1791,-5.1791,-5.1791,-5.1791,-5.1791,-5.1791,-5.1791,-5.1791,-5.1791,-5.1791,-5.1791,-5.1791,-5.1791,-5.1791,-5.1791,-5.1791,-5.1791,-5.1791,-5.1791,-5.1791,-5.1791,-5.1791,-5.1791,-5.1791,-5.1791,-5.1791,-5.1791,-5.1791,-5.1791,-5.1791,-5.1791,-5.1791,-5.1791,-5.1791,-5.1791,-5.1791,-5.1791,-5.1791,-5.1791,-5.1791,-5.1791,-5.1791,-5.1791,-5.1791,-5.1791,-5.1791,-5.1791,-5.1791,-5.1791,-5.1791,-5.1791,-5.1729,-6.3716,-6.3554,-6.3311,-6.2904,-6.2822,-6.2822,-6.2822,-6.2822,-6.2822,-6.2822,-6.2822,-6.2822,-6.2822,-6.2822,-6.2822,-6.2822,-6.2822,-6.2822,-6.2822,-6.2822,-6.2822,-6.2822,-6.2822,-6.2822,-6.2822,-6.2822,-6.2822,-6.2822,-6.2822,-6.2822,-6.2822,-6.2822,-6.2822,-6.2822,-6.2822,-6.2822,-6.2822,-6.2822,-6.2822,-6.2822,-6.2822,-6.2822,-6.2822,-6.2822,-6.2822,-6.2741,-6.2224,-6.0326,-5.8018,-5.6901,-5.4741,-5.2581,-5.1972,-5.1791,-5.1791,-5.1791,-5.1791,-5.1791,-5.1791,-5.1791,-5.1791,-5.1791,-5.1791,-5.1791,-5.1791,-5.1791,-5.1791,-5.1791,-5.1791,-5.1791,-5.1791,-5.1791,-5.1791,-5.1791,-5.1791,-5.1791,-5.1791,-5.1791,-5.1791,-5.1791,-5.1791,-5.1791,-5.1791,-5.1791,-5.1791,-5.1791,-5.1791,-5.1791,-5.1791,-5.1791,-5.1791,-5.1791,-5.1791,-5.1791,-5.1791,-5.1791,-5.1791,-5.1791,-5.1791,-5.1791,-5.1791,-5.1791,-5.1791,-5.1791,-5.1791,-5.1791,-5.1791,-5.1791,-5.1791,-5.1791,-5.1791,-5.1791,-5.1791,-5.1791,-5.1584,-5.1253,-6.3554,-6.3311,-6.3148,-6.2822,-6.2822,-6.2822,-6.2822,-6.2822,-6.2822,-6.2822,-6.2822,-6.2822,-6.2822,-6.2822,-6.2822,-6.2822,-6.2822,-6.2822,-6.2822,-6.2822,-6.2822,-6.2822,-6.2822,-6.2822,-6.2822,-6.2822,-6.2822,-6.2822,-6.2822,-6.2822,-6.2822,-6.2822,-6.2822,-6.2822,-6.2822,-6.2822,-6.2822,-6.2822,-6.2822,-6.2822,-6.2822,-6.2822,-6.2822,-6.2822,-6.2822,-6.2741,-6.1977,-5.9823,-5.7223,-5.6468,-5.4211,-5.1791,-5.1791,-5.1791,-5.1791,-5.1791,-5.1791,-5.1791,-5.1791,-5.1791,-5.1791,-5.1791,-5.1791,-5.1791,-5.1791,-5.1791,-5.1791,-5.1791,-5.1791,-5.1791,-5.1791,-5.1791,-5.1791,-5.1791,-5.1791,-5.1791,-5.1791,-5.1791,-5.1791,-5.1791,-5.1791,-5.1791,-5.1791,-5.1791,-5.1791,-5.1791,-5.1791,-5.1791,-5.1791,-5.1791,-5.1791,-5.1791,-5.1791,-5.1791,-5.1791,-5.1791,-5.1791,-5.1791,-5.1791,-5.1791,-5.1791,-5.1791,-5.1791,-5.1791,-5.1791,-5.1791,-5.1791,-5.1791,-5.1791,-5.1791,-5.1791,-5.1791,-5.1791,-5.1791,-5.1626,-5.1315,-6.3473,-6.3067,-6.2822,-6.2822,-6.2822,-6.2822,-6.2822,-6.2822,-6.2822,-6.2822,-6.2822,-6.2822,-6.2822,-6.2822,-6.2822,-6.2822,-6.2822,-6.2822,-6.2822,-6.2822,-6.2822,-6.2822,-6.2822,-6.2822,-6.2822,-6.2822,-6.2822,-6.2822,-6.2822,-6.2822,-6.2822,-6.2822,-6.2822,-6.2822,-6.2822,-6.2822,-6.2822,-6.2822,-6.2822,-6.2822,-6.2822,-6.2822,-6.2822,-6.2822,-6.2822,-6.2577,-6.0768,-5.887,-5.6964,-5.5005,-5.3187,-5.1791,-5.1791,-5.1791,-5.1791,-5.1791,-5.1791,-5.1791,-5.1791,-5.1791,-5.1791,-5.1791,-5.1791,-5.1791,-5.1791,-5.1791,-5.1791,-5.1791,-5.1791,-5.1791,-5.1791,-5.1791,-5.1791,-5.1791,-5.1791,-5.1791,-5.1791,-5.1791,-5.1791,-5.1791,-5.1791,-5.1791,-5.1791,-5.1791,-5.1791,-5.1791,-5.1791,-5.1791,-5.1791,-5.1791,-5.1791,-5.1791,-5.1791,-5.1791,-5.1791,-5.1791,-5.1791,-5.1791,-5.1791,-5.1791,-5.1791,-5.1791,-5.1791,-5.1791,-5.1791,-5.1791,-5.1791,-5.1791,-5.1791,-5.1791,-5.1791,-5.1791,-5.1791,-5.1791,-5.1771,-5.1667,-6.2985,-6.2904,-6.2822,-6.2822,-6.2822,-6.2822,-6.2822,-6.2822,-6.2822,-6.2822,-6.2822,-6.2822,-6.2822,-6.2822,-6.2822,-6.2822,-6.2822,-6.2822,-6.2822,-6.2822,-6.2822,-6.2822,-6.2822,-6.2822,-6.2822,-6.2822,-6.2822,-6.2822,-6.2822,-6.2822,-6.2822,-6.2822,-6.2822,-6.2822,-6.2822,-6.2822,-6.2822,-6.2822,-6.2822,-6.2822,-6.2822,-6.2822,-6.2822,-6.2822,-6.2822,-6.2577,-6.0768,-5.887,-5.6791,-5.3523,-5.2152,-5.1791,-5.1791,-5.1791,-5.1791,-5.1791,-5.1791,-5.1791,-5.1791,-5.1791,-5.1791,-5.1791,-5.1791,-5.1791,-5.1791,-5.1791,-5.1791,-5.1791,-5.1791,-5.1791,-5.1791,-5.1791,-5.1791,-5.1791,-5.1791,-5.1791,-5.1791,-5.1791,-5.1791,-5.1791,-5.1791,-5.1791,-5.1791,-5.1791,-5.1791,-5.1791,-5.1791,-5.1791,-5.1791,-5.1791,-5.1791,-5.1791,-5.1791,-5.1791,-5.1791,-5.1791,-5.1791,-5.1791,-5.1791,-5.1791,-5.1791,-5.1791,-5.1791,-5.1791,-5.1791,-5.1791,-5.1791,-5.1791,-5.1791,-5.1791,-5.1791,-5.1791,-5.1791,-5.1791,-5.1564,-5.1191,-6.2822,-6.2822,-6.2822,-6.2822,-6.2822,-6.2822,-6.2822,-6.2822,-6.2822,-6.2822,-6.2822,-6.2822,-6.2822,-6.2822,-6.2822,-6.2822,-6.2822,-6.2822,-6.2822,-6.2822,-6.2822,-6.2822,-6.2822,-6.2822,-6.2822,-6.2822,-6.2822,-6.2822,-6.2822,-6.2822,-6.2822,-6.2822,-6.2822,-6.2822,-6.2822,-6.2822,-6.2822,-6.2822,-6.2822,-6.2822,-6.2822,-6.2822,-6.2822,-6.2822,-6.2822,-6.2659,-6.1705,-5.9655,-5.6705,-5.3008,-5.1791,-5.1791,-5.1791,-5.1791,-5.1791,-5.1791,-5.1791,-5.1791,-5.1791,-5.1791,-5.1791,-5.1791,-5.1791,-5.1791,-5.1791,-5.1791,-5.1791,-5.1791,-5.1791,-5.1791,-5.1791,-5.1791,-5.1791,-5.1791,-5.1791,-5.1791,-5.1791,-5.1791,-5.1791,-5.1791,-5.1791,-5.1791,-5.1791,-5.1791,-5.1791,-5.1791,-5.1791,-5.1791,-5.1791,-5.1791,-5.1791,-5.1791,-5.1791,-5.1791,-5.1791,-5.1791,-5.1791,-5.1791,-5.1791,-5.1791,-5.1791,-5.1791,-5.1791,-5.1791,-5.1791,-5.1791,-5.1791,-5.1791,-5.1791,-5.1791,-5.1791,-5.1791,-5.1791,-5.1791,-5.1646,-5.1377,-6.2822,-6.2822,-6.2822,-6.2822,-6.2822,-6.2822,-6.2822,-6.2822,-6.2822,-6.2822,-6.2822,-6.2822,-6.2822,-6.2822,-6.2822,-6.2822,-6.2822,-6.2822,-6.2822,-6.2822,-6.2822,-6.2822,-6.2822,-6.2822,-6.2822,-6.2822,-6.2822,-6.2822,-6.2822,-6.2822,-6.2822,-6.2822,-6.2822,-6.2822,-6.2822,-6.2822,-6.2822,-6.2822,-6.2822,-6.2822,-6.2822,-6.2822,-6.2822,-6.2822,-6.2822,-6.2741,-6.2495,-5.9991,-5.6381,-5.3277,-5.2062,-5.1791,-5.1791,-5.1791,-5.1791,-5.1791,-5.1791,-5.1791,-5.1791,-5.1791,-5.1791,-5.1791,-5.1791,-5.1791,-5.1791,-5.1791,-5.1791,-5.1791,-5.1791,-5.1791,-5.1791,-5.1791,-5.1791,-5.1791,-5.1791,-5.1791,-5.1791,-5.1791,-5.1791,-5.1791,-5.1791,-5.1791,-5.1791,-5.1791,-5.1791,-5.1791,-5.1791,-5.1791,-5.1791,-5.1791,-5.1791,-5.1791,-5.1791,-5.1791,-5.1791,-5.1791,-5.1791,-5.1791,-5.1791,-5.1791,-5.1791,-5.1791,-5.1791,-5.1791,-5.1791,-5.1791,-5.1791,-5.1791,-5.1791,-5.1791,-5.1791,-5.1791,-5.1791,-5.1791,-5.1791,-5.175,-6.2822,-6.2822,-6.2822,-6.2822,-6.2822,-6.2822,-6.2822,-6.2822,-6.2822,-6.2822,-6.2822,-6.2822,-6.2822,-6.2822,-6.2822,-6.2822,-6.2822,-6.2822,-6.2822,-6.2822,-6.2822,-6.2822,-6.2822,-6.2822,-6.2822,-6.2822,-6.2822,-6.2822,-6.2822,-6.2822,-6.2822,-6.2822,-6.2822,-6.2822,-6.2822,-6.2822,-6.2822,-6.2822,-6.2822,-6.2822,-6.2822,-6.2822,-6.2822,-6.2822,-6.2822,-6.2577,-6.1018,-5.8104,-5.4917,-5.441,-5.3098,-5.1791,-5.1791,-5.1791,-5.1791,-5.1791,-5.1791,-5.1791,-5.1791,-5.1791,-5.1791,-5.1791,-5.1791,-5.1791,-5.1791,-5.1791,-5.1791,-5.1791,-5.1791,-5.1791,-5.1791,-5.1791,-5.1791,-5.1791,-5.1791,-5.1791,-5.1791,-5.1791,-5.1791,-5.1791,-5.1791,-5.1791,-5.1791,-5.1791,-5.1791,-5.1791,-5.1791,-5.1791,-5.1791,-5.1791,-5.1791,-5.1791,-5.1791,-5.1791,-5.1791,-5.1791,-5.1791,-5.1791,-5.1791,-5.1791,-5.1791,-5.1791,-5.1791,-5.1791,-5.1791,-5.1791,-5.1791,-5.1791,-5.1791,-5.1791,-5.1791,-5.1791,-5.1791,-5.1791,-5.1791,-5.1791,-6.2822,-6.2822,-6.2822,-6.2822,-6.2822,-6.2822,-6.2822,-6.2822,-6.2822,-6.2822,-6.2822,-6.2822,-6.2822,-6.2822,-6.2822,-6.2822,-6.2822,-6.2822,-6.2822,-6.2822,-6.2822,-6.2822,-6.2822,-6.2822,-6.2822,-6.2822,-6.2822,-6.2822,-6.2822,-6.2822,-6.2822,-6.2822,-6.2822,-6.2822,-6.2822,-6.2822,-6.2822,-6.2822,-6.2822,-6.2822,-6.2822,-6.2822,-6.2822,-6.2822,-6.2822,-6.2388,-5.957,-5.6814,-5.441,-5.3366,-5.2492,-5.1791,-5.1791,-5.1791,-5.1791,-5.1791,-5.1791,-5.1791,-5.1791,-5.1791,-5.1791,-5.1791,-5.1791,-5.1791,-5.1791,-5.1791,-5.1791,-5.1791,-5.1791,-5.1791,-5.1791,-5.1791,-5.1791,-5.1791,-5.1791,-5.1791,-5.1791,-5.1791,-5.1791,-5.1791,-5.1791,-5.1791,-5.1791,-5.1791,-5.1791,-5.1791,-5.1791,-5.1791,-5.1791,-5.1791,-5.1791,-5.1791,-5.1791,-5.1791,-5.1791,-5.1791,-5.1791,-5.1791,-5.1791,-5.1791,-5.1791,-5.1791,-5.1791,-5.1791,-5.1791,-5.1791,-5.1791,-5.1791,-5.1791,-5.1791,-5.1791,-5.1791,-5.1791,-5.1791,-5.1791,-5.1791]},{"header":{"parameterUnit":"m.s-1","parameterCategory":1,"la1":30.6,"la2":28.766,"lo1":-90.7593,"lo2":-88.6598,"dy":0.0162,"dx":0.0183,"nx":116,"ny":114,"refTime":"2024-04-23T12:00:00:Z","depth":0,"parameterNumber":3,"parameterNumberName":"V-component_of_WINDS"},"data":[0.0,0.0,0.0,0.0,0.0,0.0,0.0,0.0,0.0,0.0,0.0,0.0,0.0,0.0,0.0,0.0,0.0,0.0,0.0,0.0,0.0,0.0,0.0,0.0,0.0,0.0,0.0,0.0,0.0,0.0,0.0,0.0,0.0,0.0,0.0,0.0,0.0,0.0,0.0,0.0,0.0,0.0,0.0,0.0,0.0,0.0,0.0,0.0,0.0,0.0,0.0,0.0,0.0,0.0,0.0,0.0,0.0,0.0,0.0,0.0,0.0,0.0,0.0,0.0,0.0,0.0,0.0,0.0,0.0,0.0,0.0,0.0,0.0,0.0,0.0,0.0,0.0,0.0,0.0,0.0,0.0,0.0,0.0,0.0,0.0,0.0,0.0,0.0,0.0,0.0,0.0,0.0,0.0,0.0,0.0,0.0,0.0,0.0,0.0,0.0,0.0,0.0,0.0,0.0,0.0,0.0,0.0,0.0,0.0,0.0,0.0,0.0,0.0,0.0,0.0,0.0,0.0,0.0,0.0,0.0,0.0,0.0,0.0,0.0,0.0,0.0,0.0,0.0,0.0,0.0,0.0,0.0,0.0,0.0,0.0,0.0,0.0,0.0,0.0,0.0,0.0,0.0,0.0,0.0,0.0,0.0,0.0,0.0,0.0,0.0,0.0,0.0,0.0,0.0,0.0,0.0,0.0,0.0,0.0,0.0,0.0,0.0,0.0,0.0,0.0,0.0,0.0,0.0,0.0,0.0,0.0,0.0,0.0,0.0,0.0,0.0,0.0,0.0,0.0,0.0,0.0,0.0,0.0,0.0,0.0,0.0,0.0,0.0,0.0,0.0,0.0,0.0,0.0,0.0,0.0,0.0,0.0,0.0,0.0,0.0,0.0,0.0,0.0,0.0,0.0,0.0,0.0,0.0,0.0,0.0,0.0,0.0,0.0,0.0,0.0,0.0,0.0,0.0,0.0,0.0,0.0,0.0,0.0,0.0,0.0,0.0,0.0,0.0,0.0,0.0,0.0,0.0,0.0,0.0,0.0,0.0,0.0,0.0,0.0,0.0,0.0,0.0,0.0,0.0,0.0,0.0,0.0,0.0,0.0,0.0,0.0,0.0,0.0,0.0,0.0,0.0,0.0,0.0,0.0,0.0,0.0,0.0,0.0,0.0,0.0,0.0,0.0,0.0,0.0,0.0,0.0,0.0,0.0,0.0,0.0,0.0,0.0,0.0,0.0,0.0,0.0,0.0,0.0,0.0,0.0,0.0,0.0,0.0,0.0,0.0,0.0,0.0,0.0,0.0,0.0,0.0,0.0,0.0,0.0,0.0,0.0,0.0,0.0,0.0,0.0,0.0,0.0,0.0,0.0,0.0,0.0,0.0,0.0,0.0,0.0,0.0,0.0,0.0,0.0,0.0,0.0,0.0,0.0,0.0,0.0,0.0,0.0,0.0,0.0,0.0,0.0,0.0,0.0,0.0,0.0,0.0,0.0,0.0,0.0,0.0,0.0,0.0,0.0,0.0,0.0,0.0,0.0,0.0,0.0,0.0,0.0,0.0,0.0,0.0,0.0,0.0,0.0,0.0,0.0,0.0,0.0,0.0,0.0,0.0,0.0,0.0,0.0,0.0,0.0,0.0,0.0,0.0,0.0,0.0,0.0,0.0,0.0,0.0,0.0,0.0,0.0,0.0,0.0,0.0,0.0,0.0,0.0,0.0,0.0,0.0,0.0,0.0,0.0,0.0,0.0,0.0,0.0,0.0,0.0,0.0,0.0,0.0,0.0,0.0,0.0,0.0,0.0,0.0,0.0,0.0,0.0,0.0,0.0,0.0,0.0,0.0,0.0,0.0,0.0,0.0,0.0,0.0,0.0,0.0,0.0,0.0,0.0,0.0,0.0,0.0,0.0,0.0,0.0,0.0,0.0,0.0,0.0,0.0,0.0,0.0,0.0,0.0,0.0,0.0,0.0,0.0,0.0,0.0,0.0,0.0,0.0,0.0,0.0,0.0,0.0,0.0,0.0,0.0,0.0,0.0,0.0,0.0,0.0,0.0,0.0,0.0,0.0,0.0,0.0,0.0,0.0,0.0,0.0,0.0,0.0,0.0,0.0,0.0,0.0,0.0,0.0,0.0,0.0,0.0,0.0,0.0,0.0,0.0,0.0,0.0,0.0,0.0,0.0,0.0,0.0,0.0,0.0,0.0,0.0,0.0,0.0,0.0,0.0,0.0,0.0,0.0,0.0,0.0,0.0,0.0,0.0,0.0,0.0,0.0,0.0,0.0,0.0,0.0,0.0,0.0,0.0,0.0,0.0,0.0,0.0,0.0,0.0,0.0,0.0,0.0,0.0,0.0,0.0,0.0,0.0,0.0,0.0,0.0,0.0,0.0,0.0,0.0,0.0,0.0,0.0,0.0,0.0,0.0,0.0,0.0,0.0,0.0,0.0,0.0,0.0,0.0,0.0,0.0,0.0,0.0,0.0,0.0,0.0,0.0,0.0,0.0,0.0,0.0,0.0,0.0,0.0,0.0,0.0,0.0,0.0,0.0,0.0,0.0,0.0,0.0,0.0,0.0,0.0,0.0,0.0,0.0,0.0,0.0,0.0,0.0,0.0,0.0,0.0,0.0,0.0,0.0,0.0,0.0,0.0,0.0,0.0,0.0,0.0,0.0,0.0,0.0,0.0,0.0,0.0,0.0,0.0,0.0,0.0,0.0,0.0,0.0,0.0,0.0,0.0,0.0,0.0,0.0,0.0,0.0,0.0,0.0,0.0,0.0,0.0,0.0,0.0,0.0,0.0,0.0,0.0,0.0,0.0,0.0,0.0,0.0,0.0,0.0,0.0,0.0,0.0,0.0,0.0,0.0,0.0,0.0,0.0,0.0,0.0,0.0,0.0,0.0,0.0,0.0,0.0,0.0,0.0,0.0,0.0,0.0,0.0,0.0,0.0,0.0,0.0,0.0,0.0,0.0,0.0,0.0,0.0,0.0,0.0,0.0,0.0,0.0,0.0,0.0,0.0,0.0,0.0,0.0,0.0,0.0,0.0,0.0,0.0,0.0,0.0,0.0,0.0,0.0,0.0,0.0,0.0,0.0,0.0,0.0,0.0,0.0,0.0,0.0,0.0,0.0,0.0,0.0,0.0,0.0,0.0,0.0,0.0,0.0,0.0,0.0,0.0,0.0,0.0,0.0,0.0,0.0,0.0,0.0,0.0,0.0,0.0,0.0,0.0,0.0,0.0,0.0,0.0,0.0,0.0,0.0,0.0,0.0,0.0,0.0,0.0,0.0,0.0,0.0,0.0,0.0,0.0,0.0,0.0,0.0,0.0,0.0,0.0,0.0,0.0,0.0,0.0,0.0,0.0,0.0,0.0,0.0,0.0,0.0,0.0,0.0,0.0,0.0,0.0,0.0,0.0,0.0,0.0,0.0,0.0,0.0,0.0,0.0,0.0,0.0,0.0,0.0,0.0,0.0,0.0,0.0,0.0,0.0,0.0,0.0,0.0,0.0,0.0,0.0,0.0,0.0,0.0,0.0,0.0,0.0,0.0,0.0,0.0,0.0,0.0,0.0,0.0,0.0,0.0,0.0,0.0,0.0,0.0,0.0,0.0,0.0,0.0,0.0,0.0,0.0,0.0,0.0,0.0,0.0,0.0,0.0,0.0,0.0,0.0,0.0,0.0,0.0,0.0,0.0,0.0,0.0,0.0,0.0,0.0,0.0,0.0,0.0,0.0,0.0,0.0,0.0,0.0,0.0,0.0,0.0,0.0,0.0,0.0,0.0,0.0,0.0,0.0,0.0,0.0,0.0,0.0,0.0,0.0,0.0,0.0,0.0,0.0,0.0,0.0,0.0,0.0,0.0,0.0,0.0,0.0,0.0,0.0,0.0,0.0,0.0,0.0,0.0,0.0,0.0,0.0,0.0,0.0,0.0,0.0,0.0,0.0,0.0,0.0,0.0,0.0,0.0,0.0,0.0,0.0,0.0,0.0,0.0,0.0,0.0,0.0,0.0,0.0,0.0,0.0,0.0,0.0,0.0,0.0,0.0,0.0,0.0,0.0,0.0,0.0,0.0,0.0,0.0,0.0,0.0,0.0,0.0,0.0,0.0,0.0,0.0,0.0,0.0,0.0,0.0,0.0,0.0,0.0,0.0,0.0,0.0,0.0,0.0,0.0,0.0,0.0,0.0,0.0,0.0,0.0,0.0,0.0,0.0,0.0,0.0,0.0,0.0,0.0,0.0,0.0,0.0,0.0,0.0,0.0,0.0,0.0,0.0,0.0,0.0,0.0,0.0,0.0,0.0,0.0,0.0,0.0,0.0,0.0,0.0,0.0,0.0,0.0,0.0,0.0,0.0,0.0,0.0,0.0,0.0,0.0,0.0,0.0,0.0,0.0,0.0,0.0,0.0,0.0,0.0,0.0,0.0,0.0,0.0,0.0,0.0,0.0,0.0,0.0,0.0,0.0,0.0,0.0,0.0,0.0,0.0,0.0,0.0,0.0,0.0,0.0,0.0,0.0,0.0,0.0,0.0,0.0,0.0,0.0,0.0,0.0,0.0,0.0,0.0,0.0,0.0,0.0,0.0,0.0,0.0,0.0,0.0,0.0,0.0,0.0,0.0,0.0,0.0,0.0,0.0,0.0,0.0,0.0,0.0,0.0,0.0,0.0,0.0,0.0,0.0,0.0,0.0,0.0,0.0,0.0,0.0,0.0,0.0,0.0,0.0,0.0,0.0,0.0,0.0,0.0,0.0,0.0,0.0,0.0,0.0,0.0,0.0,0.0,0.0,0.0,0.0,0.0,0.0,0.0,0.0,0.0,0.0,0.0,0.0,0.0,0.0,0.0,0.0,0.0,0.0,0.0,0.0,0.0,0.0,0.0,0.0,0.0,0.0,0.0,0.0,0.0,0.0,0.0,0.0,0.0,0.0,0.0,0.0,0.0,0.0,0.0,0.0,0.0,0.0,0.0,0.0,0.0,0.0,0.0,0.0,0.0,0.0,0.0,0.0,0.0,0.0,0.0,0.0,0.0,0.0,0.0,0.0,0.0,0.0,0.0,0.0,0.0,0.0,0.0,0.0,0.0,0.0,0.0,0.0,0.0,0.0,0.0,0.0,0.0,0.0,0.0,0.0,0.0,0.0,0.0,0.0,0.0,0.0,0.0,0.0,0.0,0.0,0.0,0.0,0.0,0.0,0.0,0.0,0.0,0.0,0.0,0.0,0.0,0.0,0.0,0.0,0.0,0.0,0.0,0.0,0.0,0.0,0.0,0.0,0.0,0.0,0.0,0.0,0.0,0.0,0.0,0.0,0.0,0.0,0.0,0.0,0.0,0.0,0.0,0.0,0.0,0.0,0.0,0.0,0.0,0.0,0.0,0.0,0.0,0.0,0.0,0.0,0.0,0.0,0.0,0.0,0.0,0.0,0.0,0.0,0.0,0.0,0.0,0.0,0.0,0.0,0.0,0.0,0.0,0.0,0.0,0.0,0.0,0.0,0.0,0.0,0.0,0.0,0.0,0.0,0.0,0.0,0.0,0.0,0.0,0.0,0.0,0.0,0.0,0.0,0.0,0.0,0.0,0.0,0.0,0.0,0.0,0.0,0.0,0.0,0.0,0.0,0.0,0.0,0.0,0.0,0.0,0.0,0.0,0.0,0.0,0.0,0.0,0.0,0.0,0.0,0.0,0.0,0.0,0.0,0.0,0.0,0.0,0.0,0.0,0.0,0.0,0.0,0.0,0.0,0.0,0.0,0.0,0.0,0.0,0.0,0.0,0.0,0.0,0.0,0.0,0.0,0.0,0.0,0.0,0.0,0.0,0.0,0.0,0.0,0.0,0.0,0.0,0.0,0.0,0.0,0.0,0.0,0.0,0.0,0.0,0.0,0.0,0.0,0.0,0.0,0.0,0.0,0.0,0.0,0.0,0.0,0.0,0.0,0.0,0.0,0.0,0.0,0.0,0.0,0.0,0.0,0.0,0.0,0.0,0.0,0.0,0.0,0.0,0.0,0.0,0.0,0.0,0.0,0.0,0.0,0.0,0.0,0.0,0.0,0.0,0.0,0.0,0.0,0.0,0.0,0.0,0.0,0.0,0.0,5.6897,0.0,0.0,0.0,0.0,0.0,0.0,0.0,0.0,0.0,0.0,0.0,0.0,0.0,0.0,0.0,0.0,0.0,0.0,0.0,0.0,0.0,0.0,0.0,0.0,5.3994,5.4255,5.4894,5.5242,5.5562,5.5881,5.649,5.6839,5.6839,5.7129,5.7303,5.7303,5.7303,5.7303,5.7303,5.7303,5.7303,5.7303,5.6636,5.6171,5.5881,0.0,0.0,0.0,0.0,0.0,0.0,0.0,0.0,0.0,0.0,0.0,0.0,0.0,0.0,0.0,0.0,0.0,0.0,0.0,0.0,0.0,0.0,0.0,0.0,0.0,0.0,0.0,0.0,0.0,0.0,0.0,0.0,0.0,0.0,0.0,0.0,0.0,0.0,0.0,0.0,0.0,0.0,0.0,0.0,0.0,0.0,0.0,0.0,0.0,0.0,0.0,0.0,0.0,0.0,0.0,0.0,0.0,0.0,0.0,0.0,0.0,0.0,0.0,0.0,0.0,0.0,0.0,0.0,0.0,0.0,0.0,5.7303,0.0,0.0,0.0,0.0,0.0,0.0,0.0,0.0,0.0,0.0,0.0,0.0,0.0,0.0,0.0,0.0,0.0,0.0,0.0,0.0,0.0,5.4052,5.4604,5.4662,5.4923,5.5533,5.6084,5.6461,5.6549,5.7013,5.7303,5.7303,5.7303,5.7303,5.7303,5.7303,5.7303,5.7303,5.7303,5.7303,5.7303,5.7303,5.7042,5.6549,5.5997,0.0,0.0,0.0,0.0,0.0,0.0,0.0,0.0,0.0,0.0,0.0,0.0,0.0,0.0,0.0,0.0,0.0,0.0,0.0,0.0,0.0,0.0,0.0,0.0,0.0,0.0,0.0,0.0,0.0,0.0,0.0,0.0,0.0,0.0,0.0,0.0,0.0,0.0,0.0,0.0,0.0,0.0,0.0,0.0,0.0,0.0,0.0,0.0,0.0,0.0,0.0,0.0,0.0,0.0,0.0,0.0,0.0,0.0,0.0,0.0,0.0,0.0,0.0,5.7303,5.7303,5.7303,5.7303,5.7303,5.7303,5.7303,5.7303,5.7303,0.0,0.0,0.0,0.0,0.0,0.0,0.0,0.0,0.0,0.0,0.0,0.0,0.0,0.0,0.0,0.0,0.0,0.0,0.0,0.0,5.5184,5.5271,5.53,5.5562,5.6229,5.6345,5.6636,5.7158,5.7274,5.7303,5.7303,5.7303,5.7303,5.7303,5.7303,5.7303,5.7303,5.7303,5.7303,5.7303,5.7303,5.7274,5.7187,5.71,5.7042,5.7042,0.0,0.0,0.0,0.0,0.0,0.0,0.0,0.0,0.0,0.0,0.0,0.0,0.0,0.0,0.0,0.0,0.0,0.0,0.0,0.0,0.0,0.0,0.0,0.0,0.0,0.0,0.0,0.0,0.0,0.0,0.0,0.0,0.0,0.0,0.0,0.0,0.0,0.0,0.0,0.0,0.0,5.7303,5.7303,0.0,0.0,0.0,0.0,0.0,0.0,0.0,0.0,0.0,0.0,0.0,0.0,0.0,5.7303,5.7303,5.7303,5.7303,5.7303,5.7303,5.7303,5.7303,5.7303,5.7303,5.7303,5.7303,0.0,5.7303,5.7303,0.0,0.0,0.0,0.0,0.0,0.0,0.0,0.0,0.0,0.0,0.0,0.0,0.0,0.0,0.0,0.0,0.0,0.0,0.0,0.0,0.0,5.5968,5.6229,5.6868,5.6926,5.7013,5.7274,5.7303,5.7303,5.7303,5.7303,5.7303,5.7303,5.7303,5.7303,5.7303,5.7303,5.7303,5.7303,5.7303,5.7303,5.7303,5.7303,5.7303,5.7303,5.7303,0.0,0.0,0.0,0.0,0.0,0.0,0.0,0.0,0.0,0.0,0.0,0.0,0.0,0.0,0.0,0.0,0.0,0.0,0.0,0.0,0.0,0.0,0.0,0.0,0.0,0.0,0.0,0.0,0.0,0.0,0.0,0.0,0.0,0.0,0.0,0.0,0.0,0.0,0.0,5.7303,5.7303,5.7303,5.7303,5.7303,0.0,0.0,0.0,0.0,0.0,0.0,0.0,0.0,0.0,5.7855,5.7855,5.8058,5.8435,5.8435,5.8435,5.8435,5.8435,5.8435,5.8435,5.8435,5.8435,5.8435,5.8435,5.8435,5.8377,5.7623,5.7303,5.7303,0.0,0.0,0.0,0.0,5.7303,5.7303,0.0,0.0,0.0,0.0,0.0,0.0,0.0,0.0,0.0,0.0,0.0,0.0,5.6578,5.6636,5.681,5.7274,5.7303,5.7303,5.7303,5.7303,5.7303,5.7303,5.7303,5.7303,5.7303,5.7303,5.7303,5.7303,5.7303,5.7303,5.7303,5.7303,5.7303,5.7303,5.7303,5.7303,5.7303,5.7303,5.7303,5.7303,0.0,0.0,0.0,0.0,0.0,0.0,0.0,0.0,0.0,0.0,0.0,0.0,0.0,0.0,0.0,0.0,0.0,0.0,0.0,0.0,0.0,0.0,0.0,0.0,0.0,0.0,0.0,0.0,0.0,0.0,0.0,0.0,0.0,0.0,0.0,0.0,0.0,5.7303,5.7303,5.7303,5.7303,5.7303,0.0,0.0,0.0,0.0,0.0,0.0,5.7826,5.7826,5.8058,5.8552,5.8552,5.8813,5.9306,5.9306,5.9306,5.9306,5.9306,5.9306,5.9306,5.9306,5.9306,5.9306,5.9306,5.9306,5.9219,5.8232,5.7826,5.7826,5.7826,5.771,5.7565,5.7565,5.7448,5.7303,0.0,0.0,0.0,0.0,0.0,0.0,0.0,0.0,0.0,0.0,0.0,5.7216,5.7245,5.7245,5.7274,5.7303,5.7303,5.7303,5.7303,5.7303,5.7303,5.7303,5.7303,5.7303,5.7303,5.7303,5.7303,5.7303,5.7303,5.7303,5.7303,5.7303,5.7303,5.7303,5.7303,5.7303,5.7303,5.7303,5.7303,5.7303,5.7303,0.0,0.0,0.0,0.0,0.0,0.0,0.0,0.0,0.0,0.0,0.0,0.0,0.0,0.0,0.0,0.0,0.0,0.0,0.0,0.0,0.0,0.0,0.0,0.0,0.0,0.0,0.0,0.0,0.0,0.0,0.0,0.0,0.0,0.0,0.0,0.0,0.0,0.0,5.7303,5.7303,0.0,0.0,0.0,0.0,5.8261,5.8842,5.919,5.919,5.919,5.9219,5.9248,5.9248,5.9277,5.9306,5.9306,5.9306,5.9306,5.9306,5.9306,5.9306,5.9306,5.9306,5.9306,5.9306,5.9306,5.9306,5.9219,5.919,5.919,5.919,5.8813,5.8261,5.8261,5.7855,5.7303,0.0,0.0,0.0,0.0,0.0,5.5992,5.605,5.6765,5.7303,5.7303,5.7303,5.7303,5.7303,5.7303,5.7303,5.7303,5.7303,5.7303,5.7303,5.7303,5.7303,5.7303,5.7303,5.7303,5.7303,5.7303,5.7303,5.7303,5.7303,5.7303,5.7303,5.7303,5.7303,5.7303,5.7303,5.7303,5.7303,5.7303,5.7303,5.7303,5.7303,5.7303,0.0,0.0,0.0,0.0,0.0,0.0,0.0,0.0,0.0,0.0,0.0,0.0,0.0,0.0,0.0,0.0,0.0,0.0,0.0,0.0,0.0,0.0,0.0,0.0,0.0,0.0,0.0,0.0,0.0,0.0,0.0,0.0,0.0,0.0,0.0,0.0,0.0,5.7942,5.8319,0.0,5.8581,5.8813,5.8958,5.8958,5.9161,5.9306,5.9306,5.9306,5.948,5.9858,5.9887,6.009,6.0526,6.0526,6.0526,6.0526,6.0526,6.0526,6.0526,6.0526,6.0526,6.0526,6.0526,6.0526,6.0526,6.0526,6.0032,5.9306,5.9306,5.9161,5.8958,5.8958,5.8784,5.8581,0.0,0.0,0.0,0.0,0.0,5.5992,5.605,5.6765,5.7303,5.7303,5.7303,5.7303,5.7303,5.7303,5.7303,5.7303,5.7303,5.7303,5.7303,5.7303,5.7303,5.7303,5.7303,5.7303,5.7303,5.7303,5.7303,5.7303,5.7303,5.7303,5.7303,5.7303,5.7303,5.7303,5.7303,5.7303,5.7303,5.7303,5.7303,5.7303,5.7303,5.7303,5.7303,0.0,0.0,0.0,0.0,0.0,0.0,0.0,0.0,0.0,0.0,0.0,0.0,0.0,0.0,0.0,0.0,0.0,0.0,0.0,0.0,0.0,0.0,0.0,0.0,0.0,0.0,0.0,0.0,0.0,0.0,0.0,0.0,0.0,0.0,5.8348,5.8639,5.8639,5.9045,5.9306,5.9306,5.948,5.9597,5.9597,5.98,5.9945,5.9945,5.9945,6.0119,6.0526,6.0526,6.0758,6.1193,6.1193,6.1193,6.1193,6.1193,6.1193,6.1193,6.1193,6.1193,6.1193,6.1193,6.1193,6.1193,6.1193,6.07,5.9945,5.9945,5.98,5.9597,5.9597,5.948,5.9306,0.0,0.0,0.0,0.0,0.0,5.4323,5.6879,5.7247,5.7247,5.7303,5.7303,5.7303,5.7303,5.7303,5.7303,5.7303,5.7303,5.7303,5.7303,5.7303,5.7303,5.7303,5.7303,5.7303,5.7303,5.7303,5.7303,5.7303,5.7303,5.7303,5.7303,5.7303,5.7303,5.7303,5.7303,5.7303,5.7303,5.7303,5.7303,5.7303,5.7303,5.7303,5.7303,0.0,0.0,0.0,0.0,0.0,0.0,0.0,0.0,0.0,0.0,0.0,0.0,0.0,0.0,0.0,0.0,0.0,0.0,0.0,0.0,0.0,0.0,0.0,0.0,0.0,0.0,0.0,0.0,0.0,0.0,0.0,0.0,0.0,5.9306,5.9306,5.9335,5.9335,5.9364,5.9364,5.9364,5.9887,6.0235,6.0235,6.0816,6.1193,6.1193,6.1193,6.1193,6.1193,6.1193,6.1193,6.1193,6.1193,6.1193,6.1193,6.1193,6.1193,6.1193,6.1193,6.1193,6.1193,6.1193,6.1193,6.1193,6.1193,6.1193,6.1193,6.1193,6.0787,6.0235,6.0235,5.9858,5.9364,0.0,0.0,0.0,5.4323,5.3964,5.4024,5.5703,5.5934,5.6222,5.7191,5.7303,5.7303,5.7303,5.7303,5.7303,5.7303,5.7303,5.7303,5.7303,5.7303,5.7303,5.7303,5.7303,5.7303,5.7303,5.7303,5.7303,5.7303,5.7303,5.7303,5.7303,5.7303,5.7303,5.7303,5.7303,5.7303,5.7303,5.7303,5.7303,5.7303,5.7303,5.7303,5.7303,0.0,0.0,0.0,0.0,0.0,0.0,0.0,0.0,0.0,0.0,0.0,0.0,0.0,0.0,0.0,0.0,0.0,0.0,0.0,0.0,0.0,0.0,0.0,0.0,0.0,0.0,0.0,0.0,0.0,0.0,0.0,6.0671,6.0351,5.9422,5.9684,5.9945,5.9945,6.038,6.0671,6.0671,6.0816,6.0932,6.0932,6.1106,6.1193,6.1193,6.1193,6.1193,6.1193,6.1193,6.1193,6.1193,6.1193,6.1193,6.1193,6.1193,6.1193,6.1193,6.1193,6.1193,6.1193,6.1193,6.1193,6.1193,6.1193,6.1193,6.1193,6.1193,6.1077,6.0932,6.0932,6.0816,6.0671,0.0,0.0,0.0,5.4973,5.4619,5.4738,5.5992,5.6165,5.648,5.7191,5.7303,5.7303,5.7303,5.7303,5.7303,5.7303,5.7303,5.7303,5.7303,5.7303,5.7303,5.7303,5.7303,5.7303,5.7303,5.7303,5.7303,5.7303,5.7303,5.7303,5.7303,5.7303,5.7303,5.7303,5.7303,5.7303,5.7303,5.7303,5.7303,5.7303,5.7303,5.7303,5.7303,5.7303,5.7303,5.7303,5.7303,5.7303,5.7303,5.7303,0.0,0.0,0.0,0.0,0.0,0.0,0.0,0.0,0.0,0.0,0.0,0.0,0.0,0.0,0.0,0.0,0.0,0.0,0.0,0.0,0.0,0.0,0.0,0.0,6.1193,6.0932,6.0206,6.0409,6.0613,6.0613,6.0961,6.1193,6.1193,6.1193,6.1193,6.1193,6.1193,6.1193,6.1193,6.1193,6.1309,6.1571,6.1571,6.1716,6.1977,6.2006,6.2006,6.2006,6.2006,6.2006,6.2006,6.2006,6.2006,0.0,6.2006,6.1832,6.1571,6.1571,6.1425,0.0,0.0,0.0,0.0,0.0,6.1193,6.1193,0.0,0.0,0.0,5.7078,5.6107,5.5644,5.7078,5.7191,5.7134,5.7303,5.7303,5.7303,5.7303,5.7303,5.7303,5.7303,5.7303,5.7303,5.7303,5.7303,5.7303,5.7303,5.7303,5.7303,5.7303,5.7303,5.7303,5.7303,5.7303,5.7303,5.7303,5.7303,5.7303,5.7303,5.7303,5.7303,5.7303,5.7303,5.7303,5.7303,5.7303,5.7303,5.7303,5.7303,5.7303,5.7303,5.7303,5.7303,5.7303,5.7303,0.0,0.0,0.0,0.0,0.0,0.0,0.0,0.0,0.0,0.0,0.0,0.0,0.0,0.0,0.0,0.0,0.0,0.0,0.0,0.0,0.0,0.0,0.0,0.0,6.1193,6.1193,6.1193,6.1193,6.1193,6.1193,6.1193,6.1193,6.1193,6.1193,6.1222,6.1309,6.1309,6.1338,6.1396,0.0,0.0,0.0,0.0,6.2499,6.308,6.308,6.308,6.308,6.308,6.308,6.308,6.308,6.308,6.308,6.308,6.2761,6.2209,6.2209,6.189,6.1396,6.1251,6.1193,6.1193,6.1193,6.1193,6.1193,0.0,0.0,5.456,5.6879,5.5412,5.4619,5.6936,5.6423,5.6107,5.7191,5.7303,5.7303,5.7303,5.7303,5.7303,5.7303,5.7303,5.7303,5.7303,5.7303,5.7303,5.7303,5.7303,5.7303,5.7303,5.7303,5.7303,5.7303,5.7303,5.7303,5.7303,5.7303,5.7303,5.7303,5.7303,5.7303,5.7303,5.7303,5.7303,5.7303,5.7303,5.7303,5.7303,5.7303,5.7303,5.7303,5.7303,5.7303,5.7303,5.7303,5.7303,5.7303,5.7303,5.7303,0.0,0.0,0.0,0.0,0.0,0.0,0.0,0.0,0.0,0.0,0.0,0.0,0.0,0.0,0.0,0.0,0.0,0.0,0.0,6.1193,6.1193,6.1193,6.1193,6.1193,6.1193,6.1193,6.1193,6.1193,6.1193,6.1193,6.1396,6.189,6.1919,6.2151,6.2703,6.2732,6.279,6.2906,6.2906,6.2964,6.308,6.308,6.308,6.308,0.0,0.0,6.308,6.308,6.308,6.308,6.308,6.3022,6.2906,6.2906,6.2819,6.2616,6.16,6.1193,6.1193,6.1193,6.1193,6.1193,0.0,5.628,5.5818,5.7078,5.6222,5.5818,5.7134,5.6765,5.6594,5.7247,5.7303,5.7303,5.7303,5.7303,5.7303,5.7303,5.7303,5.7303,5.7303,5.7303,5.7303,5.7303,5.7303,5.7303,5.7303,5.7303,5.7303,5.7303,5.7303,5.7303,5.7303,5.7303,5.7303,5.7303,5.7303,5.7303,5.7303,5.7303,5.7303,5.7303,5.7303,5.7303,5.7303,5.7303,5.7303,5.7303,5.7303,5.7303,5.7303,5.7303,5.7303,5.7303,5.7303,5.7303,5.7303,0.0,0.0,0.0,0.0,0.0,0.0,0.0,0.0,0.0,0.0,0.0,0.0,0.0,0.0,6.1193,6.1193,0.0,6.1193,6.1193,6.1193,6.1193,6.1193,6.1193,6.1193,6.1193,6.1193,6.1309,6.16,6.1658,6.1919,6.2558,6.2587,6.2732,6.308,6.308,6.3225,6.3545,6.3864,6.4183,6.4502,6.4822,6.4996,6.4996,6.4996,6.4996,6.4967,6.4648,6.4502,6.4502,6.4183,6.3864,6.3545,6.3225,6.308,6.3022,6.2383,6.1948,6.16,6.1309,6.1193,6.1193,0.0,0.0,5.736,5.7303,5.7303,5.7303,5.7303,5.7303,5.7303,5.7303,5.7303,5.7303,5.7303,5.7303,5.7303,5.7303,5.7303,5.7303,5.7303,5.7303,5.7303,5.7303,5.7303,5.7303,5.7303,5.7303,5.7303,5.7303,5.7303,5.7303,5.7303,5.7303,5.7303,5.7303,5.7303,5.7303,5.7303,5.7303,5.7303,5.7303,5.7303,5.7303,5.7303,5.7303,5.7303,5.7303,5.7303,5.7303,5.7303,5.7303,5.7303,5.7303,5.7303,5.7303,5.7332,5.7448,5.7507,0.0,0.0,0.0,0.0,0.0,0.0,0.0,0.0,6.1193,6.1193,6.1193,6.1193,6.1193,6.1193,6.1193,6.1193,6.1193,6.1193,6.1251,6.1367,6.1367,6.1425,6.1542,6.1454,6.1571,6.2035,6.2209,6.2558,6.3225,6.3283,6.337,6.3632,6.3632,6.3951,6.4561,6.5083,6.5606,6.6099,6.6622,6.6883,6.6883,6.6883,6.6883,6.6854,6.636,6.6128,6.607,6.5431,6.488,6.4294,6.3719,6.3457,6.3457,6.3341,6.2935,6.2383,6.1774,6.1483,6.1367,0.0,0.0,0.0,5.736,5.7303,5.7303,5.7303,5.7303,5.7303,5.7303,5.7303,5.7303,5.7303,5.7303,5.7303,5.7303,5.7303,5.7303,5.7303,5.7303,5.7303,5.7303,5.7303,5.7303,5.7303,5.7303,5.7303,5.7303,5.7303,5.7303,5.7303,5.7303,5.7303,5.7303,5.7303,5.7303,5.7303,5.7303,5.7303,5.7303,5.7303,5.7303,5.7303,5.7303,5.7303,5.7303,5.7303,5.7303,5.7303,5.7303,5.7303,5.7303,5.7303,5.7303,5.7419,5.8,5.8203,5.8464,5.9655,6.0467,6.1019,6.1164,6.1193,6.1193,0.0,6.1193,6.1193,6.1193,6.1193,6.1193,6.1193,6.1193,6.1193,6.1193,6.1193,6.1396,6.1919,6.2006,6.2209,6.2819,6.2354,6.2006,6.2093,6.2616,6.3254,6.3893,6.3859,6.4415,6.5548,6.5606,6.5896,6.6535,6.6622,6.6709,6.6767,6.6854,6.6883,6.6883,6.6883,6.6883,6.6883,6.6796,6.6767,6.6738,6.6099,6.578,6.5664,6.5025,6.4764,6.4706,6.4154,6.383,6.3685,6.3109,6.2499,6.2006,0.0,0.0,0.0,5.7303,5.7303,5.7303,5.7303,5.7303,5.7303,5.7303,5.7303,5.7303,5.7303,5.7303,5.7303,5.7303,5.7303,5.7303,5.7303,5.7303,5.7303,5.7303,5.7303,5.7303,5.7303,5.7303,5.7303,5.7303,5.7303,5.7303,5.7303,5.7303,5.7303,5.7303,5.7303,5.7303,5.7303,5.7303,5.7303,5.7303,5.7303,5.7303,5.7303,5.7303,5.7303,5.7303,5.7303,5.7303,0.0,5.7303,5.7303,5.7303,5.7303,5.7303,5.7448,5.8116,5.829,5.8581,5.9858,6.07,6.1193,6.1193,6.1193,6.1193,6.1193,6.1193,6.1193,6.1193,6.1193,6.1193,6.1193,6.1483,6.1716,6.1716,6.2035,6.2383,6.2645,6.2674,6.279,6.3051,6.3167,6.3225,6.3225,6.3486,6.3893,6.4532,6.4938,6.5309,6.5896,6.6273,6.6593,6.6883,6.726,6.7463,6.7463,6.7841,6.8015,6.8015,6.8015,6.8015,6.8015,6.7638,6.726,6.6854,6.6593,6.6476,6.6418,6.5809,6.5519,6.546,6.4851,6.459,6.4473,6.3457,6.2906,6.2674,0.0,0.0,0.0,5.7303,5.7303,5.7303,5.7303,5.7303,5.7303,5.7303,5.7303,5.7303,5.7303,5.7303,5.7303,5.7303,5.7303,5.7303,5.7303,5.7303,5.7303,5.7303,5.7303,5.7303,5.7303,5.7303,5.7303,5.7303,5.7303,5.7303,5.7303,5.7303,5.7303,5.7303,5.7303,5.7303,5.7303,5.7303,5.7303,5.7303,5.7303,5.7303,5.7303,5.7303,5.7303,5.7303,5.7303,5.7303,5.7303,5.7303,5.7303,5.7303,5.7303,5.7419,5.771,5.8377,5.8813,5.9306,6.0235,6.0816,6.1193,6.1193,6.1193,6.1193,6.1193,6.1193,6.1193,6.1193,6.1193,6.1251,6.1425,6.1803,6.2151,6.2325,6.2761,6.3167,6.3312,6.3341,6.3428,6.3603,6.4009,6.4357,6.4468,6.4497,6.4764,6.5199,6.5838,6.6273,6.6447,6.6912,6.7231,6.7405,6.7899,6.8131,6.8131,6.8596,6.8828,6.8828,6.8828,6.8828,6.8828,6.8363,6.787,6.7405,6.7231,6.7173,6.7115,6.6447,6.6099,6.5896,6.5431,6.5141,6.488,6.3951,6.3516,6.3341,0.0,0.0,0.0,0.0,5.7303,5.7303,5.7303,5.7303,5.7303,5.7303,5.7303,5.7303,5.7303,5.7303,5.7303,5.7303,5.7303,5.7303,5.7303,5.7303,5.7303,5.7303,5.7303,5.7303,5.7303,5.7303,5.7303,5.7303,5.7303,5.7303,5.7303,5.7303,5.7303,5.7303,5.7303,5.7303,5.7303,5.7303,5.7303,5.7303,5.7303,5.7303,5.7303,5.7303,5.7303,5.7303,5.7303,5.7303,5.7303,5.7303,5.7303,5.7303,5.7303,5.7739,5.8406,5.9074,6.0148,6.1106,6.1164,6.1193,6.1193,6.1193,6.1193,6.1193,6.1193,6.1193,6.1193,6.1193,6.1193,6.1367,6.1948,6.2093,6.2296,6.2964,6.308,6.3312,6.3859,6.3946,6.4241,6.4851,6.4938,6.5199,6.5809,6.5802,6.5831,6.5896,6.6476,6.7144,6.7783,6.7841,6.8131,6.8741,6.877,6.8799,6.8799,6.8828,6.8828,6.8828,6.8828,6.8828,6.8828,6.8799,6.877,6.8741,6.8131,6.7841,6.7812,6.7115,6.6476,6.5925,6.5896,6.5519,6.4996,6.4938,6.4532,6.3946,0.0,0.0,0.0,0.0,0.0,5.7303,5.7303,5.7303,5.7303,5.7303,5.7303,0.0,0.0,0.0,0.0,0.0,5.7303,5.7303,5.7303,5.7303,5.7303,5.7303,5.7303,5.7303,5.7303,5.7303,5.7303,5.7303,5.7303,5.7303,5.7303,5.7303,5.7303,5.7303,5.7303,5.7303,5.7303,5.7303,5.7303,5.7303,5.7303,5.7303,5.7303,5.7303,5.7303,5.7303,0.0,5.7303,5.7303,5.7303,5.7303,5.7303,5.7303,5.7768,5.8523,5.9568,6.0526,6.1193,6.1193,6.1193,6.1193,6.1193,6.1193,6.1193,6.1193,6.1193,6.1193,6.1193,6.1513,6.1861,6.2064,6.279,6.3457,6.369,6.4067,6.4415,6.4648,6.4677,6.4764,6.4967,6.5344,6.5693,6.5896,6.5925,6.6099,6.6535,6.7173,6.7638,6.787,6.8276,6.8596,6.8828,6.8828,6.8828,6.8828,6.8828,6.8828,6.8828,6.8828,6.8828,6.8828,6.8828,6.8828,6.8828,6.8596,6.8509,6.845,6.7812,6.7405,6.7173,6.6738,6.6186,6.5606,6.5606,6.5199,6.4677,0.0,0.0,0.0,0.0,0.0,0.0,0.0,0.0,0.0,0.0,0.0,0.0,0.0,0.0,0.0,0.0,0.0,5.7303,5.7303,5.7303,5.7303,5.7303,5.7303,5.7303,5.7303,5.7303,5.7303,5.7303,5.7303,5.7303,5.7303,5.7303,5.7303,5.7303,5.7303,5.7303,5.7303,5.7303,5.7303,5.7303,5.7303,5.7303,5.7303,5.7303,5.7303,0.0,5.7303,5.7303,5.7303,5.7303,5.7303,5.7332,5.7594,5.8261,5.919,6.0235,6.0874,6.1193,6.1193,6.1193,6.1193,6.1193,6.1193,6.1193,6.1193,6.1193,6.1251,6.1483,6.1832,6.2238,6.2703,6.3486,6.4125,6.4328,6.4735,6.4996,6.4996,6.5199,6.5315,6.5315,6.5896,6.636,6.6593,6.6622,6.6796,6.7202,6.7841,6.8218,6.8218,6.8596,6.8828,6.8828,6.8828,6.8828,6.8828,6.8828,6.8828,6.8828,6.8828,6.8828,6.8828,6.8828,6.8828,6.8828,6.8828,6.8828,6.8799,6.8392,6.8073,6.7841,6.7405,6.6854,6.6244,6.6012,6.5664,6.5286,0.0,0.0,0.0,0.0,0.0,0.0,0.0,0.0,0.0,0.0,0.0,0.0,0.0,0.0,0.0,0.0,0.0,0.0,5.7303,5.7303,5.7303,5.7303,5.7303,5.7303,5.7303,5.7303,5.7303,5.7303,5.7303,5.7303,5.7303,5.7303,5.7303,5.7303,5.7303,5.7303,5.7303,5.7303,5.7303,5.7303,5.7303,5.7303,5.7303,5.7303,5.7303,5.7303,5.7303,5.7303,5.7303,5.7303,5.7332,5.7477,5.8145,5.919,6.0322,6.099,6.1193,6.1193,6.1193,6.1193,6.1193,6.1193,6.1193,6.1193,6.1193,6.1222,6.1396,6.1977,6.2151,6.2558,6.3806,6.4004,6.427,6.488,6.4996,6.4996,6.4996,6.5519,6.5925,6.5925,6.6535,6.7173,6.7812,6.7899,6.7928,6.7928,0.0,6.8828,6.8828,6.8828,6.8828,6.8886,6.8886,6.8886,6.8915,6.8915,6.8915,6.8915,6.8886,6.8886,6.8886,6.8828,6.8828,6.8828,6.8828,6.8828,6.8828,6.8828,6.8479,6.7928,6.7928,6.7522,6.6854,6.6244,6.5983,6.5838,0.0,0.0,0.0,0.0,0.0,0.0,0.0,0.0,0.0,0.0,0.0,0.0,0.0,0.0,0.0,0.0,0.0,0.0,5.7303,5.7303,5.7303,5.7303,5.7303,5.7303,5.7303,5.7303,5.7303,5.7303,5.7303,5.7303,5.7303,5.7303,5.7303,5.7303,5.7303,5.7303,5.7303,5.7303,5.7303,5.7303,5.7303,5.7303,5.7303,5.7303,5.7303,5.7303,5.7303,5.7303,5.7303,5.7303,5.7623,5.8174,5.8842,5.9568,6.0322,6.099,6.1193,6.1193,6.1193,6.1193,6.1193,6.1193,6.1193,6.1193,6.1193,6.1542,6.189,6.2064,6.2877,6.3569,6.3917,6.4415,6.4793,6.4967,6.4996,6.4996,6.4996,6.5519,6.5925,6.5925,6.6941,6.7696,6.787,6.8305,6.8596,0.0,6.8741,6.8828,6.8828,6.8828,6.9031,6.9525,6.9525,6.9757,7.0221,7.025,7.025,7.0221,6.9757,6.9525,6.9525,6.9031,6.8828,6.8828,6.8828,6.8828,6.8828,6.8828,6.8741,6.8596,6.8596,6.8189,6.7609,6.7434,6.6767,6.5896,0.0,0.0,0.0,0.0,0.0,0.0,0.0,0.0,0.0,0.0,0.0,0.0,0.0,0.0,0.0,0.0,0.0,0.0,0.0,5.7303,5.7303,5.7303,5.7303,5.7303,5.7303,5.7303,5.7303,5.7303,5.7303,5.7303,5.7303,5.7303,5.7303,5.7303,5.7303,5.7303,5.7303,5.7303,5.7303,0.0,0.0,5.7303,5.7303,5.7303,5.7303,5.7303,5.7303,5.7303,5.7303,5.7303,5.7942,5.8813,5.919,5.9916,6.07,6.1077,6.1193,6.1193,6.1193,6.1193,6.1193,6.1193,6.1193,6.128,6.1542,6.1861,6.2267,6.2819,6.3516,6.4125,6.4386,6.4764,6.4996,6.4996,6.4996,6.5083,6.5373,6.5954,6.6447,6.6738,6.7667,6.8276,6.8276,6.8625,6.8828,6.8828,6.8828,6.8944,6.9234,6.9234,6.9525,7.0163,7.0192,7.0366,7.0715,7.0715,7.0715,7.0715,7.0366,7.0192,7.0163,6.9525,6.9234,6.9234,0.0,6.8828,6.8828,6.8828,6.8828,6.8828,6.8828,6.8596,6.8247,6.7986,6.7405,6.6738,0.0,0.0,0.0,0.0,0.0,0.0,0.0,0.0,0.0,0.0,5.7303,5.7303,0.0,0.0,0.0,0.0,0.0,0.0,0.0,0.0,5.7303,5.7303,5.7303,5.7303,5.7303,5.7303,5.7303,5.7303,5.7303,5.7303,5.7303,5.7303,5.7303,5.7303,5.7303,5.7303,5.7303,5.7303,5.7303,5.7303,5.7303,5.7303,5.7303,0.0,5.7303,5.7303,5.7303,5.7303,5.7303,5.7303,5.8203,5.9306,5.9306,6.0177,6.1193,6.1193,6.1193,6.1193,6.1193,6.1193,6.1193,6.1193,6.1193,6.1367,6.1948,6.2151,6.2558,6.3777,6.4033,6.4328,6.488,6.4996,6.4996,6.4996,6.4996,6.5199,6.5838,6.6476,6.7115,6.7812,6.845,6.8828,6.8828,6.8828,6.8857,6.8944,6.8944,6.9205,6.9757,6.9873,7.0192,7.0831,7.0918,7.0976,7.0976,7.0976,7.0976,7.0976,7.0889,7.086,7.0831,7.0192,6.9902,6.9873,0.0,0.0,6.8944,6.8857,6.8828,6.8828,6.8828,6.8828,6.877,6.8218,6.7957,6.7812,0.0,0.0,0.0,0.0,0.0,0.0,0.0,0.0,0.0,0.0,5.7303,5.7303,0.0,0.0,0.0,0.0,0.0,0.0,0.0,0.0,0.0,5.7303,5.7303,5.7303,5.7303,5.7303,5.7303,5.7303,5.7303,5.7303,5.7303,5.7303,5.7303,5.7303,5.7303,5.7303,5.7303,5.7303,5.7303,5.7303,5.7303,5.7303,5.7303,5.7303,5.7303,0.0,5.7303,5.7303,5.7303,5.7303,5.8203,5.9306,5.9306,6.0177,6.1193,6.1193,6.1193,6.1193,6.1193,6.1193,6.1193,6.1193,6.1193,6.1367,6.1948,6.2529,6.3138,6.3893,6.4444,6.4851,6.4967,6.4996,6.4996,6.4996,6.4996,6.5199,6.5838,6.6476,6.7115,6.7812,6.845,6.8828,6.8828,6.8828,6.9031,6.9583,6.9612,6.967,6.9757,7.0279,7.086,7.1498,7.2021,7.2282,7.2282,7.2282,7.2282,7.2282,7.176,7.1498,7.1469,7.0831,7.0541,7.0512,6.9873,0.0,6.9583,6.9031,6.8828,6.8828,6.8828,6.8828,6.8828,6.8712,6.8334,6.787,0.0,0.0,0.0,0.0,0.0,0.0,0.0,5.7303,5.7303,5.7303,5.7303,5.7303,5.7303,5.7303,5.7303,0.0,0.0,0.0,0.0,0.0,0.0,5.7303,5.7303,5.7303,5.7303,5.7303,5.7303,5.7303,0.0,5.7303,5.7303,5.7303,5.7303,5.7303,5.7303,5.7303,5.7303,5.7303,5.7303,5.7303,5.7303,5.7303,5.7303,5.7303,5.7303,0.0,5.7303,5.7303,5.7303,5.7303,5.8203,5.9306,5.9306,6.0177,6.1193,6.1193,6.1193,6.1193,6.1193,6.1193,6.1193,6.1193,6.1193,6.1454,6.2383,6.2848,6.337,6.4328,6.4764,6.4996,6.4996,6.4996,6.4996,6.4996,6.5257,6.5693,6.6331,6.6999,6.7638,6.8305,6.8625,6.8828,6.8828,6.9118,6.9437,6.9757,7.0395,7.0773,7.0773,7.1353,7.1847,7.2166,7.2456,7.2602,7.2602,7.2602,7.2602,7.2602,7.2311,7.2166,7.2137,7.1498,7.1208,7.1179,7.0541,0.0,6.9757,6.9437,6.9118,6.8828,6.8828,6.8828,6.8828,6.8828,6.8625,6.8363,0.0,0.0,0.0,0.0,0.0,0.0,5.7303,5.7303,5.7303,5.7303,5.7303,5.7303,5.7303,5.7303,5.7303,0.0,0.0,0.0,0.0,0.0,0.0,0.0,5.7303,5.7303,5.7303,0.0,0.0,5.7303,5.7303,0.0,0.0,0.0,0.0,0.0,5.7303,5.7303,5.7303,5.7303,5.7303,0.0,0.0,5.7303,5.7303,0.0,0.0,0.0,0.0,5.7303,5.7303,5.7303,5.8203,5.9306,5.9306,6.0177,6.1193,6.1193,6.1193,6.1193,6.1193,6.1193,6.1193,6.1193,6.1193,6.1542,6.279,6.308,6.3457,6.4735,6.4996,6.4996,6.4996,6.4996,6.5025,6.517,6.5606,6.6186,6.6999,6.7551,6.8102,6.8741,6.8828,6.8886,6.9002,6.9466,6.9873,7.0163,7.1237,7.1876,7.1876,7.234,7.2602,7.2602,7.2602,7.2602,7.2602,7.2602,7.2602,7.2602,7.2602,7.2602,7.2602,7.2108,7.1876,7.1847,7.1208,0.0,0.0,6.9815,6.9408,6.8828,6.8828,6.8828,6.8828,6.8828,6.8828,6.8828,0.0,0.0,0.0,0.0,0.0,0.0,5.7303,5.7303,5.7303,5.7303,5.7303,5.7303,5.7303,5.7303,5.7303,0.0,0.0,0.0,0.0,0.0,0.0,0.0,0.0,0.0,0.0,0.0,0.0,5.7303,5.7303,0.0,0.0,0.0,0.0,0.0,0.0,5.7303,5.7303,5.7303,0.0,0.0,0.0,0.0,0.0,0.0,0.0,0.0,0.0,5.7303,5.7303,5.7303,5.8203,5.9306,5.9306,6.0177,6.1193,6.1193,6.1193,6.1193,6.1193,6.1193,6.1193,6.1193,6.1193,6.1542,6.279,6.308,6.3457,6.4735,6.4996,6.4996,6.4996,6.4996,6.517,6.5751,6.5896,6.636,6.7609,6.7841,6.8102,6.8741,6.8828,6.906,6.9641,6.9728,7.025,7.1411,7.2137,0.0,7.2544,7.2573,7.2602,7.2602,7.2602,7.2602,7.2602,7.2602,7.2602,7.2602,7.2602,7.2602,7.2602,7.2544,7.2544,7.2485,7.1847,0.0,0.0,7.0018,6.9408,6.8828,6.8828,6.8828,6.8828,6.8828,6.8828,6.8828,0.0,0.0,0.0,0.0,0.0,0.0,5.7303,5.7303,5.7303,5.7303,5.7303,5.7303,5.7303,5.7303,5.7303,5.7303,5.7303,0.0,0.0,0.0,0.0,0.0,0.0,0.0,0.0,0.0,5.7303,5.7303,5.7303,0.0,0.0,0.0,0.0,0.0,0.0,5.7303,5.7303,5.7303,0.0,0.0,0.0,0.0,0.0,0.0,0.0,0.0,0.0,0.0,5.7303,5.7303,5.8203,5.9306,5.9306,6.0177,6.1193,6.1193,6.1193,6.1193,6.1193,6.1193,6.1193,6.1193,6.1454,6.1977,6.2877,6.3399,6.3922,6.4793,6.4996,6.4996,6.4996,6.4996,6.5199,6.5838,6.6244,6.6825,6.7754,6.8218,6.8538,6.8799,6.8828,6.906,6.9699,7.0134,7.086,7.2137,7.2456,0.0,7.2602,7.2602,7.2602,7.2602,7.2602,7.2602,7.2602,7.2602,7.2602,7.2602,7.2602,7.2602,7.2602,7.2602,7.2602,7.2602,7.234,0.0,0.0,7.0599,6.996,6.935,6.8973,6.8828,6.8828,6.8828,6.8828,6.8828,0.0,0.0,0.0,0.0,0.0,5.7303,5.7303,5.7303,5.7303,5.7303,5.7303,5.7303,5.7303,5.7303,5.7303,5.7303,5.7303,0.0,0.0,0.0,0.0,0.0,0.0,0.0,0.0,0.0,5.7303,5.7303,5.7303,5.7303,0.0,0.0,5.7303,5.7303,0.0,0.0,0.0,0.0,0.0,0.0,0.0,0.0,0.0,0.0,0.0,0.0,0.0,0.0,0.0,0.0,0.0,5.9335,5.951,6.0322,6.1193,6.1193,6.1193,6.1193,6.1193,6.1193,6.1193,6.1193,6.1658,6.2267,6.2935,6.3574,6.4212,6.4851,6.4996,6.4996,6.4996,6.4996,6.5199,6.5838,6.6476,6.7115,6.7783,6.8421,6.8828,6.8828,6.9002,6.935,6.9989,7.0802,7.1644,7.2544,7.2602,0.0,7.2602,7.2602,7.2602,7.2602,7.2602,7.2602,7.2602,7.2602,7.2602,7.2602,7.2602,7.2602,7.2602,7.2602,7.2602,7.2602,0.0,0.0,0.0,7.1179,7.0512,6.9728,6.9292,6.9002,6.8828,6.8828,6.8828,6.8828,0.0,0.0,0.0,0.0,0.0,5.7303,5.7303,5.7303,5.7303,5.7303,5.7303,5.7303,5.7303,5.7303,5.7303,5.7303,5.7303,0.0,0.0,0.0,0.0,0.0,0.0,0.0,0.0,0.0,5.7303,5.7303,5.7303,5.7303,5.7303,5.7303,5.7303,5.7303,0.0,0.0,0.0,0.0,0.0,0.0,0.0,0.0,5.7303,0.0,0.0,0.0,0.0,0.0,0.0,0.0,0.0,0.0,0.0,6.0642,6.1193,6.1193,6.1193,6.1193,6.1193,6.1193,6.1193,6.1193,6.1658,6.2267,6.2935,6.3574,6.4212,6.4851,6.4996,6.4996,6.4996,6.4996,6.5199,6.5838,6.6476,6.7115,6.7783,6.8421,6.8828,6.8828,6.9379,7.0018,7.0657,7.1847,7.2602,7.2602,7.2602,0.0,7.2602,7.2602,7.2602,7.2602,7.2602,7.2602,7.2602,7.2602,7.2602,7.2602,7.2602,7.2602,7.2602,7.2602,7.2602,0.0,0.0,0.0,0.0,7.1673,7.0918,6.9786,6.9757,6.9379,6.8828,6.8828,6.8828,6.8828,0.0,0.0,0.0,0.0,0.0,0.0,5.7303,5.7303,5.7303,5.7303,5.7303,5.7303,5.7303,5.7303,5.7303,5.7303,5.7303,0.0,0.0,0.0,0.0,0.0,0.0,0.0,0.0,5.7303,5.7303,5.7303,5.7303,5.7303,5.7303,5.7303,5.7303,5.7303,5.7303,5.7303,0.0,5.7303,0.0,0.0,0.0,5.7303,5.7303,0.0,0.0,0.0,0.0,0.0,0.0,0.0,0.0,0.0,0.0,0.0,0.0,6.1193,6.1193,6.1193,6.1193,6.1193,6.1193,6.1193,6.2006,6.2848,6.3051,6.3922,6.4735,6.4938,6.4996,6.4996,6.4996,6.4996,6.5199,6.5838,6.6476,6.7115,6.7783,6.8421,6.9002,6.9408,7.0424,7.115,7.1353,0.0,7.2602,7.2602,0.0,0.0,7.2602,7.2602,7.2602,7.2602,7.2602,7.2602,7.2602,7.2602,7.2602,7.2602,7.2602,7.2602,7.2602,7.2602,0.0,0.0,0.0,0.0,0.0,7.1847,7.1179,7.0366,6.9931,6.9379,6.8828,6.8828,6.8828,6.8828,0.0,0.0,0.0,0.0,0.0,0.0,5.7303,5.7303,5.7303,5.7303,5.7303,5.7303,5.7303,5.7303,5.7303,5.7303,5.7303,0.0,0.0,0.0,0.0,0.0,0.0,0.0,5.7303,5.7303,5.7303,5.7303,5.7303,5.7303,5.7303,5.7303,5.7303,5.7303,5.7303,5.7303,0.0,5.7303,0.0,0.0,5.7303,5.7303,5.7303,0.0,0.0,0.0,0.0,0.0,0.0,0.0,0.0,0.0,0.0,0.0,0.0,0.0,6.1193,6.1193,6.1193,6.1193,6.1193,6.1193,6.2151,6.308,6.308,6.4067,6.4996,6.4996,6.4996,6.4996,6.4996,6.4996,6.5112,6.5519,6.6302,6.7028,6.7434,6.8276,6.9147,7.0018,7.1034,7.176,7.1992,7.2398,7.2602,7.2602,0.0,0.0,7.2602,7.2602,7.2602,7.2602,7.2602,7.2602,7.2602,7.2602,7.2602,7.2602,7.2602,7.2602,7.2602,7.2602,0.0,0.0,0.0,0.0,0.0,7.2195,7.1498,7.0686,7.0279,6.9583,6.8828,6.8828,6.8828,6.8828,0.0,0.0,0.0,0.0,0.0,0.0,0.0,5.7303,5.7303,5.7303,5.7303,5.7303,5.7303,5.7303,5.7303,5.7303,5.7303,0.0,0.0,0.0,0.0,0.0,0.0,0.0,5.7303,5.7303,5.7303,5.7303,5.7303,5.7303,5.7303,5.7303,5.7303,5.7303,5.7303,5.7303,5.7303,5.7303,5.7303,5.7303,5.7303,5.7303,0.0,0.0,0.0,0.0,0.0,0.0,0.0,0.0,0.0,0.0,0.0,0.0,0.0,0.0,0.0,0.0,0.0,6.1193,6.1193,6.1193,6.2151,6.308,6.308,6.4067,0.0,6.4996,6.4996,6.4996,6.4996,6.4996,6.4996,6.4996,6.6041,6.6883,6.6883,6.8073,6.9408,7.057,7.1324,7.1963,7.2573,7.2602,7.2602,0.0,0.0,0.0,7.2602,7.2602,7.2602,7.2602,7.2602,7.2602,7.2602,7.2602,7.2602,7.2602,7.2602,7.2602,7.2602,7.2602,0.0,0.0,0.0,0.0,0.0,7.2602,7.1876,7.0715,7.0715,6.9931,6.8828,6.8828,6.8828,6.8828,0.0,0.0,0.0,0.0,0.0,0.0,0.0,0.0,0.0,0.0,5.7303,5.7303,5.7303,5.7303,5.7303,0.0,0.0,0.0,0.0,0.0,0.0,0.0,0.0,0.0,5.7303,5.7303,5.7303,5.7303,5.7303,5.7303,5.7303,5.7303,5.7303,5.7303,5.7303,5.7303,5.7303,5.7303,5.7303,5.7303,5.7303,5.7303,0.0,0.0,0.0,0.0,5.7303,5.7303,0.0,0.0,0.0,0.0,0.0,0.0,0.0,0.0,6.1193,6.1193,6.1193,0.0,6.1193,6.1193,6.2151,6.308,0.0,6.4067,6.4996,6.4996,6.4996,6.4996,6.4996,6.4996,6.4996,6.4996,6.6041,6.6883,6.6883,6.8857,7.0395,7.0686,7.1702,7.2456,7.2602,7.2602,7.2602,0.0,0.0,7.2602,7.2602,7.2602,7.2602,7.2602,7.2602,7.2602,7.2602,7.2602,7.2602,7.2602,7.2602,7.2602,7.2602,7.2602,0.0,0.0,0.0,0.0,7.2602,7.2602,7.1876,7.0715,7.0715,6.9931,6.8828,6.8828,6.8828,6.8828,0.0,0.0,0.0,0.0,0.0,0.0,0.0,0.0,0.0,0.0,5.7303,5.7303,5.7303,5.7303,5.7303,0.0,0.0,0.0,0.0,0.0,0.0,0.0,5.7303,5.7303,5.7303,5.7303,5.7303,5.7303,5.7303,5.7303,5.7303,5.7303,5.7303,5.7303,5.7303,5.7303,5.7303,5.7303,5.7303,5.7303,5.7303,0.0,0.0,0.0,0.0,0.0,5.7303,5.7303,0.0,5.8842,5.9306,5.951,0.0,0.0,0.0,0.0,6.1193,6.1193,6.1193,6.1193,6.1193,6.1193,6.2151,6.308,6.308,6.4067,6.4996,6.4996,6.4996,6.4996,6.4996,6.4996,6.5083,6.5373,6.6244,6.7086,6.7696,6.9466,7.0715,7.0715,7.1847,7.2602,0.0,7.2602,0.0,0.0,0.0,7.2602,7.2602,7.2602,7.2602,7.2602,7.2602,7.2602,7.2602,7.2602,7.2602,7.2602,7.2602,7.2602,7.2602,7.2602,7.2602,0.0,0.0,0.0,7.2602,7.2602,7.1876,7.0715,7.0715,6.9931,6.8828,6.8828,6.8828,6.8828,0.0,0.0,0.0,0.0,0.0,0.0,0.0,0.0,0.0,0.0,0.0,0.0,0.0,0.0,0.0,0.0,0.0,0.0,0.0,0.0,0.0,5.7303,5.7303,5.7303,5.7303,5.7303,5.7303,5.7303,5.7303,5.7303,5.7303,5.7303,5.7303,5.7303,5.7303,5.7303,5.7303,5.7303,5.7303,5.7303,5.7303,0.0,0.0,0.0,0.0,0.0,0.0,0.0,0.0,5.8871,5.9364,5.9655,6.0816,0.0,0.0,0.0,0.0,0.0,6.1193,6.1193,6.1193,6.1193,6.2151,6.308,6.308,6.4067,6.4996,6.4996,6.4996,6.4996,6.4996,6.4996,6.5199,6.5838,6.6564,6.7463,6.8654,6.9931,7.0715,7.0715,7.1847,0.0,7.2602,7.2602,0.0,0.0,0.0,7.2602,7.2602,7.2602,7.2602,7.2602,7.2602,7.2602,7.2602,7.2602,7.2602,7.2602,7.2602,7.2602,7.2602,7.2602,7.2602,0.0,0.0,0.0,7.2602,7.2602,7.1876,7.0715,7.0715,6.9931,6.8828,6.8828,6.8828,6.8828,0.0,0.0,0.0,0.0,0.0,0.0,0.0,0.0,0.0,0.0,0.0,0.0,0.0,0.0,0.0,0.0,0.0,0.0,0.0,0.0,0.0,5.7303,5.7303,5.7303,5.7303,5.7303,5.7303,5.7303,5.7303,5.7303,5.7303,5.7303,5.7303,5.7303,5.7303,5.7303,5.7303,5.7303,5.7303,5.7303,5.7303,0.0,0.0,0.0,0.0,0.0,0.0,0.0,0.0,5.9045,5.9626,6.0206,6.0961,0.0,0.0,0.0,0.0,0.0,6.1193,6.1193,6.1193,6.1193,6.2151,6.308,6.308,6.4067,6.4996,6.4996,6.4996,6.4996,6.4996,6.4996,6.5199,6.5838,6.6941,6.7986,6.8712,6.9931,7.0715,7.0715,0.0,7.2602,7.2602,0.0,0.0,0.0,0.0,7.2602,7.2602,7.2602,7.2602,7.2602,7.2602,7.2602,7.2602,7.2602,7.2602,7.2602,7.2602,7.2602,7.2602,7.2602,7.2602,0.0,0.0,7.2602,7.2602,7.2602,7.1876,7.0715,7.0715,6.9931,6.8828,6.8828,6.8828,6.8828,0.0,0.0,0.0,0.0,0.0,0.0,0.0,0.0,0.0,0.0,0.0,0.0,0.0,0.0,0.0,0.0,0.0,0.0,0.0,5.7303,5.7303,5.7303,5.7303,5.7303,5.7303,5.7303,5.7303,5.7303,5.7303,5.7303,5.7303,5.7303,5.7303,5.7303,5.7303,5.7303,5.7303,5.7303,5.7303,5.7303,0.0,0.0,0.0,0.0,0.0,0.0,0.0,0.0,0.0,0.0,5.9713,6.0322,6.099,0.0,0.0,0.0,0.0,0.0,6.1193,6.1193,6.1193,6.1193,6.189,6.2645,6.3022,6.3806,6.4561,6.4909,6.4996,6.4996,6.4996,6.4996,6.5315,6.6273,6.7551,6.8479,6.877,6.9931,7.0715,0.0,0.0,7.2602,7.2602,0.0,0.0,0.0,0.0,0.0,7.2602,7.2602,7.2602,7.2602,7.2602,7.2602,7.2602,7.2602,7.2602,7.2602,7.2602,7.2602,7.2602,7.2602,7.2602,7.2602,0.0,7.2602,7.2602,7.2602,7.1876,7.0715,7.0715,6.9931,6.8828,6.8828,6.8828,6.8828,0.0,0.0,0.0,0.0,0.0,0.0,0.0,0.0,0.0,0.0,0.0,0.0,0.0,0.0,0.0,0.0,0.0,0.0,0.0,5.7303,5.7303,5.7303,5.7303,5.7303,5.7303,5.7303,5.7303,5.7303,5.7303,5.7303,5.7303,5.7303,5.7303,5.7303,5.7303,5.7303,5.7303,5.7303,5.7303,5.7303,0.0,0.0,0.0,0.0,0.0,0.0,0.0,0.0,0.0,0.0,0.0,0.0,0.0,0.0,0.0,6.1193,6.1193,6.1193,6.1193,6.1193,6.1193,6.1193,6.1658,6.2238,6.2732,6.3457,6.4183,6.4677,6.488,6.4996,6.4996,6.5228,6.5809,6.6941,6.8073,6.8828,6.8828,6.9931,7.0715,7.0715,7.1847,7.2602,0.0,0.0,0.0,0.0,0.0,0.0,7.2602,7.2602,7.2602,7.2602,7.2602,7.2602,7.2602,7.2602,7.2602,7.2602,7.2602,7.2602,7.2602,7.2602,7.2602,7.2602,7.2602,7.2602,7.2602,7.2602,7.1876,7.0715,7.0715,6.9931,6.8828,6.8828,6.8828,6.8828,0.0,0.0,0.0,0.0,0.0,0.0,0.0,0.0,0.0,0.0,0.0,0.0,0.0,0.0,0.0,0.0,0.0,0.0,5.7303,5.7303,5.7303,5.7303,5.7303,5.7303,5.7303,5.7303,5.7303,5.7303,5.7303,5.7303,5.7303,5.7303,5.7303,5.7303,5.7303,5.7303,5.7303,5.7303,5.7303,5.7303,5.7303,0.0,0.0,0.0,0.0,0.0,0.0,0.0,0.0,0.0,0.0,0.0,0.0,0.0,6.1193,6.1193,6.1193,6.1193,6.1193,6.1193,6.1193,6.1193,6.1658,6.2093,6.2151,6.3138,6.3975,6.4033,6.459,6.4996,6.4996,6.5954,6.697,6.7696,6.8392,6.8828,6.8828,6.9931,7.0715,7.0715,7.1847,7.2602,0.0,0.0,0.0,0.0,0.0,0.0,7.2602,7.2602,7.2602,7.2602,7.2602,7.2602,7.2602,7.2602,7.2602,7.2602,7.2602,7.2602,7.2602,7.2602,7.2602,7.2602,7.2602,7.2602,7.2602,7.2602,7.1876,7.0715,7.0715,6.9931,6.8828,6.8828,6.8828,6.8828,0.0,0.0,0.0,0.0,0.0,0.0,0.0,0.0,0.0,0.0,0.0,5.7303,5.7303,0.0,0.0,0.0,0.0,5.7303,5.7303,5.7303,5.7303,5.7303,5.7303,5.7303,5.7303,5.7303,5.7303,5.7303,5.7303,5.7303,5.7303,5.7303,5.7303,5.7303,5.7303,5.7303,5.7303,5.7303,5.7303,5.7303,5.7303,5.7303,0.0,0.0,0.0,0.0,0.0,0.0,0.0,0.0,6.0642,6.1193,6.1193,6.1193,6.1193,6.1193,6.1193,6.1193,6.1193,6.1193,6.1193,6.1193,6.1367,6.1629,6.2006,6.279,6.3574,6.3888,6.4532,6.5112,6.5489,6.6273,6.7115,6.7783,6.8421,6.8973,6.935,7.0163,7.086,7.1266,7.2079,0.0,0.0,0.0,0.0,0.0,0.0,0.0,7.2602,7.2602,7.2602,7.2602,7.2602,7.2602,7.2602,7.2602,7.2602,7.2602,7.2602,7.2602,7.2602,7.2602,7.2602,7.2602,7.2602,7.2602,7.2602,7.2602,7.1876,7.0628,6.9844,6.9234,6.8828,6.8828,6.8828,6.8828,0.0,0.0,0.0,0.0,0.0,0.0,0.0,0.0,5.7942,0.0,0.0,0.0,0.0,5.7942,0.0,0.0,0.0,5.7623,5.7623,5.7419,5.7303,5.7303,5.7303,5.7303,5.7303,5.7303,5.7303,5.7303,5.7303,5.7303,5.7303,5.7303,5.7303,5.7303,5.7303,5.736,5.7416,5.736,5.736,5.7416,5.736,5.7476,0.0,0.0,0.0,0.0,0.0,0.0,0.0,0.0,6.0816,6.1193,6.1193,6.1193,6.1193,6.1193,6.1193,6.1193,6.1193,6.1193,6.1193,6.1193,6.1193,6.1367,6.1948,6.2616,6.3225,6.3661,6.4561,6.5489,6.6128,6.6767,6.7405,6.8073,6.8538,6.906,6.9699,7.0308,7.0947,7.1586,0.0,0.0,0.0,0.0,0.0,0.0,0.0,0.0,0.0,7.2602,7.2602,7.2602,7.2602,7.2602,7.2602,7.2602,7.2602,7.2602,7.2602,7.2602,7.2602,7.2602,7.2602,7.2602,7.2602,7.2602,7.2602,7.2602,7.1876,7.0599,6.9321,6.8828,6.8828,6.8828,6.8828,6.8828,0.0,0.0,0.0,0.0,0.0,0.0,5.8319,5.8871,5.9306,5.9306,5.9306,0.0,0.0,0.0,0.0,0.0,5.8697,5.8319,5.8319,5.7681,5.7332,5.7332,5.7332,5.7332,5.7332,5.7332,5.7303,5.7303,5.7303,5.7303,5.7303,5.7303,5.7303,5.7303,5.7303,5.7472,5.7781,5.7416,5.7501,5.7781,5.7445,5.7909,5.8805,0.0,0.0,0.0,0.0,0.0,0.0,0.0,6.1193,6.1193,6.1193,6.1193,6.1193,6.1193,6.1193,6.1193,6.1193,6.1193,6.1193,6.1193,6.1193,6.1367,6.1948,6.2616,6.308,6.3109,6.4619,6.6128,6.6767,6.7434,6.8102,6.8712,6.8828,6.906,6.9699,7.0308,7.0947,0.0,0.0,0.0,0.0,0.0,0.0,0.0,0.0,0.0,0.0,7.2602,7.2602,7.2602,7.2602,7.2602,7.2602,7.2602,7.2602,7.2602,7.2602,7.2602,7.2602,7.2602,7.2602,7.2602,7.2602,7.2602,7.2602,7.2602,7.1847,7.0599,6.9321,6.8828,6.8828,6.8828,6.8828,6.8828,0.0,0.0,0.0,0.0,0.0,0.0,5.9016,5.9161,5.9306,5.9306,5.9306,0.0,0.0,0.0,0.0,0.0,0.0,5.9016,5.9016,5.8813,5.8726,5.8726,5.8726,5.8726,5.8726,5.8726,5.8232,5.7303,5.7303,5.7303,5.7303,5.7528,5.7528,5.7303,5.7751,5.7863,5.781,5.8136,5.851,5.882,5.8922,5.9301,5.9791,0.0,0.0,0.0,0.0,0.0,0.0,0.0,0.0,0.0,6.1253,6.1193,6.1193,6.1193,6.1193,6.1193,6.1193,6.1193,6.1193,6.1193,6.1193,6.1367,6.1948,6.2616,6.3341,6.4241,6.5228,6.6128,6.6767,6.7434,6.8102,6.8712,6.8828,6.9205,7.0279,7.0599,0.0,0.0,0.0,0.0,0.0,0.0,0.0,0.0,0.0,0.0,0.0,7.2602,7.2602,0.0,7.2602,7.2602,7.2602,7.2602,7.2602,7.2602,7.2602,7.2602,7.2602,7.2602,7.2602,7.2602,7.2602,7.2602,7.2544,7.1644,7.1063,7.0599,6.9321,6.8828,6.8828,6.8828,6.8828,6.8828,0.0,0.0,0.0,0.0,0.0,0.0,5.9655,5.9887,6.0061,6.0061,6.0061,6.0061,0.0,0.0,0.0,6.0061,5.98,5.9655,5.9655,5.9422,5.9306,5.9306,5.9306,5.9306,5.9306,5.9306,5.89,5.8087,5.8087,5.8087,5.8087,5.8287,5.8287,5.8087,5.8598,5.8767,5.8796,5.9121,5.9468,5.9779,5.9879,6.026,6.0725,0.0,0.0,0.0,0.0,0.0,0.0,0.0,0.0,0.0,6.1583,6.1373,6.1193,6.1344,6.1284,6.1193,6.1193,6.1193,6.1193,6.1193,6.1193,6.1425,6.2296,6.2993,6.3748,6.4764,6.5693,6.6418,6.6825,6.7638,6.8392,6.877,6.8828,6.9176,7.0192,7.057,0.0,0.0,0.0,0.0,0.0,0.0,0.0,0.0,0.0,0.0,0.0,7.2602,7.2602,0.0,7.2602,7.2602,7.2602,7.2602,7.2602,7.2602,7.2602,7.2602,7.2602,7.2602,7.2602,7.2602,7.2602,7.2602,7.2515,7.1237,7.0715,7.0599,6.9321,6.8828,6.8828,6.8828,6.8828,6.8828,0.0,0.0,5.9539,5.948,0.0,6.0293,6.0293,6.0816,6.1193,6.1193,6.1193,6.1193,0.0,0.0,0.0,6.1193,6.0642,6.0293,6.0293,5.9771,5.948,5.948,5.948,5.948,5.948,5.948,5.948,5.948,5.9364,5.9306,5.9306,5.9365,5.9365,5.9306,5.9654,5.9999,6.02,6.0316,6.0487,6.0714,6.0489,6.0931,6.1751,6.1751,0.0,0.0,0.0,0.0,0.0,0.0,0.0,0.0,6.1998,6.1702,6.1313,6.1554,6.1464,6.1253,6.1193,6.1193,6.1193,6.1193,6.128,6.1687,6.2906,6.3661,6.427,6.4851,6.5983,6.6883,6.6883,6.7957,6.8828,6.8828,6.8828,6.906,6.9699,7.0308,0.0,0.0,0.0,0.0,0.0,0.0,0.0,0.0,0.0,0.0,0.0,7.2602,0.0,7.2602,7.2602,7.2602,7.2602,7.2602,7.2602,0.0,7.2602,7.2602,7.2602,7.2602,7.2602,7.2602,7.2602,7.2602,7.2515,7.1237,7.0715,7.0599,6.9321,6.8828,6.8828,6.8828,6.8828,6.8828,0.0,0.0,6.1026,6.0846,0.0,0.0,6.099,6.1106,6.1193,6.1193,6.1193,6.1193,6.1193,6.1193,0.0,6.1193,6.1077,6.099,6.099,6.0874,6.0787,6.0787,6.0787,6.0787,6.0787,6.0787,6.0787,6.0787,5.98,5.9306,5.9306,5.9798,5.9741,5.9365,6.0371,6.0598,6.0286,6.1017,6.1454,6.1798,6.1991,6.2374,6.2812,6.2812,6.2728,0.0,0.0,0.0,0.0,0.0,0.0,0.0,6.2175,6.1998,6.188,6.1673,6.1554,6.1434,6.1253,6.1193,6.1193,6.1193,6.1948,6.2877,6.3661,6.4328,6.4822,6.4967,6.5983,6.6883,6.6883,6.7957,6.8828,6.8828,6.8828,6.906,6.9699,0.0,0.0,0.0,0.0,0.0,0.0,0.0,0.0,0.0,0.0,0.0,7.2602,7.2602,0.0,7.2602,7.2602,7.2602,7.2602,7.2602,7.2602,0.0,7.2602,7.2602,7.2602,7.2602,7.2602,7.2602,7.2602,7.2602,7.2515,7.1237,7.0715,7.0599,6.9321,6.8828,6.8828,6.8828,6.8828,6.8828,0.0,0.0,0.0,0.0,0.0,0.0,0.0,0.0,6.0845,6.1164,6.1193,6.1193,6.1193,6.1193,0.0,0.0,6.1193,6.1193,6.1193,6.1193,6.1193,6.1193,6.1284,6.1344,6.1193,6.1493,6.1493,6.1193,6.0674,6.0354,6.0206,6.0648,6.0648,6.0265,6.1374,6.1518,6.1172,6.1989,6.2426,6.26,6.2756,6.2963,6.3079,6.3079,6.3021,6.2847,6.3021,0.0,0.0,0.0,0.0,0.0,0.0,0.0,6.191,6.2057,6.1761,6.1404,6.1404,6.1284,6.128,6.1542,6.2354,6.3254,6.3893,6.4532,6.4996,6.4996,6.5983,6.6883,6.6883,6.7957,6.8828,6.8828,6.8828,6.8944,6.9263,0.0,0.0,0.0,0.0,0.0,0.0,0.0,0.0,0.0,0.0,7.2602,7.2602,7.2602,7.2602,7.2602,7.2602,7.2602,7.2602,7.2602,7.2602,7.2602,7.2602,7.2602,7.2602,7.2602,7.2602,7.2602,7.2602,7.2456,7.2079,7.1121,7.0541,7.0163,6.9205,6.8828,6.8828,6.8828,6.8828,6.8828,0.0,0.0,0.0,0.0,0.0,0.0,0.0,0.0,0.0,6.1135,6.1193,6.1193,6.1253,6.1253,6.1193,0.0,0.0,0.0,6.1193,6.1193,6.1253,6.1373,6.1464,6.1464,6.1253,6.1702,6.1702,6.1193,6.1404,6.1404,6.1193,6.1494,6.1554,6.1313,6.2204,6.2439,6.2234,6.2789,6.3079,6.3079,6.3079,6.3079,6.3079,6.3079,6.3079,6.3079,6.3079,6.3079,6.3079,6.3079,0.0,0.0,0.0,0.0,6.1969,6.241,6.2027,6.1404,6.1554,6.1404,6.1367,6.2093,6.2674,6.3283,6.4038,6.4619,6.4996,6.4996,6.5983,6.6883,6.6883,6.7957,6.8828,6.8828,6.8828,6.8828,0.0,0.0,0.0,0.0,0.0,0.0,0.0,0.0,0.0,0.0,0.0,7.2602,7.2602,7.2602,7.2602,7.2602,7.2602,7.2602,7.2602,7.2602,7.2602,7.2602,7.2602,7.2602,7.2602,7.2602,7.2602,7.2602,7.2602,7.2253,7.1615,7.0976,7.0337,6.9699,6.906,6.8828,6.8828,6.8828,6.8828,6.8828,0.0,0.0,0.0,0.0,0.0,0.0,0.0,0.0,0.0,0.0,6.1193,6.1313,6.1494,6.1344,6.1284,6.1554,6.1344,6.1193,6.1193,0.0,0.0,6.1939,6.1523,6.1344,6.1554,6.1404,6.1253,6.1193,6.1253,6.1253,6.1193,6.1761,6.185,6.1554,6.2292,6.2556,6.2556,6.2615,6.2847,6.3079,6.3079,6.3079,6.3079,6.3079,6.3079,6.3079,6.3079,6.3079,6.3079,6.3079,6.3079,0.0,0.0,0.0,6.2847,6.2673,6.2322,6.1939,6.1673,6.1404,6.1483,6.2674,6.3022,6.3399,6.459,6.4938,6.4996,6.4996,6.5983,6.6883,6.6883,6.7957,6.8828,6.8828,6.8828,0.0,0.0,0.0,0.0,0.0,0.0,0.0,0.0,0.0,0.0,0.0,7.2602,7.2602,7.2602,7.2602,7.2602,7.2602,7.2602,7.2602,7.2602,7.2602,7.2602,7.2602,7.2602,7.2602,7.2602,7.2602,7.2602,7.2602,7.2602,7.2253,7.1615,7.0976,7.0337,6.9699,6.906,6.8828,6.8828,6.8828,6.8828,6.8828,0.0,0.0,0.0,0.0,0.0,0.0,0.0,0.0,0.0,0.0,0.0,6.1253,6.1344,6.1404,6.1404,6.1404,6.1404,6.1344,6.1193,6.1552,6.1642,6.1583,6.1642,6.1583,6.1404,6.1583,6.1552,6.1193,6.1552,6.1583,6.1464,6.188,6.191,6.1673,6.2468,6.2789,6.2615,6.2789,6.2963,6.3079,6.3079,6.3079,6.3079,6.3079,6.3079,6.3079,6.3079,6.3079,6.3079,6.3079,6.3079,6.3079,6.3079,0.0,0.0,0.0,6.2526,6.2057,6.1673,6.1494,6.1695,6.2822,6.308,6.3428,6.4706,6.4996,6.4996,6.4996,6.5983,6.6883,6.6883,6.7957,6.8828,6.8828,6.8828,0.0,0.0,0.0,0.0,0.0,0.0,0.0,0.0,0.0,0.0,0.0,7.2602,7.2602,7.2602,7.2602,7.2602,7.2602,7.2602,7.2602,7.2602,7.2602,7.2602,7.2602,7.2602,7.2602,7.2602,7.2602,7.2602,7.2602,7.2602,7.205,7.1121,7.0831,7.0134,6.9205,6.8944,6.8828,6.8828,6.8828,6.8828,6.8828,0.0,0.0,0.0,0.0,0.0,0.0,0.0,0.0,0.0,0.0,0.0,6.1253,6.1433,0.0,0.0,0.0,6.1554,6.1494,6.1284,6.1702,6.1821,6.1433,6.1761,6.1761,6.1313,6.1761,6.1702,6.1193,6.1642,6.1761,6.1494,6.1791,6.185,6.1791,6.2526,6.2731,6.2615,6.2847,6.3021,6.3079,6.3021,6.3021,6.3079,6.3021,6.3021,6.3079,6.3079,6.3079,6.3079,6.3079,6.3079,6.3079,6.3079,6.2905,0.0,0.0,0.0,6.2175,6.1791,6.1673,6.1846,6.2945,6.3171,6.3428,6.4706,6.4996,6.4996,6.4996,6.5867,6.668,6.6854,6.7957,6.8828,6.8828,0.0,0.0,0.0,0.0,0.0,0.0,0.0,0.0,0.0,0.0,0.0,0.0,7.2602,7.2602,7.2602,7.2602,7.2602,7.2602,7.2602,7.2602,7.2602,7.2602,7.2602,7.2602,7.2602,7.2602,7.2602,7.2602,7.2602,7.2602,7.2602,7.1905,7.0715,7.0715,6.996,6.8828,6.8828,6.8828,6.8828,6.8828,6.8828,6.8828,0.0,0.0,0.0,0.0,0.0,0.0,0.0,0.0,0.0,0.0,0.0,6.1433,6.1998,6.1791,6.185,6.2498,6.1998,6.1613,6.1613,6.1613,6.1732,6.2057,6.1791,0.0,6.1613,6.1613,6.1523,6.1193,6.1253,6.1253,6.1253,6.1494,6.1791,6.2116,6.2116,6.2292,6.2615,6.2615,6.2789,6.3079,6.2731,6.2789,6.3079,6.2731,6.2847,6.3079,6.3079,6.3079,6.3079,6.3079,6.3079,6.3079,6.3079,6.3079,6.3079,0.0,0.0,0.0,6.2175,6.185,6.1935,6.322,6.3356,6.3428,6.4706,6.4996,6.4996,6.4996,6.5519,6.6157,6.6767,6.7957,6.8828,6.8828,0.0,0.0,0.0,0.0,0.0,0.0,0.0,0.0,0.0,0.0,0.0,0.0,7.2602,7.2602,7.2602,7.2602,7.2602,7.2602,7.2602,7.2602,7.2602,7.2602,7.2602,7.2602,7.2602,7.2602,7.2602,7.2602,7.2602,7.2602,7.2602,7.1905,7.0715,7.0715,6.996,6.8828,6.8828,6.8828,6.8828,6.8828,6.8828,6.8828,0.0,0.0,0.0,0.0,0.0,0.0,0.0,0.0,0.0,0.0,0.0,0.0,0.0,6.185,6.191,6.1969,6.1732,6.1613,6.1613,6.1969,6.1998,6.1523,6.1761,6.1761,6.1344,6.1494,6.1434,6.1193,6.1612,6.1702,6.1434,6.1554,6.1673,6.1791,6.2234,6.2615,6.2905,6.2905,6.3021,6.3079,6.2963,6.3021,6.3079,6.2963,6.3021,6.3079,6.3079,6.3079,6.3079,6.3079,6.3079,6.3079,6.3079,6.3079,6.3079,6.3079,6.3021,6.2847,6.2498,6.2292,6.244,6.3342,6.348,6.3677,6.4769,6.4996,6.4996,6.4996,6.5489,6.6128,6.6767,6.7609,6.8363,0.0,0.0,0.0,0.0,0.0,0.0,0.0,0.0,0.0,0.0,0.0,0.0,0.0,0.0,0.0,7.2602,7.2602,7.2602,7.2602,7.2602,7.2602,7.2602,7.2602,7.2602,7.2602,7.2602,7.2602,7.2602,7.2602,7.2602,7.2602,7.2195,7.1528,7.0686,7.0279,6.9612,6.8828,6.8828,6.8828,6.8828,6.8828,6.8828,6.8828,0.0,0.0,0.0,6.1613,0.0,6.2439,6.2439,6.2175,6.1969,6.2116,0.0,0.0,0.0,0.0,6.2057,6.191,6.2028,6.2028,6.1791,6.2292,6.2204,6.1344,6.1939,6.1939,6.1193,6.1468,6.1468,6.1193,6.1497,6.1586,6.1613,6.1613,6.1732,6.1969,6.2439,6.2673,6.2759,6.3021,6.3079,6.3079,6.2963,6.3021,6.3079,6.2963,6.3021,6.3079,6.3079,6.3079,6.3079,6.3079,6.3079,6.3079,6.3079,6.3079,6.3079,6.3079,6.3079,6.3079,6.2847,6.2673,6.2824,6.3677,6.3725,6.3892,6.4959,6.5094,6.4996,6.4996,6.5315,6.5809,6.6447,6.7115,6.7841,0.0,0.0,0.0,0.0,0.0,0.0,0.0,0.0,0.0,0.0,0.0,0.0,0.0,0.0,0.0,7.2311,7.2485,7.2602,7.2602,7.2602,7.2602,7.2602,7.2602,7.2602,7.2602,7.2602,7.2602,7.2602,7.2602,7.2602,7.2573,7.1731,7.1121,7.0657,7.0047,6.9408,6.8828,6.8828,6.8828,6.8828,6.8828,6.8828,6.8828,6.1193,6.1404,6.1613,6.1613,6.191,6.2116,6.2116,6.1791,6.1732,6.2057,0.0,0.0,0.0,0.0,0.0,6.2556,6.2847,6.2759,6.2175,6.2439,6.2292,6.1613,6.2234,6.2145,6.1253,6.1497,6.1467,6.1193,6.091,6.1028,6.1613,6.1613,6.191,6.2615,6.2615,6.2439,6.2175,6.2847,6.3079,6.3079,6.2731,6.2789,6.3079,6.2731,6.2789,6.3079,6.3079,6.3079,6.3079,6.3079,6.3079,6.3079,6.3079,6.3079,6.3079,6.3079,6.3079,6.3079,0.0,0.0,0.0,6.4189,6.4062,6.3954,6.5245,6.5222,6.506,6.506,6.4996,6.517,6.5809,6.6447,6.7289,0.0,0.0,0.0,0.0,0.0,0.0,0.0,0.0,0.0,0.0,0.0,0.0,0.0,0.0,7.1644,7.1673,7.2282,7.2602,7.2602,7.2602,7.2602,7.2602,7.2602,7.2602,7.2602,7.2602,7.2602,7.2602,7.2602,7.2602,7.2544,7.1266,7.0715,7.0657,7.0018,6.9379,6.8828,6.8828,6.8828,6.8828,6.8828,6.8828,6.8895,6.1193,6.1583,6.191,6.1673,6.2116,6.2351,6.2116,6.2057,6.191,0.0,0.0,0.0,6.2116,6.2116,6.2116,6.2234,6.2087,6.2028,6.2116,6.2439,6.2292,6.1613,6.1998,6.2116,6.188,6.1939,6.1792,6.1494,6.1645,6.1674,6.1613,6.1613,6.185,6.2234,6.2498,6.2556,6.2498,6.2905,6.3079,6.3079,6.3021,6.3021,6.3079,6.3021,6.3021,6.3079,6.3079,6.3079,6.3079,6.3079,6.3079,6.3079,6.3079,6.3079,6.3079,6.3079,6.3079,6.3079,6.3079,0.0,0.0,0.0,0.0,0.0,6.5768,6.5819,6.563,6.5412,6.5348,6.5489,6.5809,6.6447,0.0,0.0,0.0,0.0,0.0,0.0,0.0,0.0,0.0,0.0,0.0,0.0,0.0,0.0,7.0628,7.1179,7.1644,7.2282,7.2602,7.2602,7.2602,7.2602,7.2602,7.2602,7.2602,7.2602,7.2602,7.2602,7.2602,7.2602,7.2602,7.2544,7.1266,7.0715,7.0628,6.9554,6.8973,6.8828,6.8828,6.8828,6.8828,6.8828,6.8963,6.9136,6.1344,6.1761,6.2057,6.185,6.2351,6.2673,6.2175,6.2234,6.2234,0.0,0.0,0.0,6.2292,6.2175,6.2263,6.2647,6.2499,6.2588,6.3061,6.3269,6.3091,6.2469,6.2647,6.2529,6.2116,6.1968,6.1821,6.1613,6.1821,6.1821,6.1791,6.191,6.2293,6.2912,6.3118,6.3325,6.3593,6.3828,6.3707,6.3438,6.3053,6.3292,6.3857,6.3471,6.3531,6.3887,6.3887,6.3887,6.3887,6.3887,6.3887,6.3887,6.3887,6.3887,6.3827,6.3558,6.3468,6.3468,6.3468,6.3707,6.4157,6.4934,0.0,0.0,6.5922,6.6007,6.5882,0.0,6.5601,6.5718,6.5717,6.6235,0.0,0.0,0.0,0.0,0.0,0.0,0.0,0.0,0.0,0.0,0.0,6.9147,0.0,6.9379,6.996,7.0715,7.1615,7.2021,7.234,7.2602,7.2602,7.2602,7.2602,7.2602,7.2602,7.2602,7.2602,7.2602,7.2602,7.2773,7.2699,7.2378,7.1359,7.0777,7.0457,6.9302,6.8895,6.903,6.8828,6.8895,6.903,6.8828,6.903,6.9337,0.0,6.185,6.2057,6.2057,6.2585,6.2789,6.2116,6.2381,6.2556,0.0,6.2293,6.2381,6.2705,6.2529,6.2736,6.3535,6.3654,6.3892,6.4486,6.4516,6.4278,6.3654,6.3684,6.3298,6.2411,6.2112,6.1908,6.1937,6.1908,6.2112,6.2381,6.2705,6.3296,6.4126,6.4126,6.4455,6.5024,6.5024,6.4725,6.4097,6.3177,6.3683,6.4905,6.404,6.4219,6.5024,6.5024,6.5024,6.5024,6.5024,6.5024,6.5024,6.5024,6.5024,6.4904,6.4306,6.4126,6.4126,6.4126,6.4156,6.4515,6.5712,6.5829,0.0,6.6077,6.6132,6.6007,0.0,6.5882,6.5945,6.5601,0.0,0.0,0.0,0.0,0.0,0.0,0.0,0.0,0.0,0.0,0.0,6.8828,6.8828,6.8828,6.8828,6.9408,7.0279,7.1411,7.1586,7.1934,7.2557,7.2573,7.2602,7.2773,7.2602,7.2631,7.2702,7.2631,7.2631,7.2702,7.3057,7.2847,7.2244,7.16,7.0956,7.0244,6.936,6.9098,6.927,6.8963,6.9068,6.9337,6.903,6.9136,6.947,6.1554,6.1673,6.1732,6.1732,6.2028,6.2116,6.1493,6.2087,6.2322,6.1552,6.235,6.3149,6.377,6.4009,6.4159,6.4337,6.4367,6.4426,6.4545,6.4785,6.4606,6.4035,6.4247,6.4308,6.401,6.404,6.404,6.3979,6.404,6.404,6.4099,6.4189,6.4427,6.4814,6.4814,6.4904,6.5024,6.5024,6.5263,6.5502,6.4517,6.4487,6.4964,6.4517,6.4606,6.5024,6.5024,6.5024,6.5024,6.5024,6.5024,6.5024,6.5024,6.5024,6.4934,6.4874,6.4814,6.4814,6.4814,6.5203,6.5682,6.5951,6.634,0.0,6.6785,6.6814,6.6691,0.0,6.6382,6.6319,6.5945,0.0,0.0,0.0,0.0,0.0,0.0,0.0,0.0,0.0,0.0,0.0,6.8828,6.8828,6.8828,6.8828,6.9408,6.9873,7.0134,7.1121,7.1871,7.2269,7.2482,7.2915,7.3551,7.2915,7.2773,7.3057,7.2773,7.2773,7.3057,7.3157,7.2988,7.262,7.2012,7.1296,7.0649,6.9935,6.9537,6.927,6.9203,6.9404,6.9803,6.9737,6.9869,7.02,6.1554,6.1613,6.1673,6.1791,6.1969,6.2175,6.2409,6.2795,6.3032,6.285,6.3143,6.3648,6.4455,6.4454,6.4452,6.4748,6.499,6.5138,6.5281,6.5586,6.5559,6.505,6.502,6.4932,6.4785,6.4485,6.4454,6.4635,6.4545,6.4545,6.4635,6.4755,6.4964,6.5292,6.5383,6.5592,6.5769,6.5951,6.6191,6.64,6.5052,6.5113,6.5921,6.5231,6.5381,6.6011,6.6011,6.6011,6.6011,6.6011,6.6011,6.6011,6.6011,6.6011,6.5951,0.0,6.589,6.6391,6.6391,6.6634,0.0,6.7302,0.0,0.0,0.0,6.7759,6.7819,6.7457,6.7061,6.6629,6.6319,0.0,0.0,0.0,0.0,0.0,0.0,0.0,0.0,0.0,0.0,0.0,6.8828,6.8828,6.8895,6.903,6.9186,6.9574,7.0273,7.0573,7.1283,7.2482,7.2456,7.2847,7.3761,7.341,7.3269,7.351,7.3269,7.3269,7.348,7.3337,7.2975,7.2531,7.188,7.1229,7.0578,7.0054,6.9869,6.9803,6.967,6.9803,7.0134,6.9936,7.0134,7.0397,6.1937,6.1936,6.2113,6.247,6.2558,6.2736,6.3565,6.3714,6.3862,6.4424,6.4117,6.4205,6.5022,6.4689,6.4651,6.5153,6.5458,6.5757,6.6103,6.6382,6.633,6.6039,6.5796,6.5558,6.5173,6.475,6.475,6.5052,6.5022,6.5022,6.5052,6.5293,6.5501,6.5704,6.5948,6.6246,6.6506,6.6814,6.6937,6.6909,6.5618,6.5978,6.7119,6.6183,6.6544,6.7388,6.7388,6.7388,6.7388,6.7388,6.7388,6.7358,6.7208,6.7178,0.0,0.0,0.0,0.0,0.0,0.0,0.0,0.0,0.0,6.9,0.0,0.0,0.0,0.0,0.0,0.0,0.0,0.0,0.0,0.0,0.0,0.0,0.0,0.0,0.0,0.0,0.0,0.0,0.0,6.8895,6.903,6.9404,6.9136,6.9436,7.0472,7.0176,7.0731,7.2267,7.2178,7.2629,7.3723,7.3654,7.3713,7.393,7.3831,7.3772,7.3694,7.3408,7.293,7.2187,7.1681,7.1153,7.0462,7.02,7.0265,7.0433,7.0134,7.02,7.0433,7.02,7.0265,7.0528,6.3029,6.3201,6.3583,6.4217,6.4037,6.3945,6.4065,6.3975,6.4089,6.4458,6.4702,6.4999,6.5371,6.5647,6.5831,6.589,6.589,6.6106,6.6444,6.6506,6.6352,6.6014,6.6263,6.6233,6.5926,6.6082,6.6391,6.6698,6.6698,6.6698,6.6698,6.6759,6.6635,6.6387,6.6449,6.6417,6.6506,6.6568,6.6753,6.7029,6.7076,6.7406,6.7867,6.7403,6.7916,6.8764,6.8764,6.8764,6.8764,0.0,6.8764,6.8675,0.0,6.7867,6.7717,6.7059,0.0,0.0,0.0,0.0,0.0,0.0,6.9579,0.0,0.0,0.0,6.8503,6.7396,0.0,0.0,0.0,0.0,0.0,0.0,0.0,0.0,0.0,0.0,0.0,0.0,0.0,0.0,0.0,0.0,6.9404,6.9803,6.9803,6.97,6.9521,7.025,7.0632,7.0575,7.1434,7.2394,7.3456,7.3113,7.3339,7.4248,7.3901,7.3645,7.3358,7.3337,7.2827,7.193,7.184,7.1452,7.0824,7.0789,7.0854,7.0854,7.0462,7.0593,7.0824,7.0789,7.0854,7.0824,6.3524,6.3491,6.3696,6.397,6.3879,6.3997,6.4533,6.4732,6.5146,6.5846,6.5565,6.5496,6.6011,6.6007,6.5945,6.5756,6.5882,6.6007,6.5915,6.6319,6.6444,6.6319,6.6629,6.6753,6.6568,6.6506,6.6691,6.6999,6.6814,6.6814,6.6999,6.6999,6.6814,6.6506,6.6506,6.6382,6.6224,6.6829,6.7195,6.7317,6.7753,6.8449,6.9093,6.8326,6.8419,6.9004,6.9004,6.9004,6.9004,0.0,6.9004,0.0,0.0,0.0,0.0,6.9154,0.0,0.0,0.0,0.0,0.0,0.0,0.0,0.0,7.0846,0.0,7.0767,0.0,0.0,0.0,0.0,0.0,0.0,0.0,6.7029,0.0,0.0,0.0,0.0,0.0,0.0,0.0,0.0,0.0,0.0,0.0,0.0,7.0002,7.02,7.0238,7.0563,7.1214,7.1444,7.2052,7.3111,7.2908,7.3057,7.3461,7.3325,7.3176,7.3014,7.2693,7.2282,7.1876,7.1487,7.1158,7.0889,7.0889,7.0889,7.0919,7.0789,7.0789,7.0889,7.0889,7.0889,7.0889,6.4188,6.41,6.4162,6.4376,6.4285,6.4494,6.515,6.5496,6.5915,6.6629,6.5978,6.5727,6.6319,6.6007,6.5694,6.5538,6.563,6.5694,6.5538,6.604,6.6319,6.6257,6.6629,6.6814,6.6753,6.6568,6.6691,6.6999,6.6753,6.6753,6.6999,6.6999,6.6814,6.6506,6.6382,6.6284,6.6302,6.6964,6.7386,6.7656,6.8245,6.9184,7.0042,6.9342,6.9257,6.9512,6.9512,6.9512,6.9512,6.9512,6.9512,0.0,6.9333,0.0,0.0,0.0,0.0,0.0,7.1869,0.0,0.0,0.0,0.0,0.0,0.0,0.0,0.0,0.0,0.0,0.0,0.0,0.0,6.8441,6.7426,0.0,6.7031,0.0,0.0,0.0,0.0,0.0,0.0,0.0,0.0,0.0,0.0,0.0,0.0,7.0694,7.0397,7.0539,7.1344,7.1308,7.1636,7.2491,7.2558,7.2744,7.2924,7.2924,7.2804,7.2624,7.2116,7.1787,7.1577,7.1098,7.0889,7.0889,7.0889,7.0889,7.0889,7.0889,7.0889,7.0889,7.0889,7.0889,7.0889,6.5416,6.5416,6.5668,6.6322,6.6136,6.5948,6.5978,6.6007,6.6007,6.6007,6.5756,6.5601,6.5945,6.5441,6.5158,6.5475,6.5222,6.5187,6.5475,6.5819,6.5882,6.5538,6.6165,6.6382,6.6007,6.6319,6.6691,6.6999,6.6999,6.6999,6.6999,6.6999,6.6814,6.6506,6.6132,6.6332,6.6828,6.6539,6.6985,6.7953,6.8602,6.9512,7.0433,7.0729,7.0829,7.0829,7.0829,0.0,0.0,7.0829,7.0829,0.0,0.0,0.0,0.0,0.0,0.0,0.0,0.0,0.0,0.0,7.2679,0.0,0.0,0.0,0.0,7.2058,0.0,0.0,0.0,0.0,0.0,6.8551,6.7904,6.7365,0.0,0.0,0.0,0.0,0.0,0.0,0.0,0.0,0.0,0.0,0.0,0.0,0.0,7.0462,7.0724,7.0593,6.9965,7.0558,7.1082,7.1436,7.1738,7.2265,7.2924,7.2924,7.2565,7.1906,7.1906,7.1547,7.0919,7.0919,7.0889,7.0889,7.0889,7.0889,7.0889,7.0889,7.0889,7.0889,7.0889,7.0889,7.0889,6.6165,6.6007,6.5819,6.5853,6.5945,6.6007,6.6007,6.5819,6.5756,6.5945,6.5664,6.5538,6.5664,6.5475,6.5285,6.5187,6.506,6.506,6.5158,6.5475,6.5601,6.5475,6.6103,6.6444,6.6319,6.6691,6.6876,6.6999,6.6999,6.6999,6.6999,6.6999,6.6937,6.6844,6.6951,6.6934,6.698,6.7736,6.8236,6.8631,6.9803,7.0189,7.0134,0.0,7.0724,7.0889,7.0889,7.0889,0.0,7.0889,7.0889,7.0859,7.0649,7.059,7.0723,7.1342,7.0914,0.0,0.0,0.0,7.0768,7.3225,0.0,0.0,0.0,0.0,0.0,0.0,0.0,0.0,0.0,7.1484,7.0838,6.9835,6.948,6.9459,0.0,0.0,0.0,0.0,0.0,0.0,0.0,0.0,0.0,0.0,0.0,0.0,0.0,7.0824,7.0789,7.0593,7.0759,7.0944,7.1052,7.1183,7.1338,7.1577,7.1577,7.1457,7.1248,7.1248,7.1098,7.0889,7.0889,7.0889,7.0889,7.0889,7.0889,7.0889,7.0889,7.0889,7.1018,7.1855,7.1631,7.0889,6.6319,6.6257,6.6132,6.5853,6.607,6.6195,6.6195,6.579,6.5601,6.5945,6.563,6.5412,6.5664,6.5475,6.5285,6.5187,6.506,6.4996,6.4996,6.5285,6.5475,6.5348,6.5945,6.6257,0.0,0.0,6.6814,6.6814,6.6937,6.6999,6.6999,6.7238,6.7328,6.7358,6.7734,6.7741,6.7688,6.8543,6.8978,6.9148,7.0284,7.0528,0.0,0.0,7.0724,7.0889,0.0,7.0889,7.0889,7.0889,7.0889,7.0889,7.0889,7.0889,7.1083,7.1855,7.1265,7.0645,7.2214,7.1196,0.0,7.3147,7.2782,0.0,7.5364,0.0,0.0,0.0,0.0,0.0,0.0,0.0,7.268,7.1178,7.0978,7.1052,0.0,7.1593,0.0,0.0,0.0,0.0,0.0,0.0,0.0,0.0,7.1375,0.0,0.0,0.0,7.0889,7.0889,7.0889,7.0889,7.0889,7.0889,7.1009,7.1248,7.1009,7.1009,7.1248,7.1009,7.0889,7.0919,7.1375,7.1567,7.1631,7.2046,7.2267,7.2267,7.2267,7.2267,7.2204,7.2172,7.1919,7.1631,6.607,6.6319,6.6506,6.6506,6.6506,6.6444,6.6444,6.5915,6.5601,6.5882,6.5378,6.5251,6.5882,6.5378,6.5124,6.5533,6.5216,6.5054,6.5083,6.5402,6.5436,6.5083,6.5718,6.5908,6.5563,0.0,0.0,0.0,6.6904,6.7089,6.7119,6.7717,6.8016,6.8046,6.8389,6.8724,6.8897,6.8926,6.9112,6.9404,7.0134,7.0593,7.0949,7.0949,7.0979,7.1009,7.0949,7.0949,7.0949,7.0949,7.0919,7.0889,7.0889,7.0889,7.0889,7.0889,7.0889,7.0889,7.0889,7.0889,7.1212,7.2455,0.0,0.0,0.0,0.0,7.6234,0.0,0.0,0.0,0.0,0.0,0.0,7.214,7.1844,7.2038,7.2487,0.0,0.0,0.0,0.0,0.0,0.0,0.0,7.0359,7.1023,7.0954,7.0889,0.0,0.0,7.0889,7.0889,7.0889,7.0889,7.0954,7.0954,7.1348,7.1948,7.1348,7.1343,7.1876,7.1248,7.0949,7.1014,7.2298,7.2798,7.286,7.4202,7.4739,7.4707,7.4739,7.4739,7.441,7.1982,7.1919,7.3231,6.6753,6.6814,6.6876,6.6876,6.6444,6.607,6.579,6.5601,6.5412,6.5314,6.5124,6.506,6.5251,6.5124,6.5234,6.5763,6.5693,6.5896,6.636,6.652,6.652,6.6389,6.6808,6.7002,6.6938,6.758,0.0,6.7931,6.8277,6.8495,6.8495,6.8645,6.8734,6.8764,6.9359,6.9362,6.8926,6.969,6.992,6.9803,7.02,7.076,7.1272,0.0,7.1936,7.2325,7.1816,7.1637,7.1637,7.1637,7.1308,7.0889,7.0889,7.0889,7.0889,7.0889,7.0889,7.0889,7.0889,7.0889,7.1212,7.2455,7.2208,7.2428,0.0,0.0,0.0,0.0,0.0,0.0,0.0,0.0,0.0,7.5046,7.4694,7.4406,0.0,0.0,0.0,7.3337,0.0,0.0,0.0,7.1656,7.1967,7.3596,7.1982,7.0889,0.0,0.0,0.0,7.0889,7.0889,7.1375,7.2267,7.233,7.2422,7.2605,7.2911,7.2611,7.1876,7.1697,7.1637,7.1673,7.2481,7.2798,7.2953,7.4736,7.5182,7.4771,7.5276,7.5182,7.4589,7.393,7.512,7.679,6.6999,6.6876,6.6753,6.6568,6.6132,6.5756,6.5756,6.5836,6.5757,6.5467,6.5635,6.5809,6.5809,6.5809,6.5954,6.6331,6.636,6.6506,6.6854,6.6883,6.6883,6.6883,6.708,6.7174,6.7174,6.7859,0.0,6.8181,6.8721,6.9004,6.9004,6.9303,6.9423,6.9453,7.0111,7.0057,6.9601,7.0153,7.0545,7.0813,7.101,7.1493,0.0,7.2289,7.2744,7.3283,7.2894,7.2595,7.2325,7.2325,7.2086,7.1787,7.1787,7.1577,7.1338,7.1338,7.1128,7.0889,7.0889,7.0889,7.1083,7.1792,7.1855,7.2267,7.447,7.5237,7.5605,0.0,0.0,0.0,0.0,0.0,0.0,7.6716,7.6192,0.0,0.0,0.0,0.0,0.0,7.4563,0.0,0.0,7.3151,7.3211,7.4585,7.286,0.0,0.0,0.0,0.0,7.1728,7.1212,7.1792,7.3567,7.3108,7.32,7.4095,7.4188,7.4098,7.4022,7.3715,7.3746,7.4118,7.4994,7.5444,7.5504,7.6875,7.7202,7.6847,7.6944,7.675,7.6363,7.6363,7.6902,7.7577,6.6876,6.6813,6.6562,6.628,6.5996,6.5928,6.621,6.6275,6.6277,6.6041,6.6535,6.6883,6.6883,6.6883,6.6912,6.6999,6.6999,6.7057,6.7115,6.7144,6.7144,6.7144,6.7144,6.7144,6.7144,6.7734,6.8124,0.0,6.8861,6.918,6.9273,6.9842,7.0111,7.0141,7.0679,7.0694,7.0462,7.0486,7.104,7.1876,7.1996,7.2349,7.3043,7.3043,7.3462,7.4031,7.4031,7.3612,7.3043,7.3043,7.2984,7.2924,7.2924,7.2505,7.2092,7.2259,7.1738,7.1193,7.1298,7.1138,7.1009,7.0919,7.1728,7.258,7.2736,7.4648,7.6363,7.6363,7.7379,7.7938,0.0,0.0,0.0,0.0,0.0,0.0,0.0,0.0,0.0,0.0,0.0,0.0,0.0,0.0,7.4214,7.4912,7.3749,0.0,0.0,0.0,0.0,7.2984,7.1982,0.0,7.4944,0.0,7.4122,7.5772,7.5324,7.5617,7.6635,7.613,7.6285,7.6946,7.826,7.8784,7.8867,7.9474,7.9703,7.9571,7.8809,7.8511,7.8511,7.8511,7.7862,7.7176,6.6629,6.717,6.762,6.7308,6.7373,6.7535,6.7535,6.6639,6.6193,6.6651,6.6825,6.6883,6.6883,6.6883,6.7115,6.7667,6.7696,0.0,0.0,0.0,0.0,6.8479,6.8479,6.8479,6.8479,6.8882,6.9214,0.0,0.0,7.0301,7.056,7.0679,7.0739,7.0739,7.0859,7.0854,7.0819,7.0792,0.0,7.1936,7.2172,7.2865,7.3732,7.3732,7.4121,7.4689,7.4689,7.427,7.3732,7.3732,7.3373,7.2924,7.2924,7.2834,7.2913,7.4066,7.3486,7.2679,7.3211,7.2577,7.1577,7.1038,7.1083,7.1503,7.258,7.393,7.5002,7.5002,7.6021,7.6846,7.6621,0.0,0.0,0.0,0.0,0.0,0.0,0.0,0.0,0.0,0.0,7.7179,0.0,0.0,0.0,0.0,0.0,0.0,0.0,0.0,0.0,0.0,7.4171,0.0,0.0,0.0,7.6085,7.6442,7.6894,7.6667,7.588,7.6414,7.6698,7.6854,7.826,7.8784,7.8899,8.0056,8.0167,7.9571,7.8809,7.8511,7.8511,7.8511,7.8746,7.9133,6.6793,6.7516,6.7961,6.7324,6.7395,6.7682,6.7874,6.7342,6.7057,6.7347,6.7696,6.7899,6.7899,6.7899,6.8015,6.8334,6.8363,6.8509,6.8799,6.8828,6.8828,6.8828,6.8828,6.8828,6.8828,6.9165,6.947,6.9869,0.0,7.0563,7.0889,7.0889,7.0889,7.0919,7.1248,7.1398,7.1457,0.0,0.0,7.2954,7.3081,7.3686,7.439,7.439,7.4599,7.4869,7.4869,7.4659,7.439,7.439,7.418,7.3941,7.3941,7.3702,7.3537,7.4208,7.3666,7.3136,7.4142,7.3923,7.3286,7.2618,7.2435,7.2535,7.2766,7.3749,7.4885,7.556,7.6677,7.7577,7.7577,7.8101,0.0,0.0,0.0,0.0,0.0,0.0,0.0,0.0,0.0,0.0,0.0,0.0,0.0,0.0,0.0,0.0,0.0,0.0,0.0,0.0,0.0,0.0,0.0,0.0,0.0,7.7577,7.7904,7.793,7.7779,7.8492,7.9011,7.9458,8.0484,8.0681,8.0344,8.0212,7.9703,7.9007,7.8676,7.8511,7.8577,7.8941,7.9339,7.9583,6.7191,6.7914,6.8324,6.7349,6.7531,6.7889,6.8119,6.8256,6.8247,6.8102,6.8625,6.9031,6.9031,6.9147,6.9234,6.9234,6.9234,6.9234,6.9234,6.9234,6.9234,6.9234,6.9234,6.9234,6.9234,6.9544,6.9822,0.0,0.0,0.0,7.0789,7.0973,7.1188,7.1368,7.1876,0.0,0.0,0.0,7.3432,7.3911,7.4061,7.442,7.4869,7.4869,7.4869,7.4869,7.4869,7.4869,7.4869,7.4869,7.4869,7.4869,7.4869,7.451,7.4158,7.4496,7.4001,7.3654,7.5107,7.5301,7.5019,7.4655,7.4532,7.4408,7.3788,7.4516,7.5608,7.6621,7.773,7.8511,7.8511,7.8511,0.0,0.0,0.0,0.0,0.0,0.0,0.0,0.0,0.0,0.0,0.0,0.0,0.0,0.0,0.0,7.6958,7.6958,7.6078,0.0,0.0,0.0,7.6508,7.8457,0.0,7.7522,0.0,7.8511,7.8809,7.9351,8.0134,8.0763,8.1359,8.2121,8.2022,8.1227,8.0101,7.9206,7.8511,7.8511,7.861,7.8809,7.9405,7.9836,8.0101,6.7835,6.8625,6.9068,6.8349,6.8714,6.9124,6.9182,6.9409,6.9379,6.8828,6.9292,6.9699,6.9699,7.0192,7.0541,7.0541,7.0541,7.0541,7.0541,7.0541,7.0541,7.0541,7.0541,7.0541,7.0541,7.0886,7.0868,0.0,0.0,0.0,0.0,7.1386,7.2116,0.0,0.0,0.0,0.0,7.3522,7.3821,7.3941,7.454,7.4809,7.4869,7.4869,7.4869,7.4869,7.4869,7.4869,7.4869,7.4869,7.4869,7.4869,7.4869,7.4839,7.5052,7.6238,7.5674,7.512,7.7057,7.6744,7.5985,7.6459,7.6608,7.6577,7.6514,7.6965,7.7478,7.7593,7.8091,7.8511,7.8511,7.8511,7.8511,0.0,0.0,0.0,0.0,0.0,0.0,0.0,0.0,0.0,0.0,7.8511,0.0,0.0,7.8403,7.835,7.835,7.8209,7.8209,7.835,0.0,7.8296,7.8511,7.8403,0.0,7.8511,7.8511,7.8544,7.8643,7.9405,7.9769,7.9869,8.0598,8.0498,7.9836,7.967,7.9206,7.8511,7.8511,7.8941,7.9537,7.9604,8.0465,8.1591,6.8187,6.8847,6.9339,6.9281,0.0,0.0,0.0,7.0232,7.025,6.9989,7.0192,7.0337,7.0337,7.057,7.0784,7.1061,7.1061,7.113,7.1336,7.1405,7.1268,7.1061,7.1061,7.1061,7.1061,7.1199,7.1425,0.0,0.0,0.0,0.0,0.0,0.0,0.0,0.0,7.3492,7.3552,7.421,7.448,7.451,7.4779,7.4869,7.4869,7.4869,7.4869,7.4869,7.4869,7.4869,7.4869,7.4869,7.4869,7.4869,7.4869,7.4869,7.5006,7.5519,7.5893,7.6467,7.8062,7.8716,7.8865,7.8707,7.8726,7.8597,7.818,7.8209,7.8567,7.9337,7.9309,7.9041,7.861,7.8511,7.8511,0.0,0.0,0.0,0.0,0.0,0.0,0.0,0.0,0.0,0.0,0.0,7.8511,0.0,0.0,0.0,7.8511,7.8511,0.0,7.8511,0.0,7.8511,7.8511,7.8511,7.8511,7.8511,7.8511,7.8511,7.8544,7.9218,7.9869,8.0266,8.0101,7.9902,7.9604,7.9086,7.8776,7.8577,7.9007,7.9372,7.9736,8.0598,8.1293,8.1856,6.8927,0.0,6.9699,0.0,7.0047,7.0192,7.0657,7.0889,7.1005,7.1005,7.115,7.1208,7.1005,7.115,7.1336,7.1685,7.1685,7.1754,7.2031,7.2031,7.1962,7.1685,7.1685,0.0,7.1824,7.1962,7.215,7.2548,7.2722,0.0,0.0,0.0,0.0,0.0,7.3971,7.418,7.421,7.4689,7.4869,7.4869,7.4869,7.4869,7.4869,7.4869,7.4869,7.4869,7.4869,7.4869,7.4869,7.4869,7.4869,7.4869,7.4869,7.4869,7.4869,7.4869,7.5826,7.7219,7.8534,7.9899,8.0858,8.0808,8.0794,8.0663,8.0083,7.9822,7.9912,8.0531,8.0134,7.9417,7.8941,7.8676,7.8511,7.8511,0.0,0.0,0.0,0.0,0.0,0.0,7.8511,7.8511,7.8511,7.8511,0.0,0.0,0.0,0.0,0.0,0.0,0.0,0.0,0.0,0.0,0.0,7.8511,7.8511,7.8511,7.8511,7.8511,7.8544,7.9218,7.9902,8.0366,8.0067,7.9935,7.9902,7.9372,7.9173,7.9206,7.9736,8.0067,8.0399,8.1426,8.1923,8.2188,7.0156,7.0273,7.0371,7.0668,7.0715,7.0715,7.0715,7.1266,7.1673,7.1673,7.2195,7.234,7.1731,7.2224,7.2602,7.2602,7.2602,7.2602,7.2602,7.2602,7.2602,0.0,0.0,7.2744,7.3199,7.3551,7.3437,7.2788,0.0,0.0,7.2387,0.0,7.424,7.4869,7.4869,7.4869,7.4869,7.4869,7.4869,7.4869,7.4869,7.4869,7.4869,7.4869,7.4869,7.4869,7.4869,7.4869,7.4869,7.4869,7.4869,7.4869,7.4869,7.4869,7.4869,7.4869,7.5826,7.7219,7.8534,7.9899,8.1225,8.251,8.2883,8.2883,8.2883,8.232,8.1558,8.0829,8.0134,7.9583,7.9604,7.9007,7.8511,7.8511,0.0,0.0,0.0,0.0,0.0,0.0,7.8511,7.8511,7.8511,0.0,0.0,0.0,0.0,0.0,0.0,0.0,0.0,7.8511,7.8511,0.0,7.8511,7.8511,7.8511,7.8511,7.8511,7.8511,7.8544,7.9218,7.9583,7.967,8.0366,8.0664,8.0664,8.0664,8.0664,8.0664,8.0664,8.1128,8.179,8.179,8.2254,8.2883,7.0504,7.0563,7.0766,7.1266,7.1382,7.1498,7.1934,7.2195,7.2311,7.2311,7.2485,7.2544,7.234,7.2485,7.2702,0.0,7.2986,7.3128,0.0,7.341,7.3269,7.2986,7.2986,7.3057,7.3228,7.3551,7.3812,7.3813,0.0,0.0,0.0,7.4411,7.4689,7.4869,7.4869,7.4869,7.4869,7.4869,7.4869,7.4869,7.4869,7.4869,7.4869,7.4869,7.4869,7.4869,7.4869,7.4869,7.4869,7.4869,7.4869,7.4869,7.4869,7.5519,7.6263,7.6263,7.7834,7.9716,8.0142,8.1225,8.2338,8.277,8.2883,8.2883,8.2883,8.2718,8.232,8.1591,8.126,8.0962,8.0432,7.9769,7.9272,7.9272,0.0,0.0,0.0,0.0,0.0,0.0,7.8511,7.8511,0.0,7.8511,0.0,0.0,0.0,0.0,0.0,0.0,0.0,0.0,7.8511,0.0,7.8511,7.8511,7.8511,7.8511,7.8511,7.8776,7.9272,7.9504,7.9902,8.0366,8.0598,8.0697,8.0697,8.0697,8.0697,8.073,8.1227,8.1591,8.1856,8.2353,8.2684,8.2883,7.1034,7.1092,7.1266,7.1905,7.2021,7.2166,7.2544,7.2602,7.2602,7.2602,7.2602,7.2702,7.2844,7.2702,0.0,7.2915,7.2986,7.3128,7.3551,7.3551,7.351,7.3439,7.3439,7.348,7.3621,0.0,0.0,7.4525,7.48,7.4869,7.4869,7.4869,7.4869,7.4869,7.4869,7.4869,7.4869,7.4869,7.4869,7.4869,7.4869,7.4869,7.4869,7.4869,7.4869,7.4869,7.4869,7.4869,7.4869,7.4869,7.4869,7.5006,7.5519,7.6594,7.7512,7.7023,7.8785,8.0928,8.0928,8.1901,8.2883,8.2883,8.2883,8.2883,8.2883,8.2883,8.2784,8.232,8.1989,8.1658,8.1194,8.0498,8.0034,8.0034,7.9405,7.8941,7.8941,0.0,0.0,0.0,0.0,0.0,0.0,7.8511,0.0,0.0,0.0,0.0,0.0,0.0,0.0,7.8511,7.8511,0.0,7.8511,7.8511,7.8511,7.8511,7.8809,7.9119,7.9637,8.02,8.0697,8.1128,8.1393,8.1525,8.1525,8.1525,8.1525,8.1558,8.2022,8.2221,8.2254,8.2718,8.2883,8.2883,7.1615,7.1731,0.0,0.0,7.2602,0.0,7.2602,7.2602,7.2602,7.2602,7.2602,7.2773,7.3157,7.2844,7.2602,7.2631,0.0,0.0,0.0,7.3228,7.3439,7.3761,7.3761,7.397,7.4248,7.4318,7.4525,7.4869,7.4869,7.4869,7.4869,7.4869,7.4869,7.4869,7.4869,7.4869,7.4869,7.4869,7.4869,7.4869,7.4869,7.4869,7.4869,7.4869,7.4869,7.4869,7.4869,7.4869,7.4937,7.5006,7.5074,7.5248,7.6594,7.7962,7.8754,7.7543,7.9035,8.1047,8.1047,8.1959,8.2883,8.2883,8.2883,8.2883,8.2883,8.2883,8.2883,8.2883,8.2353,8.1889,8.1889,8.126,8.0763,8.0763,8.0167,7.9703,7.9703,0.0,0.0,0.0,0.0,0.0,0.0,7.8511,7.8511,0.0,0.0,0.0,0.0,0.0,7.8511,7.8511,7.8511,7.8511,7.8511,7.8511,7.8544,7.861,7.9306,7.967,7.9836,8.1161,8.1823,8.1889,8.2585,8.2883,8.2883,8.2883,8.2883,8.2883,8.2883,8.2883,8.2883,8.2883,8.2883,8.2883,0.0,0.0,7.2427,7.2602,7.2602,7.2602,7.2602,7.2602,7.2602,7.2602,7.2602,7.2631,7.2773,7.2702,7.2702,7.2986,7.3057,7.3199,7.365,7.365,7.372,7.3761,7.3761,7.386,7.3901,7.4179,7.4525,7.4869,7.4869,7.4869,7.4869,7.4869,7.4869,7.4869,7.4869,7.4869,7.4869,7.4869,7.4869,7.4869,7.4869,7.4869,7.4869,7.4869,7.4869,7.4869,7.4869,7.4869,7.5074,7.6094,7.6396,7.666,7.8026,7.9346,8.0356,8.0053,8.1166,8.2395,8.2395,8.2656,8.2883,8.2883,8.2883,8.2883,8.2883,8.2883,8.2883,8.2883,8.2751,8.2651,8.2651,8.2022,8.1525,8.1525,8.0929,8.0432,8.0432,0.0,0.0,0.0,7.8875,7.8511,7.8511,7.8511,7.8511,0.0,0.0,0.0,0.0,7.8511,7.8511,7.8511,7.8511,7.8511,7.8511,7.8511,7.8809,7.9318,7.9483,8.02,8.1293,8.1624,8.2121,8.2651,8.2817,8.2883,8.2883,8.2883,8.2883,8.2883,8.2883,8.2883,8.2883,8.2883,8.2883,8.2883,7.2602,7.2602,7.2702,7.2844,7.2844,7.2915,7.3128,7.2986,7.2915,7.3128,7.2986,7.2915,7.3128,7.2986,7.3128,7.3621,7.341,7.3369,7.3761,7.3901,7.404,7.404,7.4179,7.4318,7.4318,7.4456,7.4663,7.4869,7.4869,7.4869,7.4869,7.4869,7.4869,7.4869,7.4869,7.4869,7.4869,7.4869,7.4869,7.4869,7.4869,7.4869,7.4869,7.4869,7.4869,7.4869,7.4869,7.4869,7.5006,7.5759,7.6396,7.7154,7.8471,7.9838,8.1047,8.1668,8.2338,8.2883,8.2883,8.2883,8.2883,8.2883,8.2883,8.2883,8.2883,8.2883,8.2883,8.2883,8.2883,8.2883,8.2883,8.2552,8.2287,8.2287,8.1691,8.1194,8.1194,8.0564,0.0,8.0101,7.9769,7.9504,7.9504,7.9206,7.9041,7.9041,0.0,0.0,7.8511,7.8511,7.8511,7.8511,7.8511,7.8511,7.8511,7.8842,7.9405,8.0134,8.0465,8.1028,8.179,8.2154,8.2519,8.2883,8.2883,8.2883,8.2883,8.2883,8.2883,8.2883,8.2883,8.2883,8.2883,8.2883,8.2883,8.2883,7.2602,7.2602,7.2773,7.3157,7.3228,7.3369,7.3761,7.351,7.341,7.3761,7.351,7.3439,7.3761,7.351,7.3551,7.4248,7.3691,7.3551,7.3901,7.4248,7.4387,7.4387,7.4731,7.4869,7.4869,7.4869,7.4869,7.4869,7.4869,7.4869,7.4869,7.4869,7.4869,7.4869,7.4869,7.4869,7.4869,7.4869,7.4869,7.4869,7.4869,7.4869,7.4869,7.4869,7.4869,7.4869,7.4869,7.4869,7.4937,7.5142,7.6063,7.7478,7.8785,8.0142,8.1401,8.26,8.2883,8.2883,8.2883,8.2883,8.2883,8.2883,8.2883,8.2883,8.2883,8.2883,8.2883,8.2883,8.2883,8.2883,8.2883,8.2883,8.2883,8.2883,8.2353,8.1956,8.1956,0.0,8.0863,8.0863,8.0763,8.0697,8.0697,8.0134,7.9802,7.9802,7.9206,7.8842,0.0,7.8842,7.8842,7.8842,7.8742,7.8742,7.8842,7.9471,8.0134,8.0863,8.1492,8.1856,8.1989,8.2618,8.2883,8.2883,8.2883,8.2883,8.2883,8.2883,8.2883,8.2883,8.2883,8.2883,8.2883,8.2883,8.2883,8.2883,7.2602,7.2602,7.2773,7.3157,7.3228,7.3369,7.3761,7.3761,7.3691,7.3761,7.3761,7.3691,7.3761,7.3761,7.3831,7.4248,7.4179,7.4318,7.4663,7.48,7.48,7.48,7.4869,7.4869,7.4869,7.4869,7.4869,7.4869,7.4869,7.4869,7.4869,7.4869,7.4869,7.4869,7.4869,7.4869,7.4869,7.4869,7.4869,7.4869,7.4869,7.4869,7.4869,7.4869,7.4869,7.4869,7.4869,7.4869,7.5074,7.6197,7.7447,7.8816,8.0142,8.1519,8.2656,8.2827,8.2883,8.2883,8.2883,8.2883,8.2883,8.2883,8.2883,8.2883,8.2883,8.2883,8.2883,8.2883,8.2883,8.2883,8.2883,8.2883,8.2883,8.2883,8.2784,8.2718,8.2718,0.0,8.1624,8.1624,8.1061,8.0697,8.0697,8.0598,8.0531,8.0531,8.0399,8.0366,8.0366,8.0366,8.0366,8.0366,7.9769,7.9736,8.0332,8.0465,8.0896,8.1624,8.1757,8.2121,8.2718,8.285,8.2883,8.2883,8.2883,8.2883,8.2883,8.2883,8.2883,8.2883,8.2883,8.2883,8.2883,8.2883,8.2883,8.2883,7.2915,7.3128,7.334,7.3691,7.3761,7.3901,7.4318,7.4179,7.411,7.4387,7.4179,7.404,7.404,7.404,7.411,7.4248,7.4318,7.4456,7.4869,7.4869,7.48,7.4594,7.48,7.4869,7.4869,7.4869,7.4869,7.4869,7.4869,7.4869,7.4869,7.4869,7.4869,7.4869,7.4869,7.4869,7.4869,7.4869,7.4869,7.4869,7.4869,7.4869,7.4869,7.4869,7.4869,7.4869,7.4869,7.4869,7.5142,7.6462,7.777,7.9128,8.0477,8.1843,8.2883,8.2883,8.2883,8.2883,8.2883,8.2883,8.2883,8.2883,8.2883,8.2883,8.2883,8.2883,8.2883,8.2883,8.2883,8.2883,8.2883,8.2883,8.2883,8.2883,8.2883,0.0,0.0,8.2618,8.2386,8.2386,8.2088,8.1889,8.1889,8.1525,8.1293,8.1293,8.0896,8.0697,8.0697,8.0697,8.0863,8.126,8.0564,8.0564,8.1293,8.1293,8.1658,8.2386,8.2386,8.2552,8.2883,8.2883,8.2883,8.2883,8.2883,8.2883,8.2883,8.2883,8.2883,8.2883,8.2883,8.2883,8.2883,8.2883,8.2883,8.2883,7.3157,7.3439,7.3761,7.4248,7.4318,7.4456,7.48,7.4663,7.4525,7.4869,7.4594,7.4456,7.4456,7.4456,7.4456,7.4456,7.4456,7.4594,7.4869,7.4869,7.4731,7.4456,7.4731,7.4869,7.4869,7.4869,7.4869,7.4869,7.4869,7.4869,7.4869,7.4869,7.4869,7.4869,7.4869,7.4869,7.4869,7.4869,7.4869,7.4869,7.4869,7.4869,7.4869,7.4869,7.4869,7.4869,7.4869,7.4869,7.5142,7.6462,7.777,7.9128,8.0477,8.1843,8.2883,8.2883,8.2883,8.2883,8.2883,8.2883,8.2883,8.2883,8.2883,8.2883,8.2883,8.2883,8.2883,8.2883,8.2883,8.2883,8.2883,8.2883,8.2883,8.2883,0.0,0.0,0.0,8.2883,8.2883,8.2883,8.2883,8.2883,8.2883,8.2386,8.2055,8.2055,8.1525,8.1194,8.1194,8.1194,8.1459,8.2022,8.1492,8.1459,8.2055,8.2055,8.232,8.2883,8.2883,8.2883,8.2883,8.2883,8.2883,8.2883,8.2883,8.2883,8.2883,8.2883,8.2883,8.2883,8.2883,8.2883,8.2883,8.2883,8.2883,8.2883,7.3157,7.3228,7.348,7.4179,7.4318,7.4456,7.48,7.4869,7.4869,7.4869,7.4869,7.4869,7.4869,7.4869,7.4869,7.4869,7.4869,7.4869,7.4869,7.4869,7.4869,7.4869,7.4869,7.4869,7.4869,7.4869,7.4869,7.4869,7.4869,7.4869,7.4869,7.4869,7.4869,7.4869,7.4869,7.4869,7.4869,7.4869,7.4869,7.4869,7.4869,7.4869,7.4869,7.4869,7.4869,7.4869,7.4869,7.4869,7.5142,7.6462,7.777,7.9128,8.0477,8.1843,8.2883,8.2883,8.2883,8.2883,8.2883,8.2883,8.2883,8.2883,8.2883,8.2883,8.2883,8.2883,8.2883,8.2883,8.2883,8.2883,8.2883,8.2883,8.2883,8.2883,0.0,0.0,8.2883,8.2883,8.2883,8.2883,8.2883,8.2883,8.2883,8.285,8.2817,8.2817,8.2784,8.2751,8.2751,8.2751,8.2751,8.2817,8.2751,8.2751,8.2817,8.2817,8.285,8.2883,8.2883,8.2883,8.2883,8.2883,8.2883,8.2883,8.2883,8.2883,8.2883,8.2883,8.2883,8.2883,8.2883,8.2883,8.2883,8.2883,8.2883,8.2883,7.348,7.3761,7.404,7.4594,7.4663,7.4731,7.4869,7.4869,7.4869,7.4869,7.4869,7.4869,7.4869,7.4869,7.4869,7.4869,7.4869,7.4869,7.4869,7.4869,7.4869,7.4869,7.4869,7.4869,7.4869,7.4869,7.4869,7.4869,7.4869,7.4869,7.4869,7.4869,7.4869,7.4869,7.4869,7.4869,7.4869,7.4869,7.4869,7.4869,7.4869,7.4869,7.4869,7.4869,7.4869,7.4869,7.4869,7.5452,7.6329,7.7705,7.9035,8.0384,8.1727,8.2452,8.2883,8.2883,8.2883,8.2883,8.2883,8.2883,8.2883,8.2883,8.2883,8.2883,8.2883,8.2883,8.2883,8.2883,8.2883,8.2883,8.2883,8.2883,8.2883,8.2883,0.0,8.2883,8.2883,8.2883,8.2883,8.2883,8.2883,8.2883,8.2883,8.2883,8.2883,8.2883,8.2883,8.2883,8.2883,8.2883,8.2883,8.2883,8.2883,8.2883,8.2883,8.2883,8.2883,8.2883,8.2883,8.2883,8.2883,8.2883,8.2883,8.2883,8.2883,8.2883,8.2883,8.2883,8.2883,8.2883,8.2883,8.2883,8.2883,8.2883,8.2883,8.2817,7.3691,7.404,7.4456,7.48,7.4869,7.4869,7.4869,7.4869,7.4869,7.4869,7.4869,7.4869,7.4869,7.4869,7.4869,7.4869,7.4869,7.4869,7.4869,7.4869,7.4869,7.4869,7.4869,7.4869,7.4869,7.4869,7.4869,7.4869,7.4869,7.4869,7.4869,7.4869,7.4869,7.4869,7.4869,7.4869,7.4869,7.4869,7.4869,7.4869,7.4869,7.4869,7.4869,7.4869,7.4869,7.4937,7.5384,7.616,7.7154,7.8973,8.0142,8.1166,8.2452,8.2883,8.2883,8.2883,8.2883,8.2883,8.2883,8.2883,8.2883,8.2883,8.2883,8.2883,8.2883,8.2883,8.2883,8.2883,8.2883,8.2883,8.2883,8.2883,8.2883,8.2883,8.2883,8.2883,8.2883,8.2883,8.2883,8.2883,8.2883,8.2883,8.2883,8.2883,8.2883,8.2883,8.2883,8.2883,8.2883,8.2883,8.2883,8.2883,8.2883,8.2883,8.2883,8.2883,8.2883,8.2883,8.2883,8.2883,8.2883,8.2883,8.2883,8.2883,8.2883,8.2883,8.2883,8.2883,8.2883,8.2883,8.2883,8.2883,8.2883,8.2883,8.2883,8.2784,7.372,7.404,7.4456,7.48,7.4869,7.4869,7.4869,7.4869,7.4869,7.4869,7.4869,7.4869,7.4869,7.4869,7.4869,7.4869,7.4869,7.4869,7.4869,7.4869,7.4869,7.4869,7.4869,7.4869,7.4869,7.4869,7.4869,7.4869,7.4869,7.4869,7.4869,7.4869,7.4869,7.4869,7.4869,7.4869,7.4869,7.4869,7.4869,7.4869,7.4869,7.4869,7.4869,7.4869,7.4869,7.5074,7.6396,7.6923,7.7349,7.996,8.0928,8.1166,8.2452,8.2883,8.2883,8.2883,8.2883,8.2883,8.2883,8.2883,8.2883,8.2883,8.2883,8.2883,8.2883,8.2883,8.2883,8.2883,8.2883,8.2883,8.2883,8.2883,8.2883,8.2883,8.2883,8.2883,8.2883,8.2883,8.2883,8.2883,8.2883,8.2883,8.2883,8.2883,8.2883,8.2883,8.2883,8.2883,8.2883,8.2883,8.2883,8.2883,8.2883,8.2883,8.2883,8.2883,8.2883,8.2883,8.2883,8.2883,8.2883,8.2883,8.2883,8.2883,8.2883,8.2883,8.2883,8.2883,8.2883,8.2883,8.2883,8.2883,8.2883,8.2883,8.2883,8.2784,7.411,7.4248,7.4456,7.48,7.4869,7.4869,7.4869,7.4869,7.4869,7.4869,7.4869,7.4869,7.4869,7.4869,7.4869,7.4869,7.4869,7.4869,7.4869,7.4869,7.4869,7.4869,7.4869,7.4869,7.4869,7.4869,7.4869,7.4869,7.4869,7.4869,7.4869,7.4869,7.4869,7.4869,7.4869,7.4869,7.4869,7.4869,7.4869,7.4869,7.4869,7.4869,7.4869,7.4869,7.4869,7.4937,7.5316,7.6695,7.8407,7.9222,8.0777,8.2338,8.277,8.2883,8.2883,8.2883,8.2883,8.2883,8.2883,8.2883,8.2883,8.2883,8.2883,8.2883,8.2883,8.2883,8.2883,8.2883,8.2883,8.2883,8.2883,8.2883,8.2883,8.2883,8.2883,8.2883,8.2883,8.2883,8.2883,8.2883,8.2883,8.2883,8.2883,8.2883,8.2883,8.2883,8.2883,8.2883,8.2883,8.2883,8.2883,8.2883,8.2883,8.2883,8.2883,8.2883,8.2883,8.2883,8.2883,8.2883,8.2883,8.2883,8.2883,8.2883,8.2883,8.2883,8.2883,8.2883,8.2883,8.2883,8.2883,8.2883,8.2883,8.2883,8.2552,8.2022,7.4248,7.4456,7.4594,7.4869,7.4869,7.4869,7.4869,7.4869,7.4869,7.4869,7.4869,7.4869,7.4869,7.4869,7.4869,7.4869,7.4869,7.4869,7.4869,7.4869,7.4869,7.4869,7.4869,7.4869,7.4869,7.4869,7.4869,7.4869,7.4869,7.4869,7.4869,7.4869,7.4869,7.4869,7.4869,7.4869,7.4869,7.4869,7.4869,7.4869,7.4869,7.4869,7.4869,7.4869,7.4869,7.4937,7.5519,7.7089,7.8941,7.9531,8.1133,8.2883,8.2883,8.2883,8.2883,8.2883,8.2883,8.2883,8.2883,8.2883,8.2883,8.2883,8.2883,8.2883,8.2883,8.2883,8.2883,8.2883,8.2883,8.2883,8.2883,8.2883,8.2883,8.2883,8.2883,8.2883,8.2883,8.2883,8.2883,8.2883,8.2883,8.2883,8.2883,8.2883,8.2883,8.2883,8.2883,8.2883,8.2883,8.2883,8.2883,8.2883,8.2883,8.2883,8.2883,8.2883,8.2883,8.2883,8.2883,8.2883,8.2883,8.2883,8.2883,8.2883,8.2883,8.2883,8.2883,8.2883,8.2883,8.2883,8.2883,8.2883,8.2883,8.2883,8.2618,8.2121,7.4318,7.4663,7.4869,7.4869,7.4869,7.4869,7.4869,7.4869,7.4869,7.4869,7.4869,7.4869,7.4869,7.4869,7.4869,7.4869,7.4869,7.4869,7.4869,7.4869,7.4869,7.4869,7.4869,7.4869,7.4869,7.4869,7.4869,7.4869,7.4869,7.4869,7.4869,7.4869,7.4869,7.4869,7.4869,7.4869,7.4869,7.4869,7.4869,7.4869,7.4869,7.4869,7.4869,7.4869,7.4869,7.5074,7.6396,7.777,7.9128,8.0597,8.1901,8.2883,8.2883,8.2883,8.2883,8.2883,8.2883,8.2883,8.2883,8.2883,8.2883,8.2883,8.2883,8.2883,8.2883,8.2883,8.2883,8.2883,8.2883,8.2883,8.2883,8.2883,8.2883,8.2883,8.2883,8.2883,8.2883,8.2883,8.2883,8.2883,8.2883,8.2883,8.2883,8.2883,8.2883,8.2883,8.2883,8.2883,8.2883,8.2883,8.2883,8.2883,8.2883,8.2883,8.2883,8.2883,8.2883,8.2883,8.2883,8.2883,8.2883,8.2883,8.2883,8.2883,8.2883,8.2883,8.2883,8.2883,8.2883,8.2883,8.2883,8.2883,8.2883,8.2883,8.285,8.2684,7.4731,7.48,7.4869,7.4869,7.4869,7.4869,7.4869,7.4869,7.4869,7.4869,7.4869,7.4869,7.4869,7.4869,7.4869,7.4869,7.4869,7.4869,7.4869,7.4869,7.4869,7.4869,7.4869,7.4869,7.4869,7.4869,7.4869,7.4869,7.4869,7.4869,7.4869,7.4869,7.4869,7.4869,7.4869,7.4869,7.4869,7.4869,7.4869,7.4869,7.4869,7.4869,7.4869,7.4869,7.4869,7.5074,7.6396,7.777,7.9252,8.1636,8.2656,8.2883,8.2883,8.2883,8.2883,8.2883,8.2883,8.2883,8.2883,8.2883,8.2883,8.2883,8.2883,8.2883,8.2883,8.2883,8.2883,8.2883,8.2883,8.2883,8.2883,8.2883,8.2883,8.2883,8.2883,8.2883,8.2883,8.2883,8.2883,8.2883,8.2883,8.2883,8.2883,8.2883,8.2883,8.2883,8.2883,8.2883,8.2883,8.2883,8.2883,8.2883,8.2883,8.2883,8.2883,8.2883,8.2883,8.2883,8.2883,8.2883,8.2883,8.2883,8.2883,8.2883,8.2883,8.2883,8.2883,8.2883,8.2883,8.2883,8.2883,8.2883,8.2883,8.2883,8.2519,8.1923,7.4869,7.4869,7.4869,7.4869,7.4869,7.4869,7.4869,7.4869,7.4869,7.4869,7.4869,7.4869,7.4869,7.4869,7.4869,7.4869,7.4869,7.4869,7.4869,7.4869,7.4869,7.4869,7.4869,7.4869,7.4869,7.4869,7.4869,7.4869,7.4869,7.4869,7.4869,7.4869,7.4869,7.4869,7.4869,7.4869,7.4869,7.4869,7.4869,7.4869,7.4869,7.4869,7.4869,7.4869,7.4869,7.5006,7.5691,7.7219,7.9314,8.2017,8.2883,8.2883,8.2883,8.2883,8.2883,8.2883,8.2883,8.2883,8.2883,8.2883,8.2883,8.2883,8.2883,8.2883,8.2883,8.2883,8.2883,8.2883,8.2883,8.2883,8.2883,8.2883,8.2883,8.2883,8.2883,8.2883,8.2883,8.2883,8.2883,8.2883,8.2883,8.2883,8.2883,8.2883,8.2883,8.2883,8.2883,8.2883,8.2883,8.2883,8.2883,8.2883,8.2883,8.2883,8.2883,8.2883,8.2883,8.2883,8.2883,8.2883,8.2883,8.2883,8.2883,8.2883,8.2883,8.2883,8.2883,8.2883,8.2883,8.2883,8.2883,8.2883,8.2883,8.2883,8.2651,8.2221,7.4869,7.4869,7.4869,7.4869,7.4869,7.4869,7.4869,7.4869,7.4869,7.4869,7.4869,7.4869,7.4869,7.4869,7.4869,7.4869,7.4869,7.4869,7.4869,7.4869,7.4869,7.4869,7.4869,7.4869,7.4869,7.4869,7.4869,7.4869,7.4869,7.4869,7.4869,7.4869,7.4869,7.4869,7.4869,7.4869,7.4869,7.4869,7.4869,7.4869,7.4869,7.4869,7.4869,7.4869,7.4869,7.4937,7.5142,7.6958,7.9593,8.1843,8.2713,8.2883,8.2883,8.2883,8.2883,8.2883,8.2883,8.2883,8.2883,8.2883,8.2883,8.2883,8.2883,8.2883,8.2883,8.2883,8.2883,8.2883,8.2883,8.2883,8.2883,8.2883,8.2883,8.2883,8.2883,8.2883,8.2883,8.2883,8.2883,8.2883,8.2883,8.2883,8.2883,8.2883,8.2883,8.2883,8.2883,8.2883,8.2883,8.2883,8.2883,8.2883,8.2883,8.2883,8.2883,8.2883,8.2883,8.2883,8.2883,8.2883,8.2883,8.2883,8.2883,8.2883,8.2883,8.2883,8.2883,8.2883,8.2883,8.2883,8.2883,8.2883,8.2883,8.2883,8.2883,8.2817,7.4869,7.4869,7.4869,7.4869,7.4869,7.4869,7.4869,7.4869,7.4869,7.4869,7.4869,7.4869,7.4869,7.4869,7.4869,7.4869,7.4869,7.4869,7.4869,7.4869,7.4869,7.4869,7.4869,7.4869,7.4869,7.4869,7.4869,7.4869,7.4869,7.4869,7.4869,7.4869,7.4869,7.4869,7.4869,7.4869,7.4869,7.4869,7.4869,7.4869,7.4869,7.4869,7.4869,7.4869,7.4869,7.5074,7.6197,7.8344,8.0657,8.1047,8.1959,8.2883,8.2883,8.2883,8.2883,8.2883,8.2883,8.2883,8.2883,8.2883,8.2883,8.2883,8.2883,8.2883,8.2883,8.2883,8.2883,8.2883,8.2883,8.2883,8.2883,8.2883,8.2883,8.2883,8.2883,8.2883,8.2883,8.2883,8.2883,8.2883,8.2883,8.2883,8.2883,8.2883,8.2883,8.2883,8.2883,8.2883,8.2883,8.2883,8.2883,8.2883,8.2883,8.2883,8.2883,8.2883,8.2883,8.2883,8.2883,8.2883,8.2883,8.2883,8.2883,8.2883,8.2883,8.2883,8.2883,8.2883,8.2883,8.2883,8.2883,8.2883,8.2883,8.2883,8.2883,8.2883,7.4869,7.4869,7.4869,7.4869,7.4869,7.4869,7.4869,7.4869,7.4869,7.4869,7.4869,7.4869,7.4869,7.4869,7.4869,7.4869,7.4869,7.4869,7.4869,7.4869,7.4869,7.4869,7.4869,7.4869,7.4869,7.4869,7.4869,7.4869,7.4869,7.4869,7.4869,7.4869,7.4869,7.4869,7.4869,7.4869,7.4869,7.4869,7.4869,7.4869,7.4869,7.4869,7.4869,7.4869,7.4869,7.518,7.7284,7.9284,8.1047,8.1785,8.2395,8.2883,8.2883,8.2883,8.2883,8.2883,8.2883,8.2883,8.2883,8.2883,8.2883,8.2883,8.2883,8.2883,8.2883,8.2883,8.2883,8.2883,8.2883,8.2883,8.2883,8.2883,8.2883,8.2883,8.2883,8.2883,8.2883,8.2883,8.2883,8.2883,8.2883,8.2883,8.2883,8.2883,8.2883,8.2883,8.2883,8.2883,8.2883,8.2883,8.2883,8.2883,8.2883,8.2883,8.2883,8.2883,8.2883,8.2883,8.2883,8.2883,8.2883,8.2883,8.2883,8.2883,8.2883,8.2883,8.2883,8.2883,8.2883,8.2883,8.2883,8.2883,8.2883,8.2883,8.2883,8.2883]}]]